[[{"header":{"parameterUnit":"m.s-1","parameterCategory":1,"la1":30.6,"la2":29.2853,"lo1":-89.7004,"lo2":-87.6739,"dy":0.0162,"dx":0.0183,"nx":112,"ny":82,"refTime":"2026-03-20T00:00:00:Z","depth":0,"parameterNumber":2,"parameterNumberName":"U-component_of_WINDS"},"data":[0.0,0.0,0.0,0.0,0.0,0.0,0.0,0.0,0.0,0.0,0.0,0.0,0.0,0.0,0.0,0.0,0.0,0.0,0.0,0.0,0.0,0.0,0.0,0.0,0.0,0.0,0.0,0.0,0.0,0.0,0.0,0.0,0.0,0.0,0.0,0.0,0.0,0.0,0.0,0.0,0.0,0.0,0.0,0.0,0.0,0.0,0.0,0.0,0.0,0.0,0.0,0.0,0.0,0.0,0.0,0.0,0.0,0.0,0.0,0.0,0.0,0.0,0.0,0.0,0.0,0.0,0.0,0.0,0.0,0.0,0.0,0.0,0.0,0.0,0.0,0.0,0.0,0.0,0.0,0.0,0.0,0.0,0.0,0.0,0.0,0.0,0.0,0.0,0.0,0.0,-4.0753,-4.1882,-4.3671,-4.5337,-4.6656,-4.4544,-4.2619,-4.1492,0.0,0.0,0.0,0.0,0.0,0.0,0.0,0.0,0.0,0.0,0.0,0.0,0.0,0.0,0.0,0.0,0.0,0.0,0.0,0.0,0.0,0.0,0.0,0.0,0.0,0.0,0.0,0.0,0.0,0.0,0.0,0.0,0.0,0.0,0.0,0.0,0.0,0.0,0.0,0.0,0.0,0.0,0.0,0.0,0.0,0.0,0.0,0.0,0.0,0.0,0.0,0.0,0.0,0.0,0.0,0.0,0.0,0.0,0.0,0.0,0.0,0.0,0.0,0.0,0.0,0.0,0.0,0.0,0.0,0.0,0.0,0.0,0.0,0.0,0.0,0.0,0.0,0.0,0.0,0.0,0.0,0.0,0.0,0.0,0.0,0.0,0.0,0.0,0.0,0.0,0.0,0.0,0.0,0.0,0.0,0.0,0.0,0.0,0.0,0.0,0.0,0.0,0.0,0.0,-4.0844,-4.3883,-4.444,-4.4981,-4.5862,-4.4957,-4.3344,-4.081,0.0,0.0,0.0,0.0,0.0,0.0,0.0,0.0,0.0,0.0,0.0,0.0,0.0,0.0,0.0,0.0,0.0,0.0,0.0,0.0,0.0,0.0,0.0,0.0,0.0,0.0,0.0,0.0,0.0,0.0,0.0,0.0,0.0,0.0,0.0,0.0,0.0,0.0,0.0,0.0,0.0,0.0,0.0,0.0,0.0,0.0,0.0,0.0,0.0,0.0,0.0,0.0,0.0,0.0,0.0,0.0,0.0,0.0,0.0,0.0,0.0,0.0,0.0,0.0,0.0,0.0,0.0,0.0,0.0,0.0,0.0,0.0,0.0,0.0,0.0,0.0,0.0,0.0,0.0,0.0,0.0,0.0,0.0,0.0,0.0,0.0,0.0,0.0,0.0,0.0,0.0,0.0,0.0,0.0,0.0,0.0,0.0,0.0,0.0,0.0,0.0,0.0,0.0,-3.9866,-4.1439,-4.3773,-4.4397,-4.4722,-4.506,-4.4119,-4.2664,-4.0631,-3.9013,0.0,0.0,0.0,0.0,0.0,0.0,0.0,0.0,0.0,0.0,0.0,0.0,0.0,0.0,0.0,0.0,0.0,0.0,0.0,0.0,0.0,0.0,0.0,0.0,0.0,0.0,0.0,0.0,0.0,0.0,0.0,0.0,0.0,0.0,0.0,0.0,0.0,0.0,0.0,0.0,0.0,0.0,0.0,0.0,0.0,0.0,0.0,0.0,0.0,0.0,0.0,0.0,0.0,0.0,0.0,0.0,0.0,0.0,0.0,0.0,0.0,0.0,0.0,0.0,0.0,0.0,0.0,0.0,0.0,0.0,0.0,0.0,0.0,0.0,0.0,0.0,0.0,0.0,0.0,0.0,0.0,0.0,0.0,0.0,0.0,0.0,0.0,0.0,0.0,0.0,0.0,0.0,0.0,0.0,0.0,0.0,0.0,0.0,0.0,0.0,0.0,0.0,-4.1006,-4.215,-4.3386,-4.433,-4.484,-4.484,-4.3734,-4.2411,-4.0875,-3.9219,0.0,0.0,0.0,0.0,0.0,0.0,0.0,0.0,0.0,0.0,0.0,0.0,0.0,0.0,0.0,0.0,0.0,0.0,0.0,0.0,0.0,0.0,0.0,0.0,0.0,0.0,0.0,0.0,0.0,0.0,0.0,0.0,0.0,0.0,0.0,0.0,0.0,0.0,0.0,0.0,0.0,0.0,0.0,0.0,0.0,0.0,0.0,0.0,0.0,0.0,0.0,0.0,0.0,0.0,0.0,0.0,0.0,0.0,0.0,0.0,0.0,0.0,0.0,0.0,0.0,0.0,0.0,0.0,0.0,0.0,0.0,0.0,0.0,0.0,0.0,0.0,0.0,0.0,0.0,0.0,0.0,0.0,0.0,0.0,0.0,0.0,0.0,0.0,0.0,0.0,0.0,0.0,0.0,0.0,0.0,0.0,0.0,0.0,0.0,0.0,0.0,0.0,-4.1087,-4.258,-4.3436,-4.48,-4.5618,-4.5618,-4.5042,-4.3762,-4.1666,-3.9975,0.0,0.0,0.0,0.0,0.0,0.0,0.0,0.0,0.0,0.0,0.0,0.0,0.0,0.0,0.0,0.0,0.0,0.0,0.0,0.0,0.0,0.0,0.0,0.0,0.0,0.0,0.0,0.0,0.0,0.0,0.0,0.0,0.0,0.0,0.0,0.0,0.0,0.0,0.0,0.0,0.0,0.0,0.0,0.0,0.0,0.0,0.0,0.0,0.0,0.0,0.0,0.0,0.0,0.0,0.0,0.0,0.0,0.0,0.0,0.0,0.0,0.0,0.0,0.0,0.0,0.0,0.0,0.0,0.0,0.0,0.0,0.0,0.0,0.0,0.0,0.0,0.0,0.0,0.0,0.0,0.0,0.0,0.0,0.0,0.0,0.0,0.0,0.0,0.0,0.0,0.0,0.0,0.0,0.0,0.0,0.0,0.0,0.0,0.0,0.0,0.0,0.0,-4.0117,-4.1565,-4.3164,-4.3972,-4.4515,-4.494,-4.3965,-4.2645,-4.0928,0.0,0.0,0.0,0.0,0.0,0.0,0.0,0.0,0.0,0.0,0.0,0.0,0.0,0.0,0.0,0.0,0.0,0.0,0.0,0.0,0.0,0.0,0.0,0.0,0.0,0.0,0.0,0.0,0.0,0.0,0.0,0.0,0.0,0.0,0.0,0.0,0.0,0.0,0.0,0.0,0.0,0.0,0.0,0.0,0.0,0.0,0.0,0.0,0.0,0.0,0.0,0.0,0.0,0.0,0.0,0.0,0.0,0.0,0.0,0.0,0.0,0.0,0.0,0.0,0.0,0.0,0.0,0.0,0.0,0.0,0.0,0.0,0.0,0.0,0.0,0.0,0.0,0.0,0.0,0.0,0.0,0.0,0.0,0.0,0.0,0.0,0.0,0.0,0.0,0.0,0.0,0.0,0.0,0.0,0.0,0.0,0.0,0.0,0.0,0.0,0.0,0.0,-3.8534,-3.9698,-4.1085,-4.3108,-4.3571,-4.406,-4.4814,-4.3411,-4.1933,-4.0666,0.0,0.0,0.0,0.0,0.0,0.0,0.0,0.0,0.0,0.0,0.0,0.0,0.0,0.0,0.0,0.0,0.0,0.0,0.0,0.0,0.0,0.0,0.0,0.0,0.0,0.0,0.0,0.0,0.0,0.0,0.0,0.0,0.0,0.0,0.0,0.0,0.0,0.0,0.0,0.0,0.0,0.0,0.0,0.0,0.0,0.0,0.0,0.0,0.0,0.0,0.0,0.0,0.0,0.0,0.0,0.0,0.0,0.0,0.0,0.0,0.0,0.0,0.0,0.0,0.0,0.0,0.0,0.0,0.0,0.0,0.0,0.0,0.0,0.0,0.0,0.0,0.0,0.0,0.0,0.0,0.0,0.0,0.0,0.0,0.0,0.0,0.0,0.0,0.0,0.0,0.0,0.0,0.0,0.0,0.0,0.0,0.0,0.0,0.0,0.0,0.0,0.0,-3.845,-3.9854,-4.1362,-4.312,-4.3975,-4.4667,-4.5323,-4.3563,-4.2014,0.0,0.0,0.0,0.0,0.0,0.0,0.0,0.0,0.0,0.0,0.0,0.0,0.0,0.0,0.0,0.0,0.0,0.0,0.0,0.0,0.0,0.0,0.0,0.0,0.0,0.0,0.0,0.0,0.0,0.0,0.0,0.0,0.0,0.0,0.0,0.0,0.0,0.0,0.0,0.0,0.0,0.0,0.0,0.0,0.0,0.0,0.0,0.0,0.0,0.0,0.0,0.0,0.0,0.0,0.0,0.0,0.0,0.0,0.0,0.0,0.0,0.0,0.0,0.0,0.0,0.0,0.0,0.0,0.0,0.0,0.0,0.0,0.0,0.0,0.0,0.0,0.0,0.0,0.0,0.0,0.0,0.0,0.0,0.0,0.0,0.0,0.0,0.0,0.0,0.0,0.0,0.0,0.0,0.0,0.0,0.0,0.0,0.0,0.0,0.0,0.0,0.0,0.0,-3.7586,-3.951,-4.1235,-4.2716,-4.316,-4.3623,-4.4346,-4.3012,-4.1295,-3.9463,0.0,0.0,0.0,0.0,0.0,0.0,0.0,0.0,0.0,0.0,0.0,0.0,0.0,0.0,0.0,0.0,0.0,0.0,0.0,0.0,0.0,0.0,0.0,0.0,0.0,0.0,0.0,0.0,0.0,0.0,0.0,0.0,0.0,0.0,0.0,0.0,0.0,0.0,0.0,0.0,0.0,0.0,0.0,0.0,0.0,0.0,0.0,0.0,0.0,0.0,0.0,0.0,0.0,0.0,0.0,0.0,0.0,0.0,0.0,0.0,0.0,0.0,0.0,0.0,0.0,0.0,0.0,0.0,0.0,0.0,0.0,0.0,0.0,0.0,0.0,0.0,0.0,0.0,0.0,0.0,0.0,0.0,0.0,0.0,0.0,0.0,0.0,0.0,0.0,0.0,0.0,0.0,0.0,0.0,0.0,0.0,0.0,0.0,0.0,0.0,0.0,0.0,-3.6803,-3.9068,-4.1096,-4.2539,-4.2748,-4.3082,-4.3789,-4.234,-4.0555,-3.856,0.0,0.0,0.0,0.0,0.0,0.0,0.0,0.0,0.0,0.0,0.0,0.0,0.0,0.0,0.0,0.0,0.0,0.0,0.0,0.0,0.0,0.0,0.0,0.0,0.0,0.0,0.0,0.0,0.0,0.0,0.0,0.0,0.0,0.0,0.0,0.0,0.0,0.0,0.0,0.0,0.0,0.0,0.0,0.0,0.0,0.0,0.0,0.0,0.0,0.0,0.0,0.0,0.0,0.0,0.0,0.0,0.0,0.0,0.0,0.0,0.0,0.0,0.0,0.0,0.0,0.0,0.0,0.0,0.0,0.0,0.0,0.0,0.0,0.0,0.0,0.0,0.0,0.0,0.0,0.0,0.0,0.0,0.0,0.0,0.0,0.0,0.0,0.0,0.0,0.0,0.0,0.0,0.0,0.0,0.0,0.0,0.0,0.0,0.0,0.0,0.0,0.0,-3.6142,-3.862,-4.083,-4.2312,-4.2539,-4.2779,-4.3379,-4.1435,-3.9663,-3.8243,0.0,0.0,0.0,0.0,0.0,0.0,0.0,0.0,0.0,0.0,0.0,0.0,0.0,0.0,0.0,0.0,0.0,0.0,0.0,0.0,0.0,0.0,0.0,0.0,0.0,0.0,0.0,0.0,0.0,0.0,0.0,0.0,0.0,0.0,0.0,0.0,0.0,0.0,0.0,0.0,0.0,0.0,0.0,0.0,0.0,0.0,0.0,0.0,0.0,0.0,0.0,0.0,0.0,0.0,0.0,0.0,0.0,0.0,0.0,0.0,-3.7908,-3.7123,0.0,0.0,0.0,0.0,0.0,0.0,0.0,0.0,0.0,0.0,0.0,0.0,0.0,0.0,0.0,0.0,0.0,0.0,0.0,0.0,0.0,0.0,0.0,0.0,0.0,0.0,0.0,0.0,0.0,0.0,0.0,0.0,0.0,0.0,0.0,0.0,0.0,0.0,0.0,0.0,-3.578,-3.7884,-3.9615,-4.0953,-4.1081,-4.1139,-4.1267,-3.9961,-3.8521,-3.7162,-3.4566,0.0,0.0,0.0,0.0,0.0,0.0,0.0,0.0,0.0,0.0,0.0,0.0,0.0,0.0,0.0,0.0,0.0,0.0,0.0,0.0,0.0,0.0,0.0,0.0,0.0,0.0,0.0,0.0,0.0,0.0,0.0,0.0,0.0,0.0,0.0,0.0,0.0,0.0,0.0,0.0,0.0,0.0,0.0,0.0,0.0,0.0,0.0,0.0,0.0,0.0,0.0,0.0,0.0,0.0,0.0,0.0,0.0,0.0,0.0,-3.9128,-3.8422,0.0,0.0,0.0,0.0,0.0,0.0,0.0,0.0,0.0,0.0,0.0,0.0,0.0,0.0,0.0,0.0,0.0,0.0,0.0,0.0,0.0,0.0,0.0,0.0,0.0,0.0,0.0,0.0,0.0,0.0,0.0,0.0,0.0,0.0,0.0,0.0,0.0,0.0,0.0,0.0,-3.4906,-3.727,-3.9128,-4.0055,-4.0421,-4.0603,-4.0603,-3.9131,-3.7772,-3.6797,-3.4041,0.0,0.0,0.0,0.0,0.0,0.0,0.0,0.0,0.0,0.0,0.0,0.0,0.0,0.0,0.0,0.0,0.0,0.0,0.0,0.0,0.0,0.0,0.0,0.0,0.0,0.0,0.0,0.0,0.0,0.0,0.0,0.0,0.0,0.0,0.0,0.0,0.0,0.0,0.0,0.0,0.0,0.0,0.0,0.0,0.0,0.0,0.0,0.0,0.0,0.0,0.0,0.0,0.0,-4.0001,-4.0355,-4.0893,-4.0893,-4.0588,-4.0121,-4.0624,-3.995,-3.8657,-3.9436,0.0,0.0,0.0,0.0,0.0,0.0,0.0,0.0,0.0,0.0,0.0,0.0,0.0,0.0,0.0,0.0,0.0,0.0,0.0,0.0,0.0,0.0,0.0,0.0,-3.4384,-3.5012,-3.347,0.0,0.0,0.0,0.0,0.0,0.0,0.0,0.0,0.0,0.0,0.0,-3.391,-3.6424,-3.8436,-3.9033,-3.9548,-3.9853,-3.9853,-3.8164,-3.6926,-3.6466,-3.3701,-3.1836,0.0,0.0,0.0,0.0,0.0,0.0,0.0,0.0,0.0,0.0,0.0,0.0,0.0,0.0,0.0,0.0,0.0,0.0,0.0,0.0,0.0,0.0,0.0,0.0,0.0,0.0,0.0,0.0,0.0,0.0,0.0,0.0,-3.0758,-3.2695,0.0,0.0,0.0,0.0,0.0,0.0,0.0,0.0,0.0,0.0,0.0,0.0,0.0,-3.9841,-3.9493,-4.0715,-4.1341,-4.1324,-4.1925,-4.2248,-4.234,-4.234,-4.2267,-4.2167,-4.2076,0.0,-3.8664,-3.978,0.0,0.0,0.0,0.0,0.0,0.0,0.0,0.0,0.0,0.0,0.0,0.0,0.0,0.0,0.0,0.0,0.0,0.0,0.0,0.0,0.0,0.0,-3.5848,-3.5691,-3.5822,-3.5809,0.0,-3.3757,-3.2515,-3.1954,-3.2176,0.0,0.0,0.0,0.0,0.0,0.0,0.0,-3.3553,-3.4927,-3.5943,-3.6498,-3.6616,-3.6656,-3.6656,-3.6016,-3.5536,-3.547,-3.4153,-3.2868,-3.1771,-3.047,0.0,0.0,0.0,0.0,0.0,0.0,0.0,0.0,0.0,0.0,0.0,0.0,0.0,0.0,0.0,0.0,0.0,0.0,0.0,0.0,0.0,0.0,0.0,0.0,0.0,0.0,0.0,0.0,0.0,-3.0215,-3.1777,-3.272,-3.3868,-3.4772,0.0,0.0,0.0,0.0,0.0,0.0,0.0,0.0,0.0,-3.9264,-4.0285,-4.0857,-4.0938,-4.207,-4.2612,-4.2709,-4.3179,-4.343,-4.371,-4.3319,-4.2922,-4.2565,-4.2356,-4.1276,-3.9629,-3.9656,-3.931,-3.8668,0.0,0.0,0.0,0.0,-3.5339,-3.4966,-3.5562,-3.5628,-3.5314,-3.4806,0.0,0.0,0.0,0.0,0.0,0.0,0.0,0.0,0.0,0.0,-3.6188,-3.6528,-3.6606,-3.6449,-3.5874,-3.4907,-3.3888,0.0,-3.2751,-3.2437,-3.1614,0.0,0.0,0.0,0.0,-3.279,-3.3051,-3.4384,-3.5391,-3.5626,-3.5926,-3.6109,-3.6109,-3.5613,-3.5299,-3.5299,-3.4228,-3.3365,-3.2842,-3.0996,-2.9377,0.0,0.0,0.0,0.0,0.0,0.0,0.0,0.0,0.0,0.0,0.0,0.0,0.0,0.0,0.0,0.0,0.0,0.0,0.0,0.0,0.0,0.0,0.0,0.0,0.0,0.0,0.0,0.0,-3.1372,-3.2762,-3.3321,-3.4926,-3.6096,0.0,0.0,0.0,0.0,0.0,0.0,-3.974,-3.9945,-4.0292,-4.0805,-4.1736,-4.2238,-4.2419,-4.3332,-4.3868,-4.3892,-4.4072,-4.426,-4.4343,-4.3864,-4.3126,-4.2252,-4.2064,-4.1381,-4.0364,-3.9564,-3.9131,-3.8861,-3.7263,-3.677,-3.703,-3.6593,-3.6157,-3.6076,-3.6818,-3.686,-3.6471,-3.5725,-3.5059,-3.4358,-3.308,0.0,0.0,0.0,0.0,-3.4188,-3.4881,-3.5691,-3.6488,-3.709,-3.7116,-3.6841,-3.6227,-3.5678,-3.4999,0.0,-3.343,-3.2894,-3.2176,0.0,0.0,0.0,0.0,-3.2751,-3.2894,-3.4175,-3.5064,-3.5064,-3.543,-3.5665,-3.5665,-3.5299,-3.5064,-3.5064,-3.41,-3.3485,-3.3329,-3.1137,-2.9455,-2.845,0.0,0.0,0.0,0.0,0.0,0.0,0.0,0.0,0.0,0.0,0.0,0.0,0.0,0.0,0.0,0.0,0.0,0.0,0.0,0.0,0.0,0.0,0.0,0.0,0.0,0.0,0.0,0.0,0.0,-3.5235,-3.625,0.0,0.0,0.0,0.0,-3.9408,-3.9455,-3.9771,-4.0514,-4.1146,-4.1759,-4.2281,-4.3724,-4.4378,-4.4081,-4.493,-4.5184,-4.4827,-4.4827,-4.445,-4.363,-4.363,-4.279,-4.138,-4.1184,-4.0865,-4.0584,-3.9911,-3.9321,-3.8687,-3.7776,-3.746,-3.7487,-3.746,-3.7066,-3.6564,-3.6619,-3.6313,-3.5987,-3.6564,-3.6023,-3.5129,-3.4463,-3.3927,0.0,0.0,-3.475,-3.5469,-3.658,-3.692,-3.7116,-3.7717,-3.7416,-3.6841,-3.6227,-3.5678,-3.5103,0.0,-3.4332,-3.3953,-3.2842,0.0,-3.2424,-3.1888,-3.2306,-3.2894,-3.347,-3.4071,-3.445,-3.445,-3.4463,-3.4489,-3.4489,-3.4463,-3.445,-3.445,-3.381,-3.3191,-3.2548,-3.0783,-2.9,-2.7325,-2.5909,0.0,0.0,0.0,0.0,0.0,0.0,0.0,0.0,0.0,0.0,0.0,0.0,0.0,0.0,0.0,0.0,0.0,0.0,0.0,0.0,0.0,0.0,0.0,0.0,0.0,0.0,0.0,0.0,-3.6505,-3.8095,0.0,-3.9062,-3.9093,-3.9393,-4.0151,-4.0609,-4.1162,-4.1904,-4.26,-4.321,-4.3835,-4.4378,-4.4795,-4.4992,-4.5463,-4.5515,-4.5055,-4.4632,-4.4236,-4.3771,-4.2614,-4.1796,-4.1296,-4.0502,-4.0148,-4.0001,-3.9578,-3.9578,-3.9673,-3.8898,-3.8667,-3.8627,-3.8247,-3.7962,-3.7718,-3.7169,-3.6766,-3.6399,-3.5983,-3.5627,-3.5182,-3.458,-3.4267,-3.4149,-3.4345,-3.4829,-3.5391,-3.5796,-3.6162,-3.6488,-3.6698,-3.6305,-3.5848,-3.5626,-3.5129,-3.4575,-3.3849,-3.3874,-3.3626,-3.2829,-3.2685,-3.2502,-3.1927,-3.2659,-3.3352,-3.3561,-3.4071,-3.4397,-3.4397,-3.4397,-3.423,-3.381,-3.3738,-3.3543,-3.3091,-3.2834,-3.25,-3.2216,-3.0494,-2.9089,-2.8199,-2.6124,-2.4384,0.0,0.0,0.0,0.0,0.0,0.0,0.0,0.0,0.0,0.0,0.0,0.0,0.0,0.0,0.0,0.0,0.0,0.0,0.0,0.0,0.0,0.0,0.0,0.0,0.0,0.0,-3.6592,-3.7446,-3.9247,-4.0259,-3.9914,-3.9866,-4.0277,-4.1241,-4.1715,-4.2363,-4.3311,-4.3801,-4.4369,-4.5065,-4.508,-4.5246,-4.5589,-4.5735,-4.5515,-4.498,-4.448,-4.3834,-4.3126,-4.1879,-4.1127,-4.0745,-4.0023,-3.9612,-3.9598,-3.9394,-3.9536,-3.9848,-3.9454,-3.9183,-3.8952,-3.8559,-3.8152,-3.7745,-3.7111,-3.6721,-3.6412,-3.5897,-3.5542,-3.5221,-3.4816,-3.4698,-3.4698,-3.4698,-3.4946,-3.5227,-3.5227,-3.5311,-3.5391,-3.5391,-3.4968,-3.4584,-3.4584,-3.4123,-3.353,-3.3116,-3.3263,-3.3269,-3.2431,-3.2329,-3.2201,-3.2055,-3.25,-3.3065,-3.3506,-3.3663,-3.37,-3.37,-3.37,-3.3454,-3.2865,-3.2669,-3.2411,-3.1688,-3.143,-3.117,-3.1009,-2.9562,-2.851,-2.7974,-2.5808,-2.4221,-2.3456,0.0,0.0,0.0,0.0,0.0,0.0,0.0,0.0,0.0,0.0,0.0,0.0,0.0,0.0,0.0,0.0,0.0,0.0,0.0,0.0,0.0,0.0,0.0,-3.2664,-3.5419,-3.7573,-3.8247,-3.9724,-4.0625,-4.0625,-4.0625,-4.1209,-4.2584,-4.271,-4.3295,-4.4638,-4.4733,-4.5065,-4.5792,-4.5807,-4.5807,-4.5807,-4.5807,-4.5352,-4.4572,-4.4312,-4.3269,-4.1688,-4.1408,-4.0659,-3.97,-3.97,-3.951,-3.9305,-3.9305,-3.9292,-3.9278,-3.9278,-3.8925,-3.8423,-3.8383,-3.7596,-3.6578,-3.637,-3.6119,-3.596,-3.6333,-3.5903,-3.5299,-3.5273,-3.5273,-3.5273,-3.5273,-3.5131,-3.4997,-3.4997,-3.4535,-3.3991,-3.3991,-3.3597,-3.3125,-3.3125,-3.2695,-3.2302,-3.2202,-3.2821,-3.294,-3.1723,-3.1467,-3.1709,-3.2331,-3.1841,0.0,-3.3186,-3.2722,-3.2277,-3.2277,-3.2289,-3.2093,-3.1589,-3.1333,-3.0931,-3.0504,-2.9543,-2.9032,-2.9044,-2.789,-2.7034,-2.6562,-2.4987,-2.4116,-2.3857,0.0,0.0,0.0,0.0,0.0,0.0,0.0,0.0,0.0,0.0,0.0,0.0,0.0,0.0,0.0,0.0,0.0,0.0,0.0,0.0,0.0,-3.1304,-3.2727,-3.388,-3.6029,-3.7892,-3.9031,-4.0467,-4.132,-4.132,-4.132,-4.1699,-4.2616,-4.3137,-4.3785,-4.4654,-4.5223,-4.5602,-4.5807,-4.5807,-4.5573,-4.5067,-4.5067,-4.4768,-4.4082,-4.3269,-4.2452,-4.1922,-4.0816,-4.0083,-3.97,-3.9496,-3.9394,-3.9305,-3.9305,-3.9047,-3.8667,-3.8667,-3.8559,-3.8315,-3.7419,-3.6619,-3.5886,-3.5736,-3.5758,-3.5827,-3.5407,-3.5247,-3.5221,-3.4776,-3.4309,-3.3884,-3.3884,-3.3543,-3.3033,-3.2857,-3.2693,-3.2503,-3.2301,-3.218,-3.2083,-3.2083,-3.1862,-3.1556,-3.066,-3.0676,-3.0901,-3.1186,-3.1089,-3.1041,-3.0891,-3.0842,0.0,-3.123,-3.1393,-3.1455,-3.1295,-3.1622,-3.1372,-3.0336,-3.0201,-2.9816,-2.8821,-2.8355,-2.8007,-2.7854,-2.703,-2.6163,-2.5392,-2.4577,-2.396,0.0,0.0,0.0,0.0,0.0,0.0,0.0,0.0,0.0,0.0,0.0,0.0,0.0,0.0,0.0,0.0,0.0,0.0,0.0,0.0,0.0,0.0,-3.1911,-3.3337,-3.4629,-3.6386,-3.8058,-3.933,-4.0482,-4.1288,-4.1557,-4.1588,-4.1889,-4.2631,-4.3311,-4.399,-4.467,-4.5412,-4.5646,-4.5395,-4.5646,-4.5484,-4.4812,-4.5067,-4.4752,-4.3756,-4.3016,-4.2193,-4.1226,-4.0416,-3.9834,-3.9496,-3.9394,-3.9169,-3.8925,-3.8925,-3.8586,0.0,0.0,0.0,0.0,0.0,-3.6008,-3.5629,-3.548,-3.5463,-3.5442,-3.4958,-3.4826,-3.4855,-3.4502,-3.3894,-3.3398,-3.3288,-3.2488,-3.1689,-3.1436,-3.1181,-3.0913,-3.08,-3.0711,-3.0652,-3.0442,-3.0395,-3.0167,-2.9217,-2.9038,0.0,-2.9549,-2.9734,-2.9715,-2.9821,-2.9616,-2.9628,-2.9881,-2.9877,-2.9895,-2.9734,-2.9992,-2.9782,-2.885,-2.8642,0.0,0.0,0.0,-2.6715,-2.6466,-2.583,0.0,0.0,0.0,0.0,0.0,0.0,0.0,0.0,-2.3153,-2.3029,0.0,0.0,0.0,0.0,0.0,0.0,0.0,0.0,0.0,0.0,0.0,0.0,0.0,0.0,0.0,0.0,-3.243,-3.3527,-3.5014,-3.6554,-3.7948,-3.9157,-4.0086,-4.0876,-4.1459,-4.1588,-4.1889,-4.2631,-4.3263,-4.3927,-4.467,0.0,0.0,0.0,0.0,-4.5395,-4.4812,-4.5321,-4.4858,-4.3506,-4.316,-4.2097,-4.0301,-4.0083,-3.9706,-3.921,-3.921,-3.8871,-3.8315,-3.8315,-3.7962,-3.7473,-3.8016,-3.7514,-3.6429,-3.5913,-3.571,-3.5629,-3.548,0.0,0.0,-3.4839,-3.4577,-3.4397,-3.4397,-3.3894,-3.3215,-3.2993,-3.1853,-3.0722,-3.0453,-2.992,-2.9485,-2.9393,-2.9393,-2.9259,-2.879,-2.869,-2.8533,-2.8063,-2.77,-2.7601,-2.7546,-2.7754,-2.8113,-2.8792,-2.8327,-2.8121,-2.8699,-2.8339,-2.7951,-2.7951,0.0,0.0,-2.726,-2.7056,-2.6749,-2.619,-2.5728,-2.538,-2.52,-2.4524,-2.4231,-2.42,-2.3981,-2.3898,-2.396,-2.4353,-2.4333,-2.3929,-2.2687,-2.2749,0.0,0.0,0.0,0.0,0.0,0.0,0.0,0.0,0.0,0.0,0.0,0.0,0.0,0.0,0.0,-3.1689,-3.2774,-3.3806,-3.5014,-3.5917,-3.6827,-3.8091,-3.9689,-4.0795,-4.0919,-4.1323,-4.1889,-4.2631,-4.2821,-4.3421,-4.4654,-4.4843,-4.5119,-4.5614,-4.5231,-4.4902,-4.4812,-4.4465,-4.3756,-4.279,0.0,0.0,-4.0301,-3.9922,-3.9325,-3.8586,-3.8586,-3.8247,-3.7704,-3.7704,-3.7338,-3.6795,-3.6904,-3.651,-3.5873,-3.575,-3.571,-3.5629,-3.548,-3.5236,-3.5086,-3.4839,-3.4577,-3.4397,-3.4397,-3.353,0.0,-3.2239,-3.1193,-2.9966,-2.9485,-2.9301,-2.9128,-2.8943,-2.8943,-2.8811,-2.8236,-2.8138,-2.7886,-2.702,-2.6856,-2.6735,-2.633,-2.6593,-2.7017,-2.7242,-2.6919,-2.6601,-2.6758,-2.7008,-2.7081,-2.6942,-2.7272,-2.7305,-2.6757,-2.6713,-2.642,-2.576,-2.5295,-2.5031,-2.4946,-2.4273,-2.4127,-2.4405,-2.4064,-2.4053,-2.4416,-2.4498,-2.4498,-2.4405,-2.4136,-2.396,0.0,0.0,0.0,0.0,0.0,0.0,0.0,0.0,0.0,0.0,0.0,-2.6898,-2.8422,0.0,-3.0931,-3.1825,-3.3114,-3.4185,-3.4743,-3.5345,-3.6319,-3.7758,-3.9017,-4.0071,-4.0768,-4.1055,-4.148,-4.211,-4.2473,-4.3121,-4.4148,-4.4527,-4.4874,-4.529,-4.5305,-4.5142,-4.4812,-4.4843,-4.4389,-4.3427,-4.2856,-4.1961,-4.0631,-3.9778,-3.9056,-3.8396,-3.8098,-3.7636,-3.7053,-3.6741,-3.6442,-3.6157,-3.6157,-3.5981,-3.571,-3.571,-3.571,-3.5629,-3.548,-3.5236,-3.5086,-3.4839,-3.4577,-3.4397,-3.4397,-3.3713,-3.276,-3.2164,-3.1104,-3.0034,-2.9312,-2.9035,-2.8943,-2.885,-2.8571,-2.8265,-2.7785,-2.7501,-2.7119,-2.6409,-2.6267,-2.619,-2.5939,-2.6103,-2.6256,-2.6414,-2.6217,-2.6074,-2.6074,-2.6271,-2.633,-2.6267,-2.6474,-2.6507,-2.6289,-2.6182,-2.5903,-2.5391,-2.5126,-2.4871,-2.47,-2.4189,-2.3981,-2.4209,-2.3991,-2.3991,-2.4209,-2.4436,-2.454,-2.454,-2.454,-2.4416,0.0,0.0,0.0,0.0,0.0,0.0,0.0,0.0,-2.4596,-2.6392,-2.6844,-2.7393,-2.8799,-3.0306,-3.1524,-3.2026,-3.3374,-3.4414,-3.4414,-3.4965,-3.5922,-3.7421,-3.8235,-3.9275,-4.05,-4.073,-4.0987,-4.139,-4.2075,-4.2758,-4.3283,-4.3936,-4.4409,-4.4557,-4.5003,-4.5065,-4.4775,-4.5206,-4.4958,-4.422,-4.3512,-4.2328,-4.0872,-3.9592,-3.8679,-3.803,-3.7446,-3.689,-3.6388,-3.5913,-3.571,-3.571,-3.571,-3.571,-3.571,-3.571,-3.571,-3.5629,-3.548,-3.5236,-3.5086,-3.4839,-3.4577,-3.4397,-3.423,-3.3725,-3.2945,-3.2064,-3.108,-3.0102,-2.9301,-2.8943,-2.8735,-2.8637,-2.832,-2.7883,-2.7304,-2.6889,-2.6485,-2.5994,-2.5895,-2.5895,-2.5895,-2.5895,-2.5895,-2.5895,-2.5895,-2.5895,-2.5895,-2.5895,-2.5895,-2.5895,-2.5895,-2.5895,-2.5822,-2.5644,-2.538,-2.52,-2.4946,-2.4786,-2.4625,-2.4115,-2.3919,-2.4002,-2.3919,-2.3919,-2.4012,-2.4364,-2.454,-2.454,-2.454,-2.454,-2.1497,-2.1987,-2.244,-2.2965,-2.2773,-2.2837,0.0,0.0,-2.5633,-2.7611,-2.8482,-2.9199,-3.0216,-3.1464,-3.2376,-3.2434,-3.3521,-3.4414,-3.4414,-3.4965,-3.5659,-3.6356,-3.7482,-3.8687,-3.9899,-4.0493,-4.0799,-4.0851,-4.1402,-4.1799,-4.1992,-4.2563,-4.3232,-4.3772,-4.3363,-4.3628,-4.4669,-4.4252,-4.4106,-4.422,-4.3366,-4.2045,-4.0453,-3.9239,-3.8103,-3.7016,-3.6253,-3.5873,-3.5818,-3.575,-3.571,-3.571,-3.571,-3.571,-3.571,-3.571,-3.571,-3.5629,-3.548,-3.5236,-3.5086,-3.4839,-3.4577,-3.4314,-3.3725,-3.3031,-3.2215,-3.1247,-3.0374,-2.9577,-2.922,-2.8943,-2.8648,-2.8222,-2.808,-2.7796,-2.69,-2.666,-2.6485,-2.5994,-2.5895,-2.5895,-2.5895,-2.5895,-2.5895,-2.5895,-2.5895,-2.5895,-2.5895,-2.5895,-2.5895,-2.5895,-2.5895,-2.5822,-2.5654,-2.5211,-2.5031,-2.52,-2.4786,-2.4625,-2.4861,-2.4273,-2.4064,-2.4457,-2.4074,-2.4074,-2.4467,-2.4519,-2.454,-2.454,-2.454,-2.454,-2.1771,-2.2205,0.0,0.0,-2.2997,-2.3463,-2.4288,-2.4914,-2.589,-2.7811,-2.8411,-2.9014,-3.0393,-3.1642,-3.2513,0.0,-3.3587,-3.4414,-3.4414,-3.4646,-3.5053,-3.5677,-3.6514,-3.7647,-3.926,-3.9651,-4.0091,-4.073,-4.0987,-4.1502,-4.226,-4.2527,-4.3011,-4.3706,-4.3481,-4.3607,-4.4132,-4.3835,-4.3675,-4.3592,-4.2514,-4.1454,-4.0358,-3.8619,-3.7303,-3.6144,-3.5818,-3.571,-3.571,-3.571,-3.571,-3.571,-3.571,-3.571,-3.571,-3.571,-3.571,-3.571,-3.5642,-3.5399,-3.5086,-3.5003,-3.4743,-3.4314,-3.3569,-3.3104,-3.2463,-3.1247,-3.0453,-2.9738,-2.9209,-2.8943,-2.8637,-2.8156,-2.7818,-2.7435,-2.6769,-2.6409,-2.6147,-2.5939,-2.5895,-2.5895,-2.5895,-2.5895,-2.5895,-2.5895,-2.5895,-2.5895,-2.5895,-2.5895,-2.5895,-2.5895,-2.5822,-2.5644,-2.5654,-2.5211,-2.4946,-2.5031,-2.47,-2.454,-2.4615,-2.4364,-2.4353,-2.454,-2.4364,-2.4353,-2.454,-2.454,-2.454,-2.454,-2.454,-2.454,-2.1564,0.0,0.0,-2.2725,-2.3446,-2.4137,-2.4439,-2.5186,-2.6288,-2.7969,-2.8455,-2.903,-3.0364,-3.1482,-3.2309,-3.2483,-3.3441,-3.4211,-3.4385,-3.4414,-3.4646,-3.5285,-3.5904,-3.689,-3.8689,-3.913,-3.9651,-4.0493,-4.0851,-4.1357,-4.216,-4.2327,-4.2616,-4.3121,-4.3105,-4.3216,-4.3437,-4.3406,-4.3293,-4.3114,-4.1843,-4.086,-4.0095,-3.7934,-3.6469,-3.571,-3.571,-3.571,-3.571,-3.571,-3.571,-3.571,-3.571,-3.571,-3.571,-3.571,-3.571,-3.571,-3.5642,-3.5399,-3.5086,-3.5003,-3.4743,-3.423,-3.3373,-3.2932,-3.2389,-3.0991,-3.0283,-2.9738,-2.9209,-2.8943,-2.8604,-2.7981,-2.7566,-2.7151,-2.6562,-2.6147,-2.5895,-2.5895,-2.5895,-2.5895,-2.5895,-2.5895,-2.5895,-2.5895,-2.5895,-2.5895,-2.5895,-2.5895,-2.5895,-2.5812,-2.5644,-2.5475,-2.5391,-2.5041,-2.4786,-2.4786,-2.4625,-2.454,-2.454,-2.454,-2.454,-2.454,-2.454,-2.454,-2.454,-2.454,-2.4368,-2.4196,-2.4196,-2.411,0.0,0.0,-2.27,-2.3541,-2.4239,-2.4867,-2.5646,-2.6329,-2.7145,-2.8423,-2.916,-2.9798,-3.0451,-3.1105,-3.1758,-3.2411,-3.3079,-3.3703,-3.4327,-3.4414,-3.4646,-3.5285,-3.5839,-3.6615,0.0,-3.9174,-3.9905,-3.9889,-4.0956,-4.1406,-4.0898,-4.1355,-4.1636,-4.1652,-4.1652,-4.1999,-4.271,-4.271,-4.2837,-4.3098,-4.1817,-4.0616,-3.9437,-3.713,-3.6006,-3.571,-3.571,-3.571,-3.571,-3.571,-3.571,-3.571,-3.571,-3.571,-3.571,-3.571,-3.571,-3.5629,-3.548,-3.5236,-3.5086,-3.4839,-3.466,-3.4134,-3.2747,-3.2227,-3.1725,-3.0329,-2.9508,-2.9128,-2.9128,-2.8943,-2.8517,-2.7555,-2.7326,-2.7053,-2.6125,-2.5917,-2.5895,-2.5895,-2.5895,-2.5895,-2.5895,-2.5895,-2.5895,-2.5895,-2.5895,-2.5895,-2.5895,-2.5895,-2.5822,-2.5644,-2.538,-2.5115,-2.4946,-2.47,-2.454,-2.454,-2.454,-2.454,-2.454,-2.454,-2.454,-2.454,-2.454,-2.454,-2.454,-2.454,-2.4196,-2.3503,-2.3503,-2.3135,0.0,0.0,-2.3438,-2.3748,-2.4654,-2.5522,-2.5591,-2.6198,-2.6989,-2.7746,-2.8494,-2.9189,-2.9827,-3.08,-3.1598,-3.1816,-3.2759,-3.3543,-3.3746,-3.4153,-3.4622,-3.5215,-3.5748,0.0,0.0,0.0,0.0,-4.0462,-4.0851,-4.1122,-4.1323,-4.1522,-4.1588,-4.1588,-4.1588,-4.1715,-4.1952,-4.1952,-4.1877,-4.1788,-4.0288,-3.9092,-3.7973,-3.6856,-3.6058,-3.571,-3.571,-3.571,-3.571,-3.571,-3.571,-3.571,-3.571,-3.571,-3.571,-3.571,-3.571,-3.571,-3.5642,-3.5399,-3.5086,-3.5003,-3.4743,-3.4134,-3.2735,-3.204,-3.1424,-3.0023,-2.9312,-2.8943,-2.8943,-2.885,-2.8517,-2.7545,-2.7315,-2.7053,-2.6103,-2.5895,-2.5895,-2.5895,-2.5895,-2.5895,-2.5895,-2.5895,-2.5895,-2.5895,-2.5895,-2.5812,-2.5728,-2.5728,-2.5644,-2.538,-2.5115,-2.4946,-2.4946,-2.4615,-2.454,-2.454,-2.454,-2.454,-2.454,-2.454,-2.454,-2.454,-2.454,-2.454,-2.454,-2.454,-2.4196,-2.3503,-2.3299,-2.2843,-2.1729,-2.3014,-2.423,-2.45,-2.5412,-2.6165,-2.592,-2.6497,-2.7122,-2.7472,-2.8307,-2.9073,-2.9493,-3.048,-3.125,-3.1482,-3.2425,-3.3209,-3.3507,-3.4008,-3.4601,-3.5103,-3.5657,-3.633,0.0,0.0,0.0,-4.0334,-4.0847,-4.1256,-4.1588,-4.1588,-4.1588,-4.1588,-4.1588,-4.1588,-4.1588,-4.1588,-4.1323,-4.0746,-3.9349,-3.8188,-3.7303,-3.6628,-3.6072,-3.571,-3.571,-3.571,-3.571,-3.571,-3.571,-3.571,-3.571,-3.571,-3.571,-3.571,-3.571,-3.571,-3.5642,-3.5399,-3.5086,-3.5003,-3.4743,-3.423,-3.3018,-3.2227,-3.1512,-3.0181,-2.9393,-2.885,-2.885,-2.8757,-2.8549,-2.7763,-2.7435,-2.7108,-2.6332,-2.6026,-2.5895,-2.5895,-2.5895,-2.5895,-2.5895,-2.5895,-2.5906,-2.5812,-2.5812,-2.5728,-2.5654,-2.5559,-2.5475,-2.5115,-2.4946,-2.4861,-2.4786,-2.4625,-2.454,-2.454,-2.454,-2.454,-2.454,-2.454,-2.454,-2.454,-2.454,-2.4368,-2.411,-2.411,-2.3667,-2.2696,-2.2492,-2.1952,-2.2764,-2.3928,-2.5015,-2.5739,-2.634,-2.6779,-2.6779,-2.7136,-2.7461,-2.7614,-2.854,-2.9406,0.0,0.0,-3.0814,-3.1424,-3.2106,-3.2774,-3.3449,-3.4074,-3.4668,0.0,0.0,0.0,0.0,0.0,0.0,-3.9594,0.0,-4.1541,-4.1588,-4.1588,-4.1588,-4.1588,-4.1588,-4.1588,-4.1588,-4.1588,-4.1107,-4.0216,-3.9133,-3.8098,-3.7303,-3.6536,-3.5978,-3.5723,-3.5723,-3.571,-3.571,-3.5683,-3.5669,-3.5669,-3.5642,-3.5628,-3.5628,-3.5628,-3.5628,-3.5548,-3.5386,-3.5264,-3.5072,-3.4799,-3.4647,-3.4314,-3.3654,-3.2785,-3.1801,-3.0812,-2.9829,-2.9035,-2.885,-2.8757,-2.8637,-2.8156,-2.7665,-2.7184,-2.6725,-2.6245,-2.5895,-2.5895,-2.5895,-2.5895,-2.5895,-2.5906,-2.5812,-2.5644,-2.557,-2.5559,-2.5559,-2.5559,-2.5391,-2.4946,-2.4861,-2.4786,-2.454,-2.454,-2.454,-2.454,-2.454,-2.454,-2.454,-2.454,-2.4454,-2.4454,-2.4454,-2.411,-2.3416,-2.3406,-2.2696,-2.1356,-2.1078,-2.0546,-2.3757,-2.4681,-2.5683,-2.5851,-2.6258,-2.6525,-2.6447,-2.6522,-2.6711,-2.7113,-2.801,-2.8886,0.0,0.0,0.0,-3.1482,-3.2483,0.0,-3.3932,-3.4573,0.0,-3.6211,0.0,-3.677,-3.7461,-3.8146,0.0,0.0,-4.0087,-4.1067,-4.1557,-4.1588,-4.1588,-4.1588,-4.1588,-4.1588,-4.1588,-4.1355,-4.1018,-4.0646,-3.9809,-3.9002,-3.8188,-3.7366,-3.6615,-3.5992,-3.5804,-3.571,-3.5683,-3.5235,-3.5058,-3.5004,-3.457,-3.4316,-3.4316,-3.4316,-3.4316,-3.4316,-3.4329,-3.4739,-3.5251,-3.4579,-3.4481,-3.4507,-3.3654,-3.2785,-3.1801,-3.0812,-2.9829,-2.9035,-2.885,-2.8757,-2.8637,-2.8156,-2.7665,-2.7184,-2.6725,-2.6245,-2.5895,-2.5895,-2.5895,-2.5895,-2.5895,-2.5812,-2.5644,-2.5644,-2.5475,-2.5211,-2.5126,-2.5041,-2.4956,-2.4625,-2.4615,-2.4529,-2.454,-2.454,-2.454,-2.454,-2.454,-2.454,-2.454,-2.454,-2.4282,-2.3764,-2.3764,-2.3396,-2.2668,-2.2492,-2.1961,-2.1078,-2.0709,-2.0085,-2.4766,-2.576,-2.6629,-2.6275,-2.6565,-2.6816,-2.6343,-2.6378,-2.6565,-2.6849,-2.7869,0.0,0.0,0.0,0.0,0.0,0.0,0.0,-3.4589,-3.519,-3.5906,0.0,-3.6894,0.0,-3.748,-3.7828,-3.8191,0.0,-3.9503,-4.0277,-4.0656,-4.0972,-4.1146,-4.1146,-4.143,-4.1588,-4.1588,-4.1288,-4.1034,-4.095,-3.9809,-3.9002,-3.8472,-3.7366,-3.6615,-3.6086,0.0,-3.5574,-3.5303,-3.4963,-3.4679,-3.4329,-3.4005,-3.3869,-3.3869,-3.3869,-3.3869,-3.3842,-3.3647,-3.4086,-3.4685,-3.4313,-3.4271,-3.4262,-3.3577,-3.2772,-3.1877,-3.0812,-2.992,-2.922,-2.885,-2.8757,-2.8637,-2.8156,-2.7665,-2.7184,-2.6725,-2.6245,-2.5895,-2.5895,-2.5895,-2.5895,-2.5895,-2.5812,-2.5644,-2.5464,-2.5285,-2.5115,-2.4786,-2.4861,-2.4786,-2.454,-2.454,-2.454,-2.454,-2.454,-2.454,-2.454,-2.454,-2.4368,-2.411,-2.4024,-2.3754,-2.3038,-2.2862,-2.2501,-2.1784,-2.1516,-2.1078,-2.0374,-2.0002,-1.9629,-2.6025,-2.703,-2.7723,-2.6967,-2.7075,-2.725,-2.6351,-2.6497,-2.6778,-2.6862,0.0,-2.8916,-2.918,-3.0542,-3.1656,-3.1704,0.0,-3.4609,-3.5524,-3.5861,-3.6425,-3.767,-3.7173,-3.6968,-3.748,-3.748,-3.7733,-3.8333,-3.8902,-3.9313,-3.9487,-4.0103,-4.0498,-4.0609,-4.1241,-4.1588,-4.1522,-4.1236,-4.1034,-4.0966,-3.958,-3.8782,-3.8472,-3.7134,-3.635,-3.5963,-3.5695,-3.5262,-3.4706,-3.4624,-3.4299,-3.3824,-3.3742,-3.3639,-3.3639,-3.3639,-3.3639,-3.3634,-3.3118,-3.3281,-3.3734,-3.3938,-3.3874,-3.3642,-3.336,-3.2734,-3.178,-3.0789,-2.9966,-2.9201,-2.8844,-2.8615,-2.8451,-2.8047,-2.7577,-2.7119,-2.6715,-2.6245,-2.5895,-2.5895,-2.5895,-2.5895,-2.5895,-2.5812,-2.5633,-2.5285,-2.5115,-2.4946,-2.454,-2.47,-2.4786,-2.454,-2.454,-2.454,-2.454,-2.454,-2.4454,-2.4368,-2.4368,-2.4024,-2.3406,-2.3319,-2.295,-2.2217,-2.1952,-2.1507,-2.0817,-2.0546,-2.0102,-1.9587,-1.9288,-1.9188,-2.7928,-2.8453,-2.8921,-2.825,-2.7625,-2.7073,-2.6736,-2.6581,0.0,0.0,0.0,-2.8951,-2.9553,-3.1017,-3.2324,-3.2874,0.0,0.0,0.0,0.0,-3.7033,0.0,-3.777,-3.7421,-3.748,-3.748,0.0,0.0,-3.7765,-3.8318,-3.9439,-3.9629,-3.9977,-4.0577,-4.1241,-4.1472,-4.1169,-4.1102,-4.0966,-4.0608,-3.9895,-3.9162,-3.8472,-3.7596,-3.6493,-3.5347,-3.507,0.0,-3.3977,-3.358,-3.3308,-3.3159,-3.2671,-3.2481,-3.2481,-3.2481,-3.2481,-3.2467,-3.2372,-3.2399,-3.2576,-3.2845,-3.2815,-3.2681,-3.2816,-3.1808,-3.0548,-3.0516,-2.9624,-2.8519,-2.8258,-2.7861,-2.7545,-2.7457,-2.7086,-2.6725,-2.6649,-2.6245,-2.5895,-2.5895,-2.5895,-2.5895,-2.5895,-2.5549,-2.5285,-2.52,-2.4871,-2.4625,-2.454,-2.454,-2.454,-2.454,-2.454,-2.454,-2.454,-2.454,-2.4282,-2.3677,-2.3677,-2.3309,-2.258,-2.2403,-2.1961,-2.1257,-2.0988,-2.0546,-1.9853,-1.9563,-1.9371,-1.9288,-1.9012,-1.8827,-2.8669,-2.9138,-2.9356,-2.8412,-2.7826,-2.7285,-2.6734,0.0,0.0,0.0,0.0,-2.8689,-2.9386,0.0,0.0,0.0,0.0,0.0,0.0,0.0,0.0,0.0,0.0,-3.8462,0.0,-3.8456,-3.8286,-3.8059,-3.7943,-3.8073,-3.8412,-3.8792,-3.9487,-4.0577,-4.0909,-4.111,-4.1205,-4.1102,-4.0966,-4.0662,-3.9666,-3.8824,-3.7974,-3.6869,-3.5794,-3.4703,-3.4458,-3.4041,-3.3457,-3.3186,-3.2874,-3.2576,-3.2291,-3.2182,-3.2182,-3.2182,-3.2182,-3.2182,-3.2182,-3.2109,-3.2004,-3.1849,-3.1808,-3.1834,-3.1232,-3.0483,-2.971,-2.9178,-2.8556,-2.7944,-2.7754,-2.749,-2.725,-2.7009,-2.6594,-2.6256,-2.6256,-2.607,-2.5895,-2.5895,-2.5895,-2.5895,-2.5728,-2.5559,-2.5295,-2.5115,-2.4861,-2.4615,-2.454,-2.454,-2.454,-2.454,-2.454,-2.454,-2.454,-2.4196,-2.3851,-2.3503,-2.3038,-2.2403,-2.1695,-2.1427,-2.0988,-2.0292,-2.0011,-1.9737,-1.9387,-1.9104,-1.9004,-1.9012,-1.8827,-1.8827,-2.9307,-2.9746,-2.9799,-2.8637,-2.8229,-2.7823,-2.6931,-2.6685,0.0,0.0,-2.7735,-2.8533,-2.9164,0.0,0.0,0.0,0.0,0.0,0.0,0.0,0.0,0.0,0.0,0.0,-3.9357,-3.9155,0.0,-3.8518,-3.8294,-3.7985,-3.7539,-3.8144,-3.9013,-4.0119,-4.0229,-4.0558,-4.1021,-4.0868,-4.0811,-4.073,-3.9286,-3.8223,-3.7492,-3.5986,-3.4851,-3.406,-3.3832,-3.3417,-3.2874,-3.2874,-3.2603,-3.2182,-3.2182,-3.2182,-3.2182,-3.2182,-3.2182,-3.2182,-3.2182,-3.195,-3.1569,-3.0833,-3.0765,-3.0773,-2.9606,-2.9089,-2.8699,-2.7919,-2.7623,-2.7447,-2.7173,-2.7086,-2.6922,-2.6562,-2.6179,-2.5895,-2.5895,-2.5895,-2.5895,-2.5895,-2.5895,-2.5812,-2.5644,-2.5559,-2.538,-2.4946,-2.4861,-2.4744,-2.4405,-2.4307,-2.4241,-2.4149,-2.4221,-2.4241,-2.4149,-2.3607,-2.3144,-2.296,-2.2227,-2.1427,-2.0727,-2.0456,-2.0011,-1.9487,-1.9288,-1.9096,-1.9096,-1.892,-1.8827,-1.8827,-1.8827,-1.8827,-3.0372,-3.0654,-3.0837,-2.9742,-2.9185,-2.8781,-2.8051,0.0,0.0,-2.7718,-2.8225,-2.8839,-2.9085,0.0,0.0,0.0,0.0,0.0,0.0,0.0,0.0,0.0,0.0,0.0,-3.9209,-3.8843,-3.8574,-3.8502,-3.8059,-3.77,-3.7539,-3.8144,-3.857,-3.8697,-3.9172,-3.9626,-4.0119,-4.0002,-4.0112,-4.0524,-3.8736,-3.7665,-3.7216,-3.5475,-3.4108,-3.322,-3.322,-3.2806,0.0,-3.225,-3.2223,-3.2182,-3.2182,-3.2182,-3.2182,-3.2182,-3.2182,-3.2182,-3.2182,-3.169,-3.082,-3.0075,-2.9586,-2.9253,-2.8997,-2.8073,-2.7178,-2.7568,-2.7206,-2.6693,-2.6693,-2.6365,-2.6026,-2.5983,-2.5928,-2.5895,-2.5895,-2.5895,-2.5895,-2.5895,-2.5895,-2.5812,-2.5644,-2.538,-2.52,-2.4946,-2.47,-2.4395,-2.3991,-2.377,-2.3431,-2.3033,-2.3352,-2.3421,-2.3023,-2.2717,-2.2138,-2.1257,-2.1168,-2.0645,-1.9762,-1.9471,-1.9279,-1.9279,-1.9012,-1.8827,-1.8827,-1.8827,-1.8827,-1.8827,-1.8827,-1.8827,-3.1058,-3.1557,-3.1871,-3.0841,-2.9993,-2.9292,-2.8625,0.0,-2.8424,-2.7827,-2.8243,-2.8844,-2.9387,-3.0315,0.0,0.0,0.0,0.0,0.0,0.0,0.0,0.0,0.0,0.0,0.0,0.0,-3.98,-3.942,-3.8551,-3.7976,-3.7985,-3.7955,-3.802,-3.8385,-3.8591,-3.8858,-3.9287,-3.9237,-3.9245,-3.9308,-3.7883,-3.6828,-3.5996,-3.4674,-3.3537,-3.2535,-3.2535,-3.2399,0.0,-3.2182,-3.2182,-3.2182,-3.2182,-3.2182,-3.2182,-3.2182,-3.2182,-3.2182,-3.2182,-3.179,-3.111,-3.0012,-2.9225,-2.8554,-2.7743,-2.6997,-2.6477,-2.659,-2.6428,-2.619,-2.619,-2.6048,-2.5895,-2.5895,-2.5895,-2.5895,-2.5895,-2.5895,-2.5895,-2.5895,-2.5895,-2.5812,-2.5644,-2.538,-2.5115,-2.4946,-2.47,-2.4478,-2.4302,-2.3826,-2.3238,-2.2605,-2.2765,-2.2698,-2.236,-2.1878,-2.1347,-2.0808,-2.0275,-1.9737,-1.9379,-1.9104,-1.892,-1.892,-1.8827,-1.8827,-1.8827,-1.8827,-1.8827,-1.8827,-1.8827,-1.8827,-3.2044,-3.242,-3.2504,-3.1575,-3.0671,-2.9791,0.0,0.0,-2.8682,-2.8085,-2.8302,-2.883,-2.9546,-3.0194,0.0,0.0,0.0,0.0,0.0,0.0,0.0,0.0,0.0,-4.1115,0.0,-4.0832,-4.0154,-3.9662,-3.8733,-3.8148,-3.8157,-3.7727,-3.7626,-3.7948,-3.7918,-3.8107,-3.8443,-3.8459,-3.8373,-3.8228,-3.7112,-3.6,-3.5047,-3.3928,-3.3001,-3.2182,-3.2182,-3.2182,0.0,-3.2182,-3.2182,-3.2182,-3.2182,-3.2182,-3.2182,-3.2182,-3.2182,-3.2182,-3.2182,-3.1803,-3.1123,-3.0024,-2.8991,-2.7959,-2.6869,-2.6396,-2.6074,-2.5895,-2.5895,-2.5895,-2.5895,-2.5895,-2.5895,-2.5895,-2.5895,-2.5895,-2.5895,-2.5895,-2.5895,-2.5895,-2.5895,-2.5812,-2.5559,-2.5295,-2.5115,-2.4775,-2.4615,-2.4402,-2.4012,-2.3501,-2.2785,-2.1893,-2.1711,-2.164,-2.1441,-2.0926,-2.0464,-2.0184,-1.9554,-1.9188,-1.9096,-1.892,-1.8827,-1.8827,-1.8827,-1.8827,-1.8827,-1.8827,-1.8827,-1.8827,-1.8827,-1.8827,-3.3578,-3.3255,-3.2553,-3.1846,-3.1163,-3.05,0.0,-2.9469,-2.9306,-2.8709,-2.8587,-2.8766,-2.9393,-3.0072,-3.0748,0.0,0.0,0.0,0.0,0.0,0.0,0.0,0.0,-4.0361,-4.034,-3.9504,-3.8969,-3.8805,-3.8432,0.0,-3.77,-3.7492,-3.7358,-3.7194,-3.706,-3.7219,-3.7746,-3.7571,-3.7571,-3.7714,-3.6514,-3.5423,-3.4484,-3.3252,-3.2516,-3.2182,-3.2182,-3.2182,0.0,-3.2182,-3.2182,-3.2182,-3.2182,-3.2182,-3.2182,-3.2182,-3.2182,-3.2182,-3.2182,-3.1468,-3.0532,-2.9922,-2.8688,-2.7441,-2.6798,-2.6313,-2.5895,-2.5895,-2.5895,-2.5895,-2.5895,-2.5895,-2.5895,-2.5895,-2.5895,-2.5895,-2.5895,-2.5895,-2.5895,-2.5895,-2.5895,-2.5728,-2.5285,-2.52,-2.5031,-2.454,-2.454,-2.4118,-2.2993,-2.2592,-2.1891,-2.0447,-2.0052,-1.9957,-1.992,-1.9718,-1.9487,-1.9188,-1.9188,-1.9096,-1.8827,-1.8827,-1.8827,-1.8827,-1.8827,-1.8827,-1.8827,-1.8827,-1.8827,-1.8827,-1.8827,-1.8827,-3.2541,-3.2852,-3.293,-3.204,-3.1795,-3.1559,-3.0563,-3.0538,-3.0608,-3.0045,-2.9917,-3.0101,-3.0748,-3.1058,-3.1556,-3.2658,0.0,0.0,0.0,0.0,0.0,-3.9411,-4.0204,-4.0536,0.0,0.0,-3.8739,-3.8832,-3.8084,-3.7711,-3.7738,-3.746,-3.7194,-3.7044,-3.6862,-3.6832,-3.6862,-3.6815,-3.6639,-3.6305,-3.5407,-3.4617,-3.3789,-3.2915,-3.2359,-3.2182,-3.2182,-3.2182,-3.2182,-3.2182,-3.2182,-3.2182,-3.2182,-3.2182,-3.2182,-3.2182,-3.2182,-3.2182,-3.2182,-3.1468,-3.0532,-2.9935,-2.8688,-2.736,-2.6798,-2.6313,-2.5895,-2.5895,-2.5895,-2.5895,-2.5895,-2.5895,-2.5895,-2.5895,-2.5895,-2.5895,-2.5895,-2.5895,-2.5895,-2.5895,-2.5812,-2.5644,-2.5475,-2.5211,-2.4946,-2.4786,-2.4615,-2.4231,-2.3391,-2.2591,-2.1728,-2.0641,-1.9844,-1.9422,-1.9389,-1.9397,-1.9196,-1.892,-1.892,-1.892,-1.8827,-1.8827,-1.8827,-1.8827,-1.8827,-1.8827,-1.8827,-1.8827,-1.8827,-1.8827,-1.8827,-1.8827,0.0,-3.3381,-3.3438,-3.2986,-3.2489,-3.1898,-3.1117,-3.1032,-3.0928,-3.0597,-3.0524,-3.0689,-3.1364,-3.148,-3.1935,-3.3176,0.0,0.0,0.0,0.0,0.0,-3.9572,0.0,0.0,0.0,-3.8723,-3.8165,-3.8318,-3.7722,-3.746,-3.7562,-3.7298,-3.7029,-3.6877,-3.6785,-3.6662,-3.6492,-3.6289,-3.5958,-3.5415,-3.4662,-3.3919,-3.3171,-3.2618,-3.2359,-3.2182,-3.2182,-3.2182,0.0,-3.2182,-3.2182,-3.2182,-3.2182,-3.2182,-3.2182,-3.2182,-3.2182,-3.2169,-3.1936,-3.1307,-3.0456,-2.9524,-2.8068,-2.6678,-2.6188,-2.6003,-2.5895,-2.5895,-2.5895,-2.5895,-2.5895,-2.5895,-2.5895,-2.5895,-2.5895,-2.5895,-2.5895,-2.5895,-2.5895,-2.5822,-2.5644,-2.5559,-2.5391,-2.5126,-2.4775,-2.4444,-2.4186,-2.3754,-2.2784,-2.205,-2.1248,-2.0283,-1.9646,-1.9188,-1.9096,-1.9012,-1.9012,-1.8827,-1.8827,-1.8827,-1.8827,-1.8827,-1.8827,-1.8827,-1.8827,-1.8827,-1.8827,-1.8827,-1.8827,-1.8827,-1.8827,-1.8827,0.0,-3.4622,-3.3758,-3.4145,-3.2983,-3.1716,-3.1456,-3.1006,0.0,-3.0629,-3.0629,-3.0837,-3.1482,-3.1582,-3.2022,-3.3315,0.0,0.0,0.0,-3.6814,0.0,0.0,-3.9332,0.0,-3.9098,-3.8026,-3.7358,-3.7358,-3.7358,-3.7298,-3.7134,-3.7044,-3.6877,-3.6662,-3.6662,-3.66,-3.6492,-3.5958,-3.5415,-3.4876,-3.4138,-3.3381,-3.2704,-3.2489,-3.2286,0.0,-3.2182,-3.2182,-3.2182,-3.2182,-3.2182,-3.2182,-3.2182,-3.2182,-3.2182,-3.2182,-3.2169,-3.2023,-3.1394,-3.0921,-3.0215,-2.8694,-2.6955,-2.5499,-2.5212,-2.5459,-2.5852,-2.5852,-2.5874,-2.5895,-2.5863,-2.5874,-2.5895,-2.5852,-2.5874,-2.5895,-2.5895,-2.5895,-2.5812,-2.5644,-2.5559,-2.5391,-2.4956,-2.4861,-2.4519,-2.359,-2.3416,-2.2872,-2.1535,-2.1087,-2.0645,-1.9671,-1.9288,-1.9096,-1.8827,-1.8827,-1.8827,-1.8827,-1.8827,-1.8827,-1.8827,-1.8827,-1.8827,-1.8827,-1.8827,-1.8827,-1.8827,-1.8827,-1.8827,-1.8827,-1.8827,-1.8827,-3.5385,0.0,-3.3264,-3.2508,-3.2291,-3.2107,0.0,-3.1814,-3.1921,0.0,0.0,0.0,-3.2833,0.0,0.0,0.0,0.0,0.0,-3.6322,0.0,0.0,-3.8407,-3.8084,-3.7895,-3.8108,-3.7476,-3.7044,-3.6892,-3.6785,-3.6723,-3.6662,-3.6616,-3.6616,-3.6554,-3.6554,-3.6554,-3.6492,-3.5958,-3.535,-3.4662,-3.3919,-3.3157,-3.2489,-3.23,-3.2241,-3.2182,-3.2182,-3.2182,-3.2182,-3.2182,-3.2182,-3.2182,-3.2182,-3.2182,-3.2182,-3.2182,-3.1863,-3.1381,-3.1233,-3.0317,-2.8942,-2.7046,-2.5981,-2.5433,-2.484,-2.4967,-2.5338,-2.5338,-2.5611,-2.5819,-2.5437,-2.5622,-2.5808,-2.5426,-2.5633,-2.5895,-2.5895,-2.5895,-2.5812,-2.5644,-2.5464,-2.52,-2.4946,-2.4262,-2.3754,-2.3503,-2.2862,-2.205,-2.1168,-2.0709,-2.0175,-1.9379,-1.9012,-1.8827,-1.8827,-1.8827,-1.8827,-1.8827,-1.8827,-1.8827,-1.8827,-1.8827,-1.8827,-1.8827,-1.8827,-1.8827,-1.8827,-1.8827,-1.8827,-1.8827,-1.8827,-1.8827,-3.5507,-3.4706,-3.3817,-3.3539,-3.341,-3.3295,-3.3066,0.0,0.0,0.0,0.0,0.0,0.0,0.0,0.0,0.0,-3.5276,0.0,0.0,0.0,-3.7504,-3.7854,-3.7621,-3.7562,0.0,-3.7118,-3.6754,-3.6616,-3.6554,-3.6492,-3.6492,-3.6492,-3.6492,-3.6492,-3.6492,-3.6492,-3.6492,-3.5752,-3.5073,-3.4595,-3.3575,-3.2903,-3.2417,-3.2241,-3.2182,-3.2182,-3.2182,-3.2182,-3.2182,-3.2182,-3.2182,-3.2182,-3.2182,-3.2006,-3.1775,-3.1775,-3.1213,-3.0494,-3.0377,-2.9251,-2.7561,-2.6495,-2.5458,-2.4667,-2.4577,-2.4497,-2.4607,-2.5043,-2.536,-2.5502,-2.524,-2.5371,-2.5448,-2.4967,-2.5218,-2.5513,-2.5295,-2.559,-2.5757,-2.5196,-2.5146,-2.5031,-2.4348,-2.3841,-2.3232,-2.2432,-2.1882,-2.1248,-2.0464,-2.0002,-1.9629,-1.9279,-1.892,-1.8827,-1.8827,-1.8827,-1.8827,-1.8827,-1.8827,-1.8827,-1.8827,-1.8827,-1.8827,-1.8827,-1.8827,-1.8827,-1.8827,-1.8827,-1.8827,-1.8827,-1.8827,-1.8827,-3.5784,-3.5214,-3.486,-3.5245,-3.4906,-3.4445,0.0,0.0,0.0,0.0,0.0,0.0,0.0,0.0,0.0,0.0,0.0,0.0,-3.6553,-3.7105,-3.7429,-3.7429,-3.7429,0.0,-3.7429,-3.6876,-3.6492,-3.6492,-3.6492,-3.6492,-3.6492,-3.6492,-3.6492,-3.6492,-3.6492,-3.6492,-3.6367,-3.5415,-3.4743,-3.4394,-3.3241,-3.2561,-3.2359,-3.2241,-3.2182,-3.2182,0.0,0.0,-3.2182,-3.2182,-3.2182,-3.2169,-3.2074,-3.1734,-3.1287,-3.1192,-3.0405,-2.9398,-2.9055,-2.7827,-2.6428,-2.6298,-2.5181,-2.3897,-2.4181,-2.3962,-2.3798,-2.4694,-2.5011,-2.5043,-2.4967,-2.5011,-2.4967,-2.4585,-2.4836,-2.5087,-2.477,-2.5327,-2.5619,-2.4794,-2.4945,-2.4775,-2.3677,-2.3406,-2.2784,-2.1266,-2.0817,-2.0464,-1.9671,-1.9288,-1.9096,-1.9096,-1.892,-1.8827,-1.8827,-1.8827,-1.8827,-1.8827,-1.8827,-1.8827,-1.8827,-1.8827,-1.8827,-1.8827,-1.8827,-1.8827,-1.8827,-1.8827,-1.8827,-1.8827,-1.8827,-1.8827,-3.6306,-3.6261,-3.5938,-3.4891,-3.4552,-3.4321,0.0,0.0,0.0,0.0,0.0,0.0,0.0,0.0,0.0,0.0,0.0,-3.6569,0.0,0.0,-3.6662,-3.6662,0.0,-3.6662,-3.6662,-3.6554,-3.6492,-3.6492,-3.6492,-3.6492,-3.6492,-3.6492,-3.6492,-3.6492,-3.6492,-3.6289,-3.5816,-3.5219,-3.4461,-3.3644,-3.303,-3.2574,-3.2241,-3.2182,-3.2182,-3.2182,0.0,-3.2182,-3.2182,-3.2182,-3.2182,-3.2128,-3.1626,-3.1368,-3.1232,-3.073,-2.975,-2.8592,-2.7271,-2.6539,-2.5984,-2.507,-2.4592,-2.4224,-2.346,-2.3176,-2.323,-2.3798,-2.4257,-2.4497,-2.4061,-2.4279,-2.4574,-2.4508,-2.4836,-2.5262,-2.5611,-2.563,-2.5538,-2.5199,-2.4978,-2.4605,-2.3667,-2.2765,-2.1952,-2.1078,-2.0093,-1.9463,-1.9279,-1.9012,-1.8827,-1.8827,-1.8827,-1.8827,-1.8827,-1.8827,-1.8827,-1.8827,-1.8827,-1.8827,-1.8827,-1.8827,-1.8827,-1.8827,-1.8827,-1.8827,-1.8827,-1.8827,-1.8827,-1.8827,-1.8827,-1.8827,-3.6429,-3.6492,-3.643,-3.6168,-3.583,-3.5476,0.0,0.0,0.0,0.0,0.0,0.0,0.0,0.0,-3.6014,-3.7353,0.0,-3.7153,-3.7461,-3.6923,-3.6492,0.0,0.0,-3.6492,-3.6492,-3.6492,-3.6492,-3.6492,-3.6492,-3.6492,-3.6492,-3.6492,-3.6492,-3.6492,-3.6226,-3.5816,-3.5285,-3.461,-3.4056,-3.3506,-3.2832,-3.2431,-3.2182,-3.2182,-3.2182,-3.2182,0.0,-3.2182,-3.2155,-3.1829,-3.1694,-3.1639,-3.1042,-3.0608,-3.016,-2.9023,-2.8156,-2.7416,-2.617,-2.5581,-2.5281,-2.4791,-2.4227,-2.3646,-2.3449,-2.3209,-2.3045,-2.3274,-2.37,-2.4028,-2.3787,-2.4104,-2.4355,-2.3809,-2.4443,-2.5087,-2.4632,-2.5103,-2.5316,-2.4283,-2.4163,-2.3897,-2.2599,-2.1882,-2.1168,-2.0382,-1.9646,-1.9188,-1.9012,-1.892,-1.8827,-1.8827,-1.8827,-1.8827,-1.8827,-1.8827,-1.8827,-1.8827,-1.8827,-1.8827,-1.8827,-1.8827,-1.8827,-1.8827,-1.8827,-1.8827,-1.8827,-1.8827,-1.8827,-1.8827,-1.8827,-1.8827,-3.6492,-3.6492,-3.6537,-3.7138,0.0,0.0,0.0,0.0,0.0,0.0,0.0,0.0,0.0,0.0,0.0,-3.8108,-3.7831,-3.7507,-3.7507,-3.6923,-3.6492,-3.6492,-3.6492,-3.6492,-3.6492,-3.6492,-3.6492,-3.6492,-3.6492,-3.6492,-3.6492,-3.6492,-3.6414,-3.6289,-3.5879,-3.535,-3.4677,-3.407,-3.3575,-3.3311,-3.269,-3.2359,-3.2182,-3.2182,-3.2182,-3.2169,-3.2033,-3.1965,-3.1924,-3.1327,-3.1083,-3.1029,-3.0418,-2.9821,-2.9079,-2.7533,-2.6773,-2.6441,-2.5342,-2.4832,-2.4604,-2.4481,-2.3842,-2.322,-2.3482,-2.3296,-2.3001,-2.3001,-2.3274,-2.3558,-2.3558,-2.3929,-2.4115,-2.3351,-2.4192,-2.4967,-2.391,-2.4534,-2.4851,-2.3558,-2.3322,-2.2921,-2.1526,-2.1078,-2.0546,-1.9671,-1.9288,-1.9004,-1.8827,-1.8827,-1.8827,-1.8827,-1.8827,-1.8827,-1.8827,-1.8827,-1.8827,-1.8827,-1.8827,-1.8827,-1.8827,-1.8827,-1.8827,-1.8827,-1.8827,-1.8827,-1.8827,-1.8827,-1.8827,-1.8827,-1.8827,-1.8827,-3.6429,-3.6352,-3.6289,-3.6475,0.0,0.0,0.0,0.0,0.0,0.0,0.0,0.0,0.0,-3.6938,-3.7461,-3.7569,-3.7538,-3.7507,-3.7507,0.0,-3.6492,-3.6492,-3.6492,-3.6492,-3.6492,-3.6492,-3.6492,-3.6492,-3.6492,-3.6492,-3.6492,-3.6492,-3.6289,-3.5752,-3.5688,-3.5139,-3.3851,-3.3644,-3.3241,-3.2761,-3.2475,-3.2359,-3.2182,-3.2182,-3.2182,-3.2155,-3.1599,-3.1355,-3.1314,-3.0717,-3.0473,-3.0405,-2.9781,-2.9184,-2.8511,-2.7229,-2.6564,-2.6201,-2.4741,-2.4334,-2.42,-2.3616,-2.3523,-2.3591,-2.3176,-2.3023,-2.3001,-2.3001,-2.3023,-2.3056,-2.3056,-2.3416,-2.3766,-2.37,-2.4443,-2.5153,-2.4729,-2.4472,-2.4145,-2.3846,-2.2892,-2.1863,-2.1168,-2.0619,-2.0076,-1.9371,-1.9012,-1.8827,-1.8827,-1.8827,-1.8827,-1.8827,-1.8827,-1.8827,-1.8827,-1.8827,-1.8827,-1.8827,-1.8827,-1.8827,-1.8827,-1.8827,-1.8827,-1.8827,-1.8827,-1.8827,-1.8827,-1.8827,-1.8827,-1.8827,-1.8827,-1.8827,-3.6274,-3.6274,-3.6473,-3.7474,0.0,0.0,0.0,0.0,0.0,0.0,0.0,0.0,0.0,0.0,-3.7646,-3.8061,-3.7769,-3.7507,-3.7507,-3.6923,-3.6492,-3.6492,-3.6492,-3.6492,-3.6492,-3.6492,-3.6492,-3.6492,-3.6492,-3.6492,-3.6492,-3.6492,-3.6429,-3.6211,-3.5559,-3.475,-3.3746,-3.2871,-3.2277,-3.2038,-3.2195,-3.2241,-3.2182,-3.2182,-3.2182,-3.2169,-3.1938,-3.1639,-3.1246,-3.0649,-3.0174,-2.9767,-2.917,-2.8384,-2.751,-2.6947,-2.6057,-2.5111,-2.4261,-2.3875,-2.3627,-2.3216,-2.3196,-2.3241,-2.3056,-2.3001,-2.3001,-2.3001,-2.322,-2.3449,-2.3449,-2.3591,-2.3809,-2.4126,-2.4694,-2.5093,-2.4684,-2.4367,-2.3806,-2.2572,-2.1658,-2.0792,-1.9932,-1.9485,-1.9298,-1.9247,-1.9004,-1.8827,-1.8827,-1.8827,-1.8827,-1.8827,-1.8827,-1.8827,-1.8827,-1.8827,-1.8827,-1.8827,-1.8827,-1.8827,-1.8827,-1.8827,-1.8827,-1.8827,-1.8827,-1.8827,-1.8827,-1.8827,-1.8827,-1.8827,-1.8658,-1.8566,-3.6148,-3.6085,-3.6298,0.0,0.0,0.0,0.0,0.0,0.0,0.0,0.0,0.0,0.0,0.0,0.0,0.0,-3.78,-3.7507,-3.7507,-3.6923,-3.6492,-3.6492,-3.6492,-3.6492,-3.6492,-3.6492,-3.6492,-3.6492,-3.6492,-3.6492,-3.6492,-3.6492,-3.6259,-3.5717,-3.4986,-3.4061,-3.2832,-3.1965,-3.1392,-3.1225,-3.1493,-3.1816,-3.2182,-3.2182,-3.2182,-3.2169,-3.1979,-3.1667,-3.1232,-3.0446,-2.9754,-2.9157,-2.8541,-2.7842,-2.7095,-2.6539,-2.5652,-2.455,-2.397,-2.3593,-2.3298,-2.3075,-2.3001,-2.3001,-2.3001,-2.3001,-2.3001,-2.3001,-2.3241,-2.3569,-2.3886,-2.4071,-2.4235,-2.4443,-2.4956,-2.5278,-2.4716,-2.4188,-2.3451,-2.2015,-2.0932,-1.9978,-1.9183,-1.8839,-1.8838,-1.9063,-1.892,-1.8827,-1.8827,-1.8827,-1.8827,-1.8827,-1.8827,-1.8827,-1.8827,-1.8827,-1.8827,-1.8827,-1.8827,-1.8827,-1.8827,-1.8827,-1.8827,-1.8827,-1.8827,-1.8827,-1.8827,-1.8827,-1.8827,-1.8827,-1.8566,-1.8481,-3.5973,-3.5831,-3.5752,0.0,0.0,0.0,0.0,0.0,0.0,0.0,0.0,0.0,-3.7631,0.0,0.0,-3.7492,-3.7492,-3.7492,-3.7492,-3.6907,-3.6492,-3.6492,-3.6492,-3.6492,-3.6492,-3.6492,-3.6492,-3.6492,-3.6492,-3.6492,-3.6476,-3.6476,-3.5702,-3.4061,-3.3982,-3.3014,-3.0894,-3.0894,-3.0705,-3.0405,-3.0405,-3.1015,-3.2155,-3.2169,-3.2169,-3.2141,-3.1558,-3.13,-3.1205,-2.9984,-2.9116,-2.8522,-2.8052,-2.7696,-2.7338,-2.6082,-2.5312,-2.4874,-2.3948,-2.3446,-2.3298,-2.3075,-2.3001,-2.3001,-2.3001,-2.3001,-2.3001,-2.3001,-2.3001,-2.3241,-2.4224,-2.4825,-2.5054,-2.4607,-2.5207,-2.5659,-2.4923,-2.3903,-2.2911,-2.2473,-2.0898,-1.9487,-1.9271,-1.8996,-1.8819,-1.8819,-1.8819,-1.8819,-1.8819,-1.8827,-1.8827,-1.8827,-1.8827,-1.8827,-1.8827,-1.8827,-1.8827,-1.8827,-1.8827,-1.8827,-1.8827,-1.8827,-1.8827,-1.8827,-1.8827,-1.8827,-1.8827,-1.8827,-1.8827,-1.8827,-1.8566,-1.8481,-3.5952,-3.5752,0.0,0.0,0.0,0.0,0.0,0.0,0.0,0.0,0.0,0.0,-3.8338,0.0,0.0,-3.6861,-3.6799,-3.6799,-3.6799,-3.6615,-3.6492,-3.6492,-3.6492,-3.6492,-3.6492,-3.6492,-3.6492,-3.6492,-3.6492,-3.6276,-3.5814,-3.5784,-3.5339,-3.4409,-3.3692,-3.2664,-3.1317,-3.0639,-3.0074,-2.9754,-2.9754,-3.0174,-3.0948,-3.1368,-3.1558,-3.1572,-3.1816,-3.168,-3.1205,-2.9984,-2.9116,-2.8587,-2.8457,-2.7762,-2.6867,-2.6195,-2.5229,-2.4177,-2.3593,-2.3224,-2.3075,-2.3001,-2.3001,-2.3001,-2.3001,-2.3001,-2.3001,-2.3001,-2.3252,-2.358,-2.3875,-2.4323,-2.4825,-2.536,-2.4912,-2.444,-2.4534,-2.3574,-2.2293,-2.123,-2.0044,-1.9011,-1.8306,-1.8177,-1.8081,-1.8081,-1.8081,-1.8176,-1.8422,-1.8454,-1.8549,-1.8804,-1.8827,-1.8827,-1.8827,-1.8827,-1.8827,-1.8827,-1.8827,-1.8827,-1.8827,-1.8827,-1.8827,-1.8827,-1.8827,-1.8827,-1.8827,-1.8827,-1.8827,-1.8827,-1.8373,-1.8187,-3.6466,0.0,0.0,0.0,0.0,0.0,0.0,0.0,0.0,0.0,0.0,-3.9047,-3.8836,-3.7993,0.0,-3.6953,-3.6661,-3.6492,-3.6492,-3.6492,-3.6492,-3.6492,-3.6492,-3.6492,-3.6492,-3.6492,-3.6492,-3.6492,-3.6245,-3.5922,-3.5507,-3.523,-3.4634,-3.3531,-3.2944,-3.1944,-3.0563,-2.9945,-2.9443,-2.9116,-2.9116,-2.9319,-2.9713,-3.0568,-3.107,-3.1327,-3.1924,-3.1843,-3.1232,-3.05,-2.9849,-2.9226,-2.8559,-2.7769,-2.6842,-2.5865,-2.4743,-2.3751,-2.3372,-2.315,-2.3001,-2.3001,-2.3001,-2.3001,-2.3001,-2.3001,-2.3001,-2.3001,-2.3209,-2.3482,-2.3678,-2.3809,-2.4148,-2.5109,-2.4672,-2.4024,-2.4013,-2.3031,-2.1774,-2.0521,-1.9497,-1.8553,-1.7898,-1.7771,-1.7771,-1.7771,-1.7771,-1.785,-1.8065,-1.8089,-1.8168,-1.8383,-1.8406,-1.8406,-1.8406,-1.8406,-1.8406,-1.8406,-1.8541,-1.8613,-1.8613,-1.8756,-1.8764,-1.8621,-1.8756,-1.8756,-1.8613,-1.8756,-1.8664,-1.8446,-1.7789,-1.742,0.0,0.0,0.0,0.0,0.0,0.0,0.0,0.0,-3.994,-3.9996,0.0,-3.907,-3.9169,-3.8167,-3.7296,-3.7443,-3.6938,-3.6492,-3.6492,-3.6492,-3.6492,-3.6492,-3.6492,-3.6492,-3.6492,-3.643,-3.6399,-3.6399,-3.5768,-3.5368,-3.5291,-3.4706,-3.3619,-3.2048,-3.1898,-3.1011,-2.9162,-2.9099,-2.8908,-2.8587,-2.8587,-2.8587,-2.8627,-2.9794,-3.0649,-3.1246,-3.1789,-3.168,-3.1137,-3.1137,-3.0785,-3.0051,-2.849,-2.7659,-2.7022,-2.5218,-2.4116,-2.3593,-2.3372,-2.315,-2.3001,-2.3001,-2.3001,-2.3001,-2.3001,-2.3001,-2.3001,-2.3001,-2.3001,-2.3099,-2.3547,-2.3329,-2.323,-2.4059,-2.4277,-2.4029,-2.3241,-2.2331,-2.1263,-2.0,-1.9119,-1.8292,-1.7818,-1.7723,-1.7715,-1.7683,-1.7676,-1.7691,-1.7723,-1.7723,-1.7739,-1.7763,-1.7771,-1.7771,-1.7771,-1.7771,-1.7771,-1.7771,-1.8073,-1.8247,-1.8247,-1.8589,-1.8629,-1.8303,-1.8613,-1.8621,-1.8295,-1.853,-1.8347,-1.7869,-1.6911,-1.6253,0.0,0.0,0.0,0.0,0.0,0.0,0.0,0.0,-3.9553,-3.9696,-3.9647,-3.9476,-3.9085,-3.8394,-3.773,-3.7311,-3.6718,-3.6336,-3.6492,-3.6492,-3.6492,-3.6492,-3.6492,-3.6492,-3.6492,-3.6014,-3.5707,-3.5707,-3.5076,-3.4445,-3.3875,-3.3706,-3.3035,-3.1792,-3.1279,-3.0609,-2.9637,-2.9149,-2.878,-2.8587,-2.8587,-2.8587,-2.8614,-2.9347,-3.0011,-3.0608,-3.073,-3.0432,-2.9876,-2.9876,-2.9509,-2.8901,-2.816,-2.733,-2.6471,-2.5336,-2.4311,-2.3519,-2.3224,-2.3001,-2.3001,-2.3001,-2.3001,-2.3001,-2.3001,-2.3001,-2.3001,-2.3001,-2.3001,-2.3023,-2.3132,-2.3078,-2.2906,-2.2668,-2.2471,-2.2401,-2.2443,-2.1147,-1.9843,-1.9265,-1.8693,-1.8054,-1.7515,-1.739,-1.7286,-1.7,-1.6953,-1.7056,-1.735,-1.739,-1.7485,-1.7747,-1.7771,-1.7771,-1.7771,-1.7771,-1.7771,-1.7771,-1.7842,-1.7882,-1.7882,-1.8224,-1.8375,-1.8295,-1.8375,-1.8375,-1.8295,-1.7735,-1.7364,-1.7198,-1.5763,-1.5023,0.0,0.0,0.0,0.0,0.0,0.0,0.0,0.0,-3.9424,-3.9553,-3.9553,-3.952,-3.9385,-3.8523,-3.7819,-3.7588,-3.6804,-3.6211,-3.6226,-3.6289,-3.6352,-3.6352,-3.6352,-3.6414,-3.6492,-3.5876,-3.5476,-3.5476,-3.4537,-3.3798,-3.3413,-3.3106,-3.2357,-3.1131,-3.0822,-3.0162,-2.9107,-2.8753,-2.8509,-2.8341,-2.8341,-2.8341,-2.8354,-2.9079,-2.9592,-2.9971,-3.0201,-3.0147,-2.9916,-2.9849,-2.9659,-2.9361,-2.8371,-2.7481,-2.6684,-2.5372,-2.4461,-2.3843,-2.3238,-2.3154,-2.3307,-2.3078,-2.3001,-2.3001,-2.3001,-2.3001,-2.3001,-2.3001,-2.3001,-2.3001,-2.3001,-2.3001,-2.2927,-2.2628,-2.2155,-2.1599,-2.0977,-1.9996,-1.903,-1.8223,-1.7821,-1.7568,-1.7131,-1.7016,-1.6953,-1.6762,-1.673,-1.6802,-1.6992,-1.7016,-1.708,-1.7254,-1.727,-1.727,-1.727,-1.727,-1.727,-1.727,-1.7437,-1.7533,-1.7533,-1.7715,-1.7811,-1.7811,-1.7969,-1.7785,-1.7365,-1.707,-1.6528,-1.5842,-1.4606,-1.3824,0.0,0.0,0.0,0.0,0.0,0.0,0.0,0.0,0.0,-3.9589,-3.9499,-3.9409,-3.9625,-3.8632,-3.7843,-3.7955,-3.701,-3.6222,-3.6052,-3.61,-3.6148,-3.6148,-3.6148,-3.6165,-3.626,-3.5646,-3.526,-3.5137,-3.3952,-3.3229,-3.3172,-3.2578,-3.1679,-3.051,-3.0329,-2.9594,-2.8287,-2.83,-2.8183,-2.8079,-2.8079,-2.8079,-2.8092,-2.8705,-2.9053,-2.9294,-2.9646,-2.9875,-2.9956,-2.9793,-2.9875,-2.9834,-2.8399,-2.7513,-2.6889,-2.5159,-2.443,-2.4078,-2.3293,-2.3263,-2.3536,-2.3132,-2.3001,-2.3001,-2.3001,-2.3001,-2.3001,-2.3001,-2.3001,-2.3001,-2.3001,-2.3001,-2.3001,-2.2852,-2.2231,-2.1221,-1.9756,-1.9054,-1.8407,-1.7294,-1.7057,-1.6976,-1.673,-1.673,-1.673,-1.673,-1.673,-1.673,-1.673,-1.673,-1.673,-1.673,-1.673,-1.673,-1.673,-1.673,-1.673,-1.673,-1.7016,-1.7183,-1.7183,-1.7183,-1.7183,-1.7014,-1.7337,-1.7117,-1.6335,-1.6322,-1.5689,-1.4409,-1.3386,-1.2575,0.0,0.0,0.0,0.0,0.0,0.0,0.0,0.0,0.0,0.0,-3.9813,-3.9424,-3.9424,-3.8852,-3.8147,-3.7797,-3.7141,-3.6511,-3.6049,-3.6037,-3.6037,-3.6037,-3.6037,-3.5809,-3.5231,-3.4683,-3.4145,-3.3563,-3.2911,-3.2481,-3.2384,-3.1724,-3.1013,-3.0329,-2.9566,-2.8889,-2.8287,-2.8183,-2.8145,-2.8079,-2.8079,-2.8079,-2.8092,-2.8014,-2.8106,-2.8265,-2.8345,-2.8385,-2.8385,-2.8385,-2.8385,-2.8306,-2.7114,-2.6446,-2.6074,-2.455,-2.3858,-2.3609,-2.3172,-2.3045,-2.3088,-2.3023,-2.3001,-2.3001,-2.3001,-2.3001,-2.3001,-2.3001,-2.3001,-2.3001,-2.3001,-2.3001,-2.2852,-2.2327,-2.1548,-2.076,-2.0207,-1.8807,-1.7546,-1.7139,-1.6894,-1.673,-1.6738,-1.673,-1.673,-1.673,-1.673,-1.673,-1.673,-1.673,-1.673,-1.673,-1.673,-1.673,-1.673,-1.673,-1.673,-1.673,-1.6778,-1.681,-1.681,-1.681,-1.6472,-1.5967,-1.6307,-1.6458,-1.6335,-1.4964,-1.4086,-1.3692,-1.2244,-1.137,0.0,0.0,0.0,0.0,0.0,0.0,0.0,0.0,-4.0846,-4.0472,-4.0172,-3.9858,-3.9484,-3.8856,-3.8182,-3.7593,-3.7083,-3.6486,-3.5838,-3.5782,-3.5831,-3.5831,-3.5831,-3.5637,-3.5032,-3.4425,-3.3815,-3.3145,-3.2516,-3.2135,-3.2094,-3.145,-3.0778,-3.0072,-2.9268,-2.8532,-2.7842,-2.7802,-2.7736,-2.7736,-2.7736,-2.7736,-2.7736,-2.7656,-2.7802,-2.8079,-2.8,-2.8,-2.8079,-2.8,-2.8,-2.8013,-2.6985,-2.6346,-2.5755,-2.4636,-2.4045,-2.3749,-2.3174,-2.3176,-2.3362,-2.3088,-2.3001,-2.3001,-2.3001,-2.3001,-2.3001,-2.3001,-2.3001,-2.3001,-2.3001,-2.3001,-2.2852,-2.2252,-2.1318,-2.0459,-1.9835,-1.8567,-1.7465,-1.6976,-1.6812,-1.673,-1.673,-1.673,-1.673,-1.673,-1.673,-1.673,-1.673,-1.673,-1.673,-1.673,-1.673,-1.673,-1.673,-1.673,-1.673,-1.673,-1.673,-1.673,-1.673,-1.6319,-1.5982,-1.5733,-1.5883,-1.5536,-1.4689,-1.3999,-1.3225,-1.2533,-1.1548,-1.0987,0.0,0.0,0.0,0.0,0.0,0.0,0.0,0.0,-4.1489,0.0,-4.0636,-4.0247,-3.9768,-3.911,-3.8437,-3.7764,-3.7188,-3.661,-3.5848,-3.5709,-3.5638,-3.5638,-3.5638,-3.5446,-3.4908,-3.4304,-3.3637,-3.297,-3.2361,-3.1925,-3.1697,-3.1058,-3.0315,-2.9518,-2.8839,-2.8157,-2.7523,-2.7523,-2.7523,-2.7523,-2.7523,-2.7523,-2.7523,-2.7523,-2.7669,-2.7947,-2.7789,-2.7789,-2.7947,-2.7802,-2.7789,-2.7868,-2.7066,-2.6346,-2.5685,-2.4767,-2.4164,-2.3796,-2.3196,-2.3241,-2.3482,-2.3121,-2.3001,-2.3001,-2.3001,-2.3001,-2.3001,-2.3001,-2.3001,-2.3001,-2.3001,-2.2852,-2.2628,-2.2166,-2.1165,-2.007,-1.9063,-1.8184,-1.7375,-1.6812,-1.673,-1.673,-1.673,-1.673,-1.673,-1.673,-1.673,-1.673,-1.673,-1.673,-1.673,-1.673,-1.673,-1.673,-1.673,-1.673,-1.673,-1.673,-1.673,-1.6648,-1.6484,-1.5982,-1.5567,-1.5235,-1.5151,-1.4566,-1.3398,-1.3137,-1.254,-1.1607,-1.116,-1.0809,0.0,0.0,0.0,0.0,0.0,0.0,0.0,0.0,0.0,-4.2267,-4.1265,-4.0382,-4.0352,-3.9813,-3.914,-3.8452,-3.7778,-3.715,-3.6522,-3.5893,-3.5504,-3.5504,-3.5504,-3.5235,-3.461,-3.4044,-3.3442,-3.2779,-3.2246,-3.1682,-3.0896,-3.0208,-2.9456,-2.861,-2.7908,-2.7523,-2.7523,-2.7523,-2.7523,-2.7523,-2.7523,-2.7523,-2.7523,-2.7523,-2.7523,-2.7523,-2.7523,-2.7523,-2.7523,-2.7523,-2.7523,-2.7469,-2.6918,-2.6358,-2.5779,-2.4779,-2.4093,-2.3553,-2.3161,-2.3023,-2.3034,-2.3012,-2.3001,-2.3001,-2.3001,-2.3001,-2.3001,-2.3001,-2.3001,-2.3001,-2.3001,-2.2553,-2.2101,-2.1842,-2.0827,-1.9511,-1.787,-1.7302,-1.7057,-1.673,-1.673,-1.673,-1.673,-1.673,-1.673,-1.673,-1.673,-1.673,-1.673,-1.673,-1.673,-1.673,-1.673,-1.673,-1.673,-1.673,-1.673,-1.673,-1.673,-1.6402,-1.5816,-1.5733,-1.5068,-1.3822,-1.3646,-1.3476,-1.3398,-1.2363,-1.1671,-1.1327,-1.0809,-1.0549,0.0,0.0,0.0,0.0,0.0,0.0,0.0,-4.2357,-4.2237,-4.1818,-4.1354,-4.0771,-3.9933,-3.9574,-3.9185,-3.8497,-3.7838,-3.7195,-3.6567,-3.5923,-3.5294,-3.4758,-3.5213,-3.4862,-3.3304,-3.3434,-3.296,-3.1427,-3.1146,-3.0689,-3.0011,-2.9331,-2.8839,-2.8481,-2.7842,-2.7523,-2.7523,-2.7523,-2.7523,-2.7523,-2.7523,-2.7523,-2.7523,-2.7523,-2.7523,-2.7523,-2.7523,-2.7523,-2.7523,-2.7523,-2.7523,-2.7469,-2.6918,-2.6289,-2.5639,-2.4696,-2.3998,-2.3372,-2.3075,-2.3001,-2.3001,-2.3001,-2.3001,-2.3001,-2.3001,-2.3001,-2.3001,-2.3001,-2.3001,-2.2927,-2.2553,-2.2166,-2.1614,-2.0285,-1.9353,-1.8416,-1.7456,-1.7139,-1.7057,-1.673,-1.673,-1.673,-1.673,-1.673,-1.673,-1.673,-1.673,-1.673,-1.673,-1.673,-1.673,-1.673,-1.673,-1.673,-1.673,-1.673,-1.673,-1.673,-1.6319,-1.5982,-1.5733,-1.4901,-1.4153,-1.3737,-1.2887,-1.246,-1.2277,-1.1757,-1.1241,-1.0901,-1.0549,-1.0381,-3.6432,0.0,0.0,0.0,0.0,0.0,0.0,0.0,-4.1639,-4.1429,-4.0963,-4.0456,-3.983,-3.9091,-3.8414,-3.8056,-3.7475,-3.6754,-3.583,-3.5131,-3.4558,-3.3973,-3.4234,-3.393,-3.2522,-3.2431,-3.1944,-3.0582,-3.0262,0.0,-2.9205,-2.8712,-2.8417,-2.8157,-2.7723,-2.7523,-2.7523,-2.7523,-2.7523,-2.7523,-2.7523,-2.7523,-2.7523,-2.7327,-2.7353,-2.7523,-2.7327,-2.7353,-2.7523,-2.7523,-2.7523,-2.7456,-2.7121,-2.6414,-2.5639,-2.4921,-2.4154,-2.3372,-2.3075,-2.3001,-2.3001,-2.3001,-2.3001,-2.3001,-2.3001,-2.3001,-2.3001,-2.3001,-2.3001,-2.2852,-2.2166,-2.1461,-2.0518,-1.9045,-1.8184,-1.7627,-1.7221,-1.7139,-1.7057,-1.673,-1.673,-1.673,-1.673,-1.673,-1.673,-1.673,-1.673,-1.673,-1.673,-1.673,-1.673,-1.673,-1.673,-1.673,-1.673,-1.673,-1.673,-1.673,-1.6319,-1.5899,-1.5733,-1.4817,-1.4153,-1.3652,-1.2802,-1.2026,-1.1499,-1.1241,-1.0895,-1.0554,-1.0294,-1.0207,0.0,0.0,0.0,0.0,0.0,0.0,0.0,0.0,-4.0531,-4.119,-4.0077,-3.9317,-4.0129,-3.8413,-3.6991,-3.72,-3.6649,-3.5812,-3.4369,-3.3607,-3.3213,-3.3143,-3.2679,-3.2368,-3.2354,-3.1213,-3.0481,-3.0467,-2.9841,-2.9205,-2.8481,-2.8481,-2.8157,-2.7523,-2.751,-2.751,-2.751,-2.7484,-2.7484,-2.751,-2.751,-2.751,-2.7484,-2.6935,-2.6974,-2.7471,-2.6922,-2.7,-2.7523,-2.7523,-2.7523,-2.7523,-2.7523,-2.6824,-2.5861,-2.5453,-2.4599,-2.3519,-2.315,-2.299,-2.2979,-2.2979,-2.2968,-2.2957,-2.2979,-2.2979,-2.2979,-2.3001,-2.3001,-2.2767,-2.1993,-2.0362,-1.8807,-1.8112,-1.7546,-1.7139,-1.7057,-1.7057,-1.6968,-1.673,-1.673,-1.673,-1.673,-1.673,-1.673,-1.673,-1.673,-1.673,-1.673,-1.673,-1.673,-1.673,-1.673,-1.673,-1.673,-1.673,-1.673,-1.673,-1.6656,-1.6402,-1.5733,-1.565,-1.4901,-1.3398,-1.313,-1.2272,-1.0982,-1.0814,-1.0554,-1.0294,-1.0125,-1.0038,-3.5729,0.0,0.0,0.0,0.0,0.0,0.0,0.0,0.0,-3.8971,-3.8308,-3.7613,-3.7859,-3.7317,-3.6452,-3.5099,-3.518,-3.5164,-3.4297,-3.3607,-3.3003,-3.2434,-3.2389,-3.201,-3.0966,-3.0647,-3.0121,0.0,-2.8871,-2.8468,-2.7776,-2.7776,-2.7723,-2.7523,-2.7131,-2.6909,-2.6909,-2.6504,-2.6504,-2.6909,-2.6909,-2.6909,-2.6909,-2.6739,-2.6765,-2.6896,-2.6739,-2.7,-2.7523,-2.7523,-2.7523,-2.7523,-2.7523,-2.6824,-2.5861,-2.5453,-2.4599,-2.3519,-2.315,-2.2783,-2.251,-2.251,-2.2269,-2.204,-2.24,-2.251,-2.2575,-2.2903,-2.2927,-2.2381,-2.0827,-1.9353,-1.8103,-1.7465,-1.7221,-1.7057,-1.6812,-1.6812,-1.6812,-1.673,-1.673,-1.673,-1.673,-1.673,-1.673,-1.673,-1.673,-1.673,-1.673,-1.673,-1.673,-1.673,-1.673,-1.673,-1.673,-1.673,-1.673,-1.673,-1.6229,-1.5899,-1.5733,-1.4734,-1.3984,-1.3398,-1.2534,-1.1671,-1.0982,-1.0814,-1.0467,-1.0125,-1.0038,-1.0038,-3.516,0.0,0.0,0.0,0.0,0.0,-3.7327,-3.7168,0.0,0.0,-3.6894,-3.6582,-3.688,-3.6267,-3.541,-3.4316,-3.3964,-3.3593,-3.296,-3.2536,-3.2101,-3.1603,-3.1429,-3.0905,-2.9877,-2.9578,-2.9091,-2.8131,-2.8105,-2.7802,-2.7183,-2.717,-2.7066,-2.6831,-2.6491,-2.6321,-2.6321,-2.5994,-2.5994,-2.6321,-2.6321,-2.6321,-2.6321,-2.6073,-2.6086,-2.6321,-2.6321,-2.6504,-2.6831,-2.7079,-2.7314,-2.7523,-2.7523,-2.6973,-2.6151,-2.5652,-2.4791,-2.3841,-2.3054,-2.2604,-2.228,-2.2084,-2.1822,-2.1647,-2.1931,-2.216,-2.2379,-2.2641,-2.2243,-2.1461,-2.0216,-1.8807,-1.7635,-1.7221,-1.6968,-1.6894,-1.673,-1.673,-1.673,-1.673,-1.673,-1.673,-1.673,-1.673,-1.673,-1.673,-1.673,-1.673,-1.673,-1.673,-1.673,-1.673,-1.673,-1.673,-1.673,-1.673,-1.673,-1.673,-1.6319,-1.5982,-1.5567,-1.4817,-1.3977,-1.3137,-1.2357,-1.1499,-1.0722,-1.0554,-1.0386,-1.0038,-1.0038,-1.0038,-3.4547,-3.4816,0.0,0.0,-3.5385,0.0,-3.5988,-3.5969,-3.5856,0.0,-3.5476,-3.545,-3.6281,-3.5063,-3.3923,-3.4059,-3.2934,-3.186,-3.1159,-3.095,-3.0836,-3.0698,-3.0093,-2.9551,-2.9073,-2.844,-2.7902,-2.7587,-2.7496,-2.7209,-2.6635,-2.6609,-2.6348,-2.5775,-2.5696,-2.5657,-2.5657,-2.5605,-2.5667,-2.5733,-2.5733,-2.5733,-2.5707,-2.5197,-2.5249,-2.5733,-2.5733,-2.5759,-2.5863,-2.6373,-2.6883,-2.734,-2.734,-2.7046,-2.6476,-2.5763,-2.4968,-2.4126,-2.2988,-2.243,-2.2084,-2.1647,-2.1472,-2.1439,-2.1494,-2.1811,-2.2182,-2.2208,-2.1319,-2.0324,-1.9972,-1.8647,-1.731,-1.7139,-1.6894,-1.673,-1.673,-1.673,-1.673,-1.673,-1.673,-1.673,-1.673,-1.673,-1.673,-1.673,-1.673,-1.673,-1.673,-1.673,-1.673,-1.673,-1.673,-1.673,-1.673,-1.673,-1.673,-1.673,-1.6648,-1.6229,-1.5394,-1.5228,-1.4371,-1.2656,-1.2202,-1.1417,-1.0221,-1.0269,-1.0207,-1.0038,-1.0038,-1.0038,-3.3873,-3.3784,-3.4023,-3.4547,-3.4681,0.0,-3.4665,-3.4209,-3.3761,0.0,-3.2911,-3.2529,-3.3159,-3.2852,-3.2195,-3.1319,-3.1705,-3.1842,-3.1215,-3.0804,-3.052,-3.0444,-2.9956,-2.9497,-2.9382,-2.8505,-2.7837,-2.7734,-2.7323,-2.6835,-2.6335,-2.6309,-2.6039,-2.5447,-2.5107,-2.4922,-2.4922,-2.4614,-2.4674,-2.5145,-2.5145,-2.5145,-2.5132,-2.5014,-2.5088,-2.5145,-2.5145,-2.5393,-2.5837,-2.5942,-2.6059,-2.6151,-2.6151,-2.6091,-2.5883,-2.5129,-2.4443,-2.3746,-2.2876,-2.1989,-2.1134,-2.1103,-2.074,-2.05,-2.0882,-2.1068,-2.1228,-2.1704,-2.0785,-1.964,-1.9496,-1.8407,-1.731,-1.6894,-1.673,-1.673,-1.673,-1.673,-1.673,-1.673,-1.673,-1.673,-1.673,-1.673,-1.673,-1.673,-1.673,-1.673,-1.673,-1.673,-1.673,-1.673,-1.673,-1.673,-1.673,-1.673,-1.673,-1.673,-1.6147,-1.5733,-1.5394,-1.4139,-1.3018,-1.2117,-1.0848,-0.994,-0.9528,-0.9871,-1.0038,-1.0038,-1.0038,-1.0038,-3.3275,-3.3245,-3.3423,-3.3099,-3.3273,0.0,0.0,-3.2486,-3.2448,-3.1603,-3.1494,-3.1526,-3.1448,-3.1214,-3.0968,-3.0687,-3.0813,-3.0925,-3.0912,-3.0815,-3.0676,-3.0254,-2.9973,-2.9693,-2.94,-2.8609,-2.7882,-2.746,-2.7165,-2.6768,-2.6191,-2.5896,-2.5473,-2.4897,-2.4394,-2.4159,-2.4159,-2.4079,-2.4151,-2.4424,-2.4543,-2.4543,-2.4543,-2.4543,-2.4543,-2.4557,-2.4844,-2.4975,-2.5001,-2.5275,-2.5223,-2.5027,-2.5602,-2.5792,-2.5704,-2.4764,-2.4165,-2.352,-2.2399,-2.1683,-2.1188,-2.1005,-2.0697,-2.0544,-2.0784,-2.086,-2.0852,-2.1434,-2.0575,-1.9459,-1.9312,-1.8327,-1.731,-1.6812,-1.673,-1.673,-1.673,-1.673,-1.6683,-1.6508,-1.6619,-1.673,-1.673,-1.673,-1.673,-1.673,-1.673,-1.673,-1.673,-1.673,-1.673,-1.673,-1.673,-1.673,-1.673,-1.673,-1.6566,-1.6237,-1.5816,-1.5144,-1.4223,-1.3071,-1.1951,-1.0871,-1.0106,-0.9567,-0.9322,-0.9535,-0.9696,-0.98,-0.9904,-1.0038,-3.3021,-3.2991,-3.3017,-3.1882,-3.1932,-3.1918,0.0,0.0,0.0,0.0,0.0,0.0,0.0,0.0,0.0,0.0,0.0,0.0,0.0,-3.0519,0.0,-3.0126,-3.0011,-2.9821,-2.934,-2.872,-2.7957,-2.6965,-2.6875,-2.662,-2.6034,-2.5473,-2.4925,-2.4364,-2.3803,-2.3569,-2.3569,-2.376,-2.3832,-2.3891,-2.4112,-2.4157,-2.4112,-2.4229,-2.4229,-2.4151,-2.4609,-2.4543,-2.4151,-2.4622,-2.453,-2.4204,-2.5132,-2.5563,-2.553,-2.4518,-2.3937,-2.3406,-2.2019,-2.1442,-2.1311,-2.085,-2.0718,-2.0751,-2.0937,-2.0733,-2.0557,-2.0969,-2.0232,-1.925,-1.8944,-1.803,-1.7105,-1.6613,-1.6532,-1.6532,-1.6532,-1.6532,-1.6444,-1.6158,-1.6333,-1.6555,-1.6619,-1.669,-1.6714,-1.6643,-1.669,-1.6706,-1.6643,-1.669,-1.673,-1.673,-1.673,-1.673,-1.673,-1.673,-1.637,-1.5644,-1.5299,-1.4441,-1.2806,-1.1952,-1.0903,-0.959,-0.9546,-0.9365,-0.9204,-0.9247,-0.9398,-0.9569,-0.9819,-0.9913,-3.3589,-3.3021,-3.2541,-3.2179,-3.1714,-3.109,-3.0079,0.0,-2.9847,-2.8995,0.0,0.0,0.0,0.0,0.0,0.0,0.0,0.0,-2.8448,-2.8812,-2.9366,-2.9819,-2.9869,-2.9844,-2.9781,-2.8737,-2.7717,-2.6622,-2.6533,-2.6269,-2.569,-2.5174,-2.4633,-2.4079,-2.3634,-2.3403,-2.3403,-2.3569,-2.37,-2.3891,-2.4421,-2.4421,-2.4112,-2.4677,-2.462,-2.4112,-2.4178,-2.4178,-2.4125,-2.4178,-2.4178,-2.4125,-2.4256,-2.4622,-2.5005,-2.4353,-2.3766,-2.3119,-2.2339,-2.1379,-2.05,-2.0249,-2.0085,-2.0182,-2.0967,-2.0717,-2.008,-2.0073,-1.9482,-1.861,-1.7658,-1.6936,-1.628,-1.5878,-1.5793,-1.5793,-1.5793,-1.5793,-1.5785,-1.5745,-1.5769,-1.5896,-1.6214,-1.6524,-1.6627,-1.6309,-1.6532,-1.6619,-1.6309,-1.654,-1.673,-1.673,-1.673,-1.673,-1.673,-1.673,-1.6269,-1.5153,-1.4469,-1.3446,-1.1924,-1.0476,-0.9478,-0.9058,-0.8869,-0.8774,-0.8774,-0.8963,-0.9261,-0.9564,-0.9667,-0.9776,0.0,-3.1633,-3.1049,-3.1017,-3.0158,-2.9237,-2.8879,-2.8752,-2.8495,0.0,0.0,0.0,0.0,0.0,0.0,0.0,-2.767,0.0,0.0,0.0,-2.8662,0.0,0.0,0.0,-2.8373,-2.8197,-2.7645,-2.6609,-2.6533,-2.642,-2.6113,-2.5573,-2.5021,-2.4494,-2.4003,-2.3611,-2.321,-2.339,-2.3688,-2.4144,-2.4523,-2.4637,-2.4505,-2.4835,-2.4677,-2.4112,-2.4112,-2.4112,-2.4112,-2.4112,-2.4112,-2.4112,-2.4112,-2.4256,-2.4406,-2.3914,-2.3281,-2.265,-2.1945,-2.1308,-2.0743,-2.0488,-2.0355,-2.031,-2.0169,-1.986,-1.9536,-1.9344,-1.8846,-1.8221,-1.7384,-1.6818,-1.6333,-1.5806,-1.5674,-1.5674,-1.5674,-1.5674,-1.5618,-1.5427,-1.5547,-1.5666,-1.5618,-1.5896,-1.6071,-1.592,-1.6023,-1.6071,-1.592,-1.6031,-1.6118,-1.6118,-1.6118,-1.6118,-1.6118,-1.6118,-1.5582,-1.441,-1.328,-1.2111,-1.0976,-1.0168,-0.9511,-0.9005,-0.8827,-0.8703,-0.8703,-0.8793,-0.9053,-0.9464,-0.9587,-0.9757,-3.2242,0.0,0.0,0.0,0.0,0.0,-2.763,-2.7579,-2.736,-2.6746,0.0,0.0,0.0,0.0,0.0,0.0,0.0,0.0,0.0,0.0,0.0,0.0,0.0,0.0,0.0,-2.7645,-2.7494,-2.6596,-2.6533,-2.6533,-2.6533,-2.5912,-2.536,-2.4845,-2.4293,-2.3715,-2.3078,-2.3258,-2.3675,-2.435,-2.4567,-2.4694,-2.4835,-2.4948,-2.4677,-2.4112,-2.4112,-2.4112,-2.4112,-2.4112,-2.4112,-2.4112,-2.4112,-2.4112,-2.4054,-2.3582,-2.3005,-2.2372,-2.1639,-2.1118,-2.0731,-2.0614,-2.0436,-2.0172,-1.9817,-1.9567,-1.9334,-1.8815,-1.8409,-1.7871,-1.6881,-1.633,-1.5952,-1.5527,-1.5396,-1.5396,-1.5396,-1.5396,-1.5324,-1.5086,-1.5229,-1.5316,-1.5078,-1.5396,-1.5642,-1.5554,-1.5618,-1.5642,-1.5554,-1.5618,-1.5674,-1.5674,-1.5674,-1.5674,-1.5674,-1.5528,-1.4857,-1.3379,-1.189,-1.083,-1.0103,-0.9865,-0.9488,-0.9027,-0.8784,-0.8703,-0.8703,-0.8703,-0.8888,-0.9247,-0.946,-0.97,0.0,0.0,0.0,-3.0738,0.0,0.0,0.0,0.0,-2.6546,-2.6533,-2.6546,0.0,0.0,0.0,0.0,0.0,0.0,0.0,0.0,0.0,0.0,0.0,0.0,0.0,0.0,-2.7306,-2.708,0.0,-2.6533,-2.6533,-2.6533,-2.5912,-2.536,-2.4845,-2.4293,-2.3715,-2.3078,-2.3138,-2.3603,-2.4509,-2.4509,-2.4694,-2.5005,-2.5005,-2.4677,-2.4112,-2.4112,-2.4112,-2.4112,-2.4112,-2.4112,-2.4112,-2.4112,-2.4112,-2.4054,-2.3582,-2.3065,-2.247,-2.169,-2.0764,-2.003,-2.0439,-2.0009,-1.953,-2.0401,-2.0219,-1.952,-1.8463,-1.7977,-1.7403,-1.5677,-1.5111,-1.4912,-1.4681,-1.4673,-1.4673,-1.4673,-1.4673,-1.4601,-1.4585,-1.4593,-1.4601,-1.4585,-1.5229,-1.557,-1.5245,-1.5467,-1.5562,-1.5245,-1.5483,-1.5674,-1.5674,-1.5674,-1.5674,-1.5674,-1.5142,-1.3987,-1.2081,-1.0673,-0.9862,-0.963,-0.9256,-0.9032,-0.9022,-0.8784,-0.8703,-0.8703,-0.8703,-0.8817,-0.9039,-0.9242,-0.9554,0.0,0.0,-2.9361,-2.9231,0.0,0.0,0.0,0.0,0.0,0.0,0.0,0.0,0.0,0.0,0.0,0.0,0.0,0.0,0.0,0.0,0.0,0.0,0.0,0.0,0.0,0.0,0.0,0.0,-2.6533,0.0,-2.6533,-2.6345,-2.5912,-2.536,-2.5159,-2.4619,-2.3715,-2.3703,-2.3927,-2.435,-2.4851,-2.5034,-2.4892,-2.5314,-2.4991,-2.4112,-2.4112,-2.4112,-2.4112,-2.4112,-2.4112,-2.4112,-2.4112,-2.4112,-2.4054,-2.3582,-2.3005,-2.231,-2.1146,-2.0388,-1.99,-1.9929,-1.9677,-1.9337,-1.9573,-1.9484,-1.9168,-1.8409,-1.7989,-1.7394,-1.6069,-1.553,-1.5146,-1.4697,-1.4569,-1.4569,-1.4569,-1.4569,-1.4569,-1.4569,-1.4569,-1.4569,-1.4569,-1.4832,-1.4951,-1.4839,-1.4919,-1.4951,-1.4839,-1.4919,-1.499,-1.499,-1.499,-1.4843,-1.4467,-1.3493,-1.2627,-1.1853,-1.0865,-1.0143,-0.9846,-0.9397,-0.9175,-0.9022,-0.8784,-0.8703,-0.8703,-0.8703,-0.8812,-0.9025,-0.9096,-0.9271,-3.0578,-2.9449,0.0,-2.8777,-2.7641,0.0,-2.704,0.0,-2.6533,0.0,0.0,0.0,0.0,0.0,0.0,0.0,0.0,0.0,0.0,-2.6013,0.0,0.0,0.0,0.0,0.0,0.0,-2.6841,-2.6559,-2.6533,0.0,0.0,-2.6533,-2.6113,-2.5347,-2.5322,-2.4795,-2.3703,-2.369,-2.3914,-2.435,-2.4624,-2.4808,-2.4892,-2.509,-2.4821,-2.4112,-2.4112,-2.4112,-2.4112,-2.4112,-2.4112,-2.4112,-2.4112,-2.3995,-2.3819,-2.3318,-2.2506,-2.1577,-2.0582,-2.0009,-1.9681,-1.9539,-1.9341,-1.9208,-1.9142,-1.9075,-1.9008,-1.8472,-1.7908,-1.7281,-1.6246,-1.5665,-1.5146,-1.4697,-1.4569,-1.4569,-1.4569,-1.4569,-1.4569,-1.4569,-1.4569,-1.4569,-1.4569,-1.4569,-1.4569,-1.4569,-1.4569,-1.4569,-1.4569,-1.4569,-1.4569,-1.4569,-1.4569,-1.4274,-1.3542,-1.2519,-1.1706,-1.1335,-1.0663,-1.0143,-0.9771,-0.9397,-0.9099,-0.9022,-0.8784,-0.8703,-0.8703,-0.8703,-0.8774,-0.8911,-0.8911,-0.8978]},{"header":{"parameterUnit":"m.s-1","parameterCategory":1,"la1":30.6,"la2":29.2853,"lo1":-89.7004,"lo2":-87.6739,"dy":0.0162,"dx":0.0183,"nx":112,"ny":82,"refTime":"2026-03-20T00:00:00:Z","depth":0,"parameterNumber":3,"parameterNumberName":"V-component_of_WINDS"},"data":[0.0,0.0,0.0,0.0,0.0,0.0,0.0,0.0,0.0,0.0,0.0,0.0,0.0,0.0,0.0,0.0,0.0,0.0,0.0,0.0,0.0,0.0,0.0,0.0,0.0,0.0,0.0,0.0,0.0,0.0,0.0,0.0,0.0,0.0,0.0,0.0,0.0,0.0,0.0,0.0,0.0,0.0,0.0,0.0,0.0,0.0,0.0,0.0,0.0,0.0,0.0,0.0,0.0,0.0,0.0,0.0,0.0,0.0,0.0,0.0,0.0,0.0,0.0,0.0,0.0,0.0,0.0,0.0,0.0,0.0,0.0,0.0,0.0,0.0,0.0,0.0,0.0,0.0,0.0,0.0,0.0,0.0,0.0,0.0,0.0,0.0,0.0,0.0,0.0,0.0,-2.8935,-2.7985,-2.637,-2.565,-2.6531,-2.7565,-2.8075,-2.7724,0.0,0.0,0.0,0.0,0.0,0.0,0.0,0.0,0.0,0.0,0.0,0.0,0.0,0.0,0.0,0.0,0.0,0.0,0.0,0.0,0.0,0.0,0.0,0.0,0.0,0.0,0.0,0.0,0.0,0.0,0.0,0.0,0.0,0.0,0.0,0.0,0.0,0.0,0.0,0.0,0.0,0.0,0.0,0.0,0.0,0.0,0.0,0.0,0.0,0.0,0.0,0.0,0.0,0.0,0.0,0.0,0.0,0.0,0.0,0.0,0.0,0.0,0.0,0.0,0.0,0.0,0.0,0.0,0.0,0.0,0.0,0.0,0.0,0.0,0.0,0.0,0.0,0.0,0.0,0.0,0.0,0.0,0.0,0.0,0.0,0.0,0.0,0.0,0.0,0.0,0.0,0.0,0.0,0.0,0.0,0.0,0.0,0.0,0.0,0.0,0.0,0.0,0.0,0.0,-2.8466,-2.7956,-2.657,-2.5839,-2.6345,-2.7415,-2.7747,-2.7268,0.0,0.0,0.0,0.0,0.0,0.0,0.0,0.0,0.0,0.0,0.0,0.0,0.0,0.0,0.0,0.0,0.0,0.0,0.0,0.0,0.0,0.0,0.0,0.0,0.0,0.0,0.0,0.0,0.0,0.0,0.0,0.0,0.0,0.0,0.0,0.0,0.0,0.0,0.0,0.0,0.0,0.0,0.0,0.0,0.0,0.0,0.0,0.0,0.0,0.0,0.0,0.0,0.0,0.0,0.0,0.0,0.0,0.0,0.0,0.0,0.0,0.0,0.0,0.0,0.0,0.0,0.0,0.0,0.0,0.0,0.0,0.0,0.0,0.0,0.0,0.0,0.0,0.0,0.0,0.0,0.0,0.0,0.0,0.0,0.0,0.0,0.0,0.0,0.0,0.0,0.0,0.0,0.0,0.0,0.0,0.0,0.0,0.0,0.0,0.0,0.0,0.0,0.0,-2.8832,-2.8083,-2.7619,-2.6413,-2.582,-2.6016,-2.7435,-2.7971,-2.7149,-2.9265,0.0,0.0,0.0,0.0,0.0,0.0,0.0,0.0,0.0,0.0,0.0,0.0,0.0,0.0,0.0,0.0,0.0,0.0,0.0,0.0,0.0,0.0,0.0,0.0,0.0,0.0,0.0,0.0,0.0,0.0,0.0,0.0,0.0,0.0,0.0,0.0,0.0,0.0,0.0,0.0,0.0,0.0,0.0,0.0,0.0,0.0,0.0,0.0,0.0,0.0,0.0,0.0,0.0,0.0,0.0,0.0,0.0,0.0,0.0,0.0,0.0,0.0,0.0,0.0,0.0,0.0,0.0,0.0,0.0,0.0,0.0,0.0,0.0,0.0,0.0,0.0,0.0,0.0,0.0,0.0,0.0,0.0,0.0,0.0,0.0,0.0,0.0,0.0,0.0,0.0,0.0,0.0,0.0,0.0,0.0,0.0,0.0,0.0,0.0,0.0,0.0,0.0,-2.8712,-2.7899,-2.7243,-2.6373,-2.5889,-2.5889,-2.7461,-2.8071,-2.7312,-2.9153,0.0,0.0,0.0,0.0,0.0,0.0,0.0,0.0,0.0,0.0,0.0,0.0,0.0,0.0,0.0,0.0,0.0,0.0,0.0,0.0,0.0,0.0,0.0,0.0,0.0,0.0,0.0,0.0,0.0,0.0,0.0,0.0,0.0,0.0,0.0,0.0,0.0,0.0,0.0,0.0,0.0,0.0,0.0,0.0,0.0,0.0,0.0,0.0,0.0,0.0,0.0,0.0,0.0,0.0,0.0,0.0,0.0,0.0,0.0,0.0,0.0,0.0,0.0,0.0,0.0,0.0,0.0,0.0,0.0,0.0,0.0,0.0,0.0,0.0,0.0,0.0,0.0,0.0,0.0,0.0,0.0,0.0,0.0,0.0,0.0,0.0,0.0,0.0,0.0,0.0,0.0,0.0,0.0,0.0,0.0,0.0,0.0,0.0,0.0,0.0,0.0,0.0,-2.8903,-2.8451,-2.7274,-2.6653,-2.6338,-2.6338,-2.7198,-2.7745,-2.7709,-2.8646,0.0,0.0,0.0,0.0,0.0,0.0,0.0,0.0,0.0,0.0,0.0,0.0,0.0,0.0,0.0,0.0,0.0,0.0,0.0,0.0,0.0,0.0,0.0,0.0,0.0,0.0,0.0,0.0,0.0,0.0,0.0,0.0,0.0,0.0,0.0,0.0,0.0,0.0,0.0,0.0,0.0,0.0,0.0,0.0,0.0,0.0,0.0,0.0,0.0,0.0,0.0,0.0,0.0,0.0,0.0,0.0,0.0,0.0,0.0,0.0,0.0,0.0,0.0,0.0,0.0,0.0,0.0,0.0,0.0,0.0,0.0,0.0,0.0,0.0,0.0,0.0,0.0,0.0,0.0,0.0,0.0,0.0,0.0,0.0,0.0,0.0,0.0,0.0,0.0,0.0,0.0,0.0,0.0,0.0,0.0,0.0,0.0,0.0,0.0,0.0,0.0,0.0,-2.9415,-2.8969,-2.7631,-2.7078,-2.7013,-2.7405,-2.8009,-2.8495,-2.8925,0.0,0.0,0.0,0.0,0.0,0.0,0.0,0.0,0.0,0.0,0.0,0.0,0.0,0.0,0.0,0.0,0.0,0.0,0.0,0.0,0.0,0.0,0.0,0.0,0.0,0.0,0.0,0.0,0.0,0.0,0.0,0.0,0.0,0.0,0.0,0.0,0.0,0.0,0.0,0.0,0.0,0.0,0.0,0.0,0.0,0.0,0.0,0.0,0.0,0.0,0.0,0.0,0.0,0.0,0.0,0.0,0.0,0.0,0.0,0.0,0.0,0.0,0.0,0.0,0.0,0.0,0.0,0.0,0.0,0.0,0.0,0.0,0.0,0.0,0.0,0.0,0.0,0.0,0.0,0.0,0.0,0.0,0.0,0.0,0.0,0.0,0.0,0.0,0.0,0.0,0.0,0.0,0.0,0.0,0.0,0.0,0.0,0.0,0.0,0.0,0.0,0.0,-2.9702,-2.9914,-2.9713,-2.8398,-2.8296,-2.8476,-2.8964,-2.9281,-2.9635,-2.9954,0.0,0.0,0.0,0.0,0.0,0.0,0.0,0.0,0.0,0.0,0.0,0.0,0.0,0.0,0.0,0.0,0.0,0.0,0.0,0.0,0.0,0.0,0.0,0.0,0.0,0.0,0.0,0.0,0.0,0.0,0.0,0.0,0.0,0.0,0.0,0.0,0.0,0.0,0.0,0.0,0.0,0.0,0.0,0.0,0.0,0.0,0.0,0.0,0.0,0.0,0.0,0.0,0.0,0.0,0.0,0.0,0.0,0.0,0.0,0.0,0.0,0.0,0.0,0.0,0.0,0.0,0.0,0.0,0.0,0.0,0.0,0.0,0.0,0.0,0.0,0.0,0.0,0.0,0.0,0.0,0.0,0.0,0.0,0.0,0.0,0.0,0.0,0.0,0.0,0.0,0.0,0.0,0.0,0.0,0.0,0.0,0.0,0.0,0.0,0.0,0.0,0.0,-2.9906,-3.0581,-3.0886,-2.9914,-3.0223,-3.0699,-3.1295,-3.1217,-3.1089,0.0,0.0,0.0,0.0,0.0,0.0,0.0,0.0,0.0,0.0,0.0,0.0,0.0,0.0,0.0,0.0,0.0,0.0,0.0,0.0,0.0,0.0,0.0,0.0,0.0,0.0,0.0,0.0,0.0,0.0,0.0,0.0,0.0,0.0,0.0,0.0,0.0,0.0,0.0,0.0,0.0,0.0,0.0,0.0,0.0,0.0,0.0,0.0,0.0,0.0,0.0,0.0,0.0,0.0,0.0,0.0,0.0,0.0,0.0,0.0,0.0,0.0,0.0,0.0,0.0,0.0,0.0,0.0,0.0,0.0,0.0,0.0,0.0,0.0,0.0,0.0,0.0,0.0,0.0,0.0,0.0,0.0,0.0,0.0,0.0,0.0,0.0,0.0,0.0,0.0,0.0,0.0,0.0,0.0,0.0,0.0,0.0,0.0,0.0,0.0,0.0,0.0,0.0,-3.0984,-3.1994,-3.2653,-3.2043,-3.1937,-3.2132,-3.2665,-3.1973,-3.1974,-3.2821,0.0,0.0,0.0,0.0,0.0,0.0,0.0,0.0,0.0,0.0,0.0,0.0,0.0,0.0,0.0,0.0,0.0,0.0,0.0,0.0,0.0,0.0,0.0,0.0,0.0,0.0,0.0,0.0,0.0,0.0,0.0,0.0,0.0,0.0,0.0,0.0,0.0,0.0,0.0,0.0,0.0,0.0,0.0,0.0,0.0,0.0,0.0,0.0,0.0,0.0,0.0,0.0,0.0,0.0,0.0,0.0,0.0,0.0,0.0,0.0,0.0,0.0,0.0,0.0,0.0,0.0,0.0,0.0,0.0,0.0,0.0,0.0,0.0,0.0,0.0,0.0,0.0,0.0,0.0,0.0,0.0,0.0,0.0,0.0,0.0,0.0,0.0,0.0,0.0,0.0,0.0,0.0,0.0,0.0,0.0,0.0,0.0,0.0,0.0,0.0,0.0,0.0,-3.1851,-3.2928,-3.3727,-3.3837,-3.3699,-3.3811,-3.4366,-3.3679,-3.3431,-3.3966,0.0,0.0,0.0,0.0,0.0,0.0,0.0,0.0,0.0,0.0,0.0,0.0,0.0,0.0,0.0,0.0,0.0,0.0,0.0,0.0,0.0,0.0,0.0,0.0,0.0,0.0,0.0,0.0,0.0,0.0,0.0,0.0,0.0,0.0,0.0,0.0,0.0,0.0,0.0,0.0,0.0,0.0,0.0,0.0,0.0,0.0,0.0,0.0,0.0,0.0,0.0,0.0,0.0,0.0,0.0,0.0,0.0,0.0,0.0,0.0,0.0,0.0,0.0,0.0,0.0,0.0,0.0,0.0,0.0,0.0,0.0,0.0,0.0,0.0,0.0,0.0,0.0,0.0,0.0,0.0,0.0,0.0,0.0,0.0,0.0,0.0,0.0,0.0,0.0,0.0,0.0,0.0,0.0,0.0,0.0,0.0,0.0,0.0,0.0,0.0,0.0,0.0,-3.2686,-3.3572,-3.4565,-3.5504,-3.5537,-3.5737,-3.6238,-3.6019,-3.5401,-3.4585,0.0,0.0,0.0,0.0,0.0,0.0,0.0,0.0,0.0,0.0,0.0,0.0,0.0,0.0,0.0,0.0,0.0,0.0,0.0,0.0,0.0,0.0,0.0,0.0,0.0,0.0,0.0,0.0,0.0,0.0,0.0,0.0,0.0,0.0,0.0,0.0,0.0,0.0,0.0,0.0,0.0,0.0,0.0,0.0,0.0,0.0,0.0,0.0,0.0,0.0,0.0,0.0,0.0,0.0,0.0,0.0,0.0,0.0,0.0,0.0,-2.9617,-2.9003,0.0,0.0,0.0,0.0,0.0,0.0,0.0,0.0,0.0,0.0,0.0,0.0,0.0,0.0,0.0,0.0,0.0,0.0,0.0,0.0,0.0,0.0,0.0,0.0,0.0,0.0,0.0,0.0,0.0,0.0,0.0,0.0,0.0,0.0,0.0,0.0,0.0,0.0,0.0,0.0,-3.4251,-3.5637,-3.7103,-3.8189,-3.8309,-3.8362,-3.8482,-3.7591,-3.7037,-3.7001,-3.5175,0.0,0.0,0.0,0.0,0.0,0.0,0.0,0.0,0.0,0.0,0.0,0.0,0.0,0.0,0.0,0.0,0.0,0.0,0.0,0.0,0.0,0.0,0.0,0.0,0.0,0.0,0.0,0.0,0.0,0.0,0.0,0.0,0.0,0.0,0.0,0.0,0.0,0.0,0.0,0.0,0.0,0.0,0.0,0.0,0.0,0.0,0.0,0.0,0.0,0.0,0.0,0.0,0.0,0.0,0.0,0.0,0.0,0.0,0.0,-3.0846,-3.029,0.0,0.0,0.0,0.0,0.0,0.0,0.0,0.0,0.0,0.0,0.0,0.0,0.0,0.0,0.0,0.0,0.0,0.0,0.0,0.0,0.0,0.0,0.0,0.0,0.0,0.0,0.0,0.0,0.0,0.0,0.0,0.0,0.0,0.0,0.0,0.0,0.0,0.0,0.0,0.0,-3.4754,-3.6307,-3.7786,-3.8681,-3.9034,-3.921,-3.921,-3.8454,-3.7937,-3.7774,-3.5872,0.0,0.0,0.0,0.0,0.0,0.0,0.0,0.0,0.0,0.0,0.0,0.0,0.0,0.0,0.0,0.0,0.0,0.0,0.0,0.0,0.0,0.0,0.0,0.0,0.0,0.0,0.0,0.0,0.0,0.0,0.0,0.0,0.0,0.0,0.0,0.0,0.0,0.0,0.0,0.0,0.0,0.0,0.0,0.0,0.0,0.0,0.0,0.0,0.0,0.0,0.0,0.0,0.0,-3.1252,-3.1529,-3.1949,-3.1949,-3.243,-3.3221,-3.2604,-3.2351,-3.2294,-3.2945,0.0,0.0,0.0,0.0,0.0,0.0,0.0,0.0,0.0,0.0,0.0,0.0,0.0,0.0,0.0,0.0,0.0,0.0,0.0,0.0,0.0,0.0,0.0,0.0,-3.8188,-3.8884,-3.7172,0.0,0.0,0.0,0.0,0.0,0.0,0.0,0.0,0.0,0.0,0.0,-3.5268,-3.6744,-3.7936,-3.8526,-3.9033,-3.9335,-3.9335,-3.9006,-3.8573,-3.8093,-3.6618,-3.5357,0.0,0.0,0.0,0.0,0.0,0.0,0.0,0.0,0.0,0.0,0.0,0.0,0.0,0.0,0.0,0.0,0.0,0.0,0.0,0.0,0.0,0.0,0.0,0.0,0.0,0.0,0.0,0.0,0.0,0.0,0.0,0.0,-3.185,-3.2129,0.0,0.0,0.0,0.0,0.0,0.0,0.0,0.0,0.0,0.0,0.0,0.0,0.0,-2.9886,-3.0441,-3.1383,-3.201,-3.2286,-3.2755,-3.3008,-3.308,-3.308,-3.3771,-3.4915,-3.4994,0.0,-3.3759,-3.4886,0.0,0.0,0.0,0.0,0.0,0.0,0.0,0.0,0.0,0.0,0.0,0.0,0.0,0.0,0.0,0.0,0.0,0.0,0.0,0.0,0.0,0.0,-3.9813,-3.9639,-3.9784,-3.977,0.0,-3.7491,-3.6112,-3.5488,-3.5735,0.0,0.0,0.0,0.0,0.0,0.0,0.0,-3.6939,-3.8117,-3.9225,-3.983,-3.996,-4.0003,-4.0003,-3.9477,-3.9122,-3.9049,-3.7765,-3.6504,-3.5285,-3.4898,0.0,0.0,0.0,0.0,0.0,0.0,0.0,0.0,0.0,0.0,0.0,0.0,0.0,0.0,0.0,0.0,0.0,0.0,0.0,0.0,0.0,0.0,0.0,0.0,0.0,0.0,0.0,0.0,0.0,-3.1016,-3.1364,-3.146,-3.1582,-3.1172,0.0,0.0,0.0,0.0,0.0,0.0,0.0,0.0,0.0,-2.932,-2.9945,-3.0648,-3.1413,-3.1991,-3.2697,-3.3368,-3.3433,-3.3779,-3.415,-3.4612,-3.5382,-3.6354,-3.7309,-3.7492,-3.7117,-3.6658,-3.6657,-3.6855,0.0,0.0,0.0,0.0,-3.6277,-3.6366,-3.7148,-3.7544,-3.7705,-3.7325,0.0,0.0,0.0,0.0,0.0,0.0,0.0,0.0,0.0,0.0,-4.0191,-4.0568,-4.0655,-4.0481,-3.9842,-3.8768,-3.7636,0.0,-3.6373,-3.6025,-3.5111,0.0,0.0,0.0,0.0,-3.6417,-3.6707,-3.8188,-3.9305,-3.9567,-3.99,-4.0104,-4.0104,-3.9552,-3.9204,-3.9204,-3.8014,-3.7056,-3.6475,-3.5657,-3.5011,0.0,0.0,0.0,0.0,0.0,0.0,0.0,0.0,0.0,0.0,0.0,0.0,0.0,0.0,0.0,0.0,0.0,0.0,0.0,0.0,0.0,0.0,0.0,0.0,0.0,0.0,0.0,0.0,-3.0829,-3.082,-3.0533,-3.0764,-3.0423,0.0,0.0,0.0,0.0,0.0,0.0,-2.8873,-2.9022,-2.9408,-3.0194,-3.0742,-3.1541,-3.2402,-3.2653,-3.3207,-3.4138,-3.397,-3.427,-3.5114,-3.5679,-3.6508,-3.7546,-3.8714,-3.9613,-4.0013,-3.8542,-3.8454,-3.9031,-3.759,-3.7418,-3.7847,-3.74,-3.7279,-3.7358,-3.846,-3.9013,-3.911,-3.831,-3.8261,-3.8159,-3.6418,0.0,0.0,0.0,0.0,-3.797,-3.8739,-3.9639,-4.0525,-4.1192,-4.1221,-4.0916,-4.0234,-3.9625,-3.887,0.0,-3.7128,-3.6533,-3.5735,0.0,0.0,0.0,0.0,-3.6373,-3.6533,-3.7955,-3.8942,-3.8942,-3.9349,-3.961,-3.961,-3.9204,-3.8942,-3.8942,-3.8206,-3.7682,-3.7507,-3.6618,-3.6213,-3.6415,0.0,0.0,0.0,0.0,0.0,0.0,0.0,0.0,0.0,0.0,0.0,0.0,0.0,0.0,0.0,0.0,0.0,0.0,0.0,0.0,0.0,0.0,0.0,0.0,0.0,0.0,0.0,0.0,0.0,-2.9566,-2.975,0.0,0.0,0.0,0.0,-2.8632,-2.8666,-2.8896,-2.9435,-2.9894,-3.0479,-3.1286,-3.206,-3.2688,-3.3217,-3.3551,-3.3895,-3.4397,-3.4397,-3.4884,-3.5966,-3.5966,-3.6871,-3.8419,-3.8742,-3.9809,-4.1118,-4.0437,-3.984,-3.9368,-3.8947,-3.8791,-3.8819,-3.8791,-3.8383,-3.7864,-3.792,-3.8266,-3.876,-3.921,-3.9312,-3.9015,-3.8275,-3.768,0.0,0.0,-3.8594,-3.9392,-4.0626,-4.1004,-4.1221,-4.1889,-4.1555,-4.0916,-4.0234,-3.9625,-3.8986,0.0,-3.813,-3.7709,-3.6475,0.0,-3.6011,-3.5415,-3.588,-3.6533,-3.7172,-3.7839,-3.826,-3.826,-3.8275,-3.8304,-3.8304,-3.8275,-3.826,-3.826,-3.8723,-3.869,-3.8109,-3.8354,-3.8136,-3.7266,-3.7174,0.0,0.0,0.0,0.0,0.0,0.0,0.0,0.0,0.0,0.0,0.0,0.0,0.0,0.0,0.0,0.0,0.0,0.0,0.0,0.0,0.0,0.0,0.0,0.0,0.0,0.0,0.0,0.0,-2.9561,-2.963,0.0,-2.8641,-2.8533,-2.8752,-2.9171,-2.9504,-2.9906,-3.0445,-3.095,-3.1538,-3.2141,-3.2391,-3.2845,-3.3597,-3.3487,-3.3679,-3.4261,-3.4714,-3.5187,-3.5763,-3.7044,-3.7965,-3.8509,-3.9455,-4.0148,-4.0705,-4.0628,-4.0628,-4.0726,-4.028,-4.0041,-3.9999,-3.9606,-3.9311,-3.9058,-3.8827,-3.8913,-3.9204,-3.9269,-3.9223,-3.9073,-3.8405,-3.8057,-3.7926,-3.8144,-3.8681,-3.9305,-3.9755,-4.0162,-4.0525,-4.0757,-4.0321,-3.9813,-3.9567,-3.9015,-3.8568,-3.8767,-3.812,-3.7346,-3.646,-3.6301,-3.6098,-3.5459,-3.6272,-3.7041,-3.7273,-3.7839,-3.8202,-3.8202,-3.8202,-3.8352,-3.8723,-3.8811,-3.8929,-3.9262,-3.9478,-3.9602,-3.943,-3.9031,-3.8779,-3.8635,-3.7833,-3.6841,0.0,0.0,0.0,0.0,0.0,0.0,0.0,0.0,0.0,0.0,0.0,0.0,0.0,0.0,0.0,0.0,0.0,0.0,0.0,0.0,0.0,0.0,0.0,0.0,0.0,0.0,-3.0164,-2.9256,-2.9441,-2.9519,-2.8999,-2.8964,-2.9263,-2.9963,-3.0308,-3.0778,-3.1467,-3.1823,-3.2236,-3.2741,-3.2753,-3.3024,-3.358,-3.3381,-3.3679,-3.4359,-3.4908,-3.5655,-3.6508,-3.7874,-3.8689,-3.9176,-4.0023,-4.0485,-4.0471,-4.0616,-4.094,-4.1264,-4.0856,-4.0575,-4.0336,-3.9929,-3.9507,-3.9086,-3.8936,-3.9036,-3.9218,-3.9347,-3.93,-3.9117,-3.8667,-3.8536,-3.8536,-3.8536,-3.9153,-3.9817,-3.9817,-4.0264,-4.0713,-4.0713,-4.0227,-3.9784,-3.9784,-3.9254,-3.8914,-3.9292,-3.8603,-3.7769,-3.7308,-3.719,-3.7043,-3.6391,-3.7222,-3.787,-3.7872,-3.8385,-3.8767,-3.8767,-3.8767,-3.8825,-3.8994,-3.9107,-3.9143,-3.9306,-3.9512,-3.9717,-3.9868,-3.923,-3.9061,-3.9399,-3.8262,-3.7298,-3.6467,0.0,0.0,0.0,0.0,0.0,0.0,0.0,0.0,0.0,0.0,0.0,0.0,0.0,0.0,0.0,0.0,0.0,0.0,0.0,0.0,0.0,0.0,0.0,-2.8899,-2.9068,-2.9092,-2.843,-2.8994,-2.9515,-2.9515,-2.9515,-2.994,-3.0939,-3.1031,-3.1456,-3.2431,-3.25,-3.2741,-3.3269,-3.3281,-3.3281,-3.3281,-3.3281,-3.3866,-3.4823,-3.509,-3.6307,-3.82,-3.8445,-3.9264,-4.0399,-4.0399,-4.0558,-4.0702,-4.0702,-4.0688,-4.0674,-4.0674,-4.0308,-3.9788,-3.9746,-3.8931,-3.7878,-3.8159,-3.8396,-3.8732,-3.9477,-3.9526,-3.9204,-3.9175,-3.9175,-3.9175,-3.9175,-4.0059,-4.0976,-4.0976,-4.134,-4.1789,-4.1789,-4.1304,-4.0906,-4.0906,-4.0375,-3.9889,-3.9945,-3.9463,-3.9083,-3.9001,-3.9032,-3.881,-3.8191,-3.8626,0.0,-3.9028,-3.952,-3.9859,-3.9859,-3.9874,-3.9631,-3.9009,-3.904,-3.8886,-3.8177,-3.8852,-3.9235,-3.9251,-3.91,-3.9151,-3.9379,-3.8477,-3.8038,-3.8179,0.0,0.0,0.0,0.0,0.0,0.0,0.0,0.0,0.0,0.0,0.0,0.0,0.0,0.0,0.0,0.0,0.0,0.0,0.0,0.0,0.0,-2.9577,-2.921,-2.8809,-2.9833,-3.0141,-2.875,-2.9401,-3.0021,-3.0021,-3.0021,-3.0296,-3.0962,-3.1341,-3.1812,-3.2443,-3.2856,-3.3132,-3.3281,-3.3281,-3.3568,-3.4115,-3.4115,-3.4507,-3.5379,-3.6307,-3.723,-3.7913,-3.9073,-3.9908,-4.0399,-4.0544,-4.0616,-4.0702,-4.0702,-4.0435,-4.0041,-4.0041,-3.9929,-3.9676,-3.8749,-3.792,-3.7324,-3.7494,-3.8012,-3.8589,-3.8471,-3.8804,-3.9117,-3.8623,-3.8779,-3.9151,-3.9151,-3.9622,-4.0251,-4.0395,-4.0553,-4.068,-4.0791,-4.0637,-4.0515,-4.0515,-4.0416,-4.0209,-4.0137,-3.9977,-3.973,-3.9207,-3.9259,-3.9023,-3.8318,-3.8257,0.0,-3.8395,-3.8941,-3.9367,-3.952,-3.9933,-4.0155,-3.9893,-3.9897,-3.9747,-3.9487,-3.9752,-3.9998,-4.0151,-3.9699,-3.9341,-3.91,-3.8393,-3.7791,0.0,0.0,0.0,0.0,0.0,0.0,0.0,0.0,0.0,0.0,0.0,0.0,0.0,0.0,0.0,0.0,0.0,0.0,0.0,0.0,0.0,0.0,-2.9757,-2.9494,-2.9315,-2.9861,-2.9868,-2.8838,-2.9412,-2.9998,-3.0193,-3.0216,-3.0434,-3.0973,-3.1467,-3.1961,-3.2454,-3.2994,-3.3469,-3.3744,-3.3469,-3.3656,-3.4385,-3.4115,-3.4495,-3.575,-3.6577,-3.7494,-3.8612,-3.9543,-4.0184,-4.0544,-4.0616,-4.0561,-4.0308,-4.0308,-3.9957,0.0,0.0,0.0,0.0,0.0,-3.7288,-3.7056,-3.7226,-3.7699,-3.8173,-3.7983,-3.8341,-3.871,-3.8318,-3.8649,-3.9104,-3.9147,-3.9763,-4.0378,-4.06,-4.082,-4.1024,-4.106,-4.1127,-4.1049,-4.0767,-4.0704,-4.0582,-4.0214,-4.0151,0.0,-3.9752,-3.9638,-3.9433,-3.8688,-3.8772,-3.8787,-3.8592,-3.9113,-3.9492,-3.9638,-3.9982,-4.0065,-3.9708,-3.9786,0.0,0.0,0.0,-3.9606,-3.9796,-3.921,0.0,0.0,0.0,0.0,0.0,0.0,0.0,0.0,-3.7052,-3.6854,0.0,0.0,0.0,0.0,0.0,0.0,0.0,0.0,0.0,0.0,0.0,0.0,0.0,0.0,0.0,0.0,-3.0374,-3.0453,-3.0037,-2.9469,-2.9118,-2.8974,-2.9392,-2.9834,-3.026,-3.0216,-3.0434,-3.0973,-3.1433,-3.1915,-3.2454,0.0,0.0,0.0,0.0,-3.3744,-3.4385,-3.3843,-3.4421,-3.6023,-3.6377,-3.7573,-3.9604,-3.9908,-4.0229,-4.0603,-4.0603,-4.0252,-3.9676,-3.9676,-3.9311,-3.8805,-3.9367,-3.8847,-3.7723,-3.7189,-3.6978,-3.7056,-3.7226,0.0,0.0,-3.7853,-3.8066,-3.8202,-3.8202,-3.8649,-3.9235,-3.932,-4.0224,-4.1142,-4.1343,-4.1754,-4.2109,-4.2174,-4.2174,-4.1981,-4.1308,-4.1164,-4.094,-4.0078,-4.0116,-4.016,-4.0079,-4.0007,-3.9779,-3.9267,-3.9531,-3.9606,-3.9141,-3.9547,-3.9918,-3.9918,0.0,0.0,-3.9113,-3.9184,-3.8921,-3.8286,-3.8504,-3.8711,-3.8805,-3.8311,-3.8035,-3.817,-3.8193,-3.8245,-3.8344,-3.8974,-3.8941,-3.8295,-3.6307,-3.6406,0.0,0.0,0.0,0.0,0.0,0.0,0.0,0.0,0.0,0.0,0.0,0.0,0.0,0.0,0.0,-2.968,-3.0032,-3.0173,-3.0037,-3.0272,-3.0493,-3.0299,-3.073,-3.1021,-3.1116,-3.0578,-3.0434,-3.0973,-3.1111,-3.1547,-3.2443,-3.2581,-3.2932,-3.3446,-3.393,-3.4299,-3.4385,-3.4896,-3.575,-3.6871,0.0,0.0,-3.9604,-4.0097,-4.0192,-3.9957,-3.9957,-3.9606,-3.9044,-3.9044,-3.8664,-3.8102,-3.8215,-3.7807,-3.7147,-3.7021,-3.6978,-3.7056,-3.7226,-3.7457,-3.7625,-3.7853,-3.8066,-3.8202,-3.8202,-3.8914,0.0,-3.999,-4.0836,-4.1817,-4.2109,-4.2238,-4.2381,-4.2508,-4.2508,-4.2314,-4.1666,-4.152,-4.1148,-3.9871,-3.9628,-3.9451,-3.8852,-3.924,-3.9495,-3.9269,-3.8803,-3.8525,-3.8392,-3.8932,-3.9403,-3.957,-4.0054,-4.0102,-3.9483,-3.9418,-3.9169,-3.8553,-3.8766,-3.8914,-3.8969,-3.8471,-3.8424,-3.9056,-3.851,-3.8493,-3.9073,-3.9206,-3.9206,-3.9056,-3.8626,-3.8344,0.0,0.0,0.0,0.0,0.0,0.0,0.0,0.0,0.0,0.0,0.0,-2.6548,-2.7447,0.0,-2.8718,-2.9678,-3.0211,-3.0511,-3.0469,-3.0997,-3.1156,-3.0713,-3.1174,-3.1448,-3.1282,-3.0937,-3.0694,-3.0595,-3.0859,-3.1329,-3.2076,-3.2351,-3.2903,-3.3819,-3.3831,-3.4017,-3.4385,-3.4409,-3.4993,-3.6118,-3.6764,-3.7782,-3.9237,-3.9605,-3.9744,-3.976,-3.9451,-3.8974,-3.8369,-3.8046,-3.7737,-3.7442,-3.7442,-3.7259,-3.6978,-3.6978,-3.6978,-3.7056,-3.7226,-3.7457,-3.7625,-3.7853,-3.8066,-3.8202,-3.8202,-3.8782,-3.9565,-4.0076,-4.0904,-4.172,-4.2254,-4.2445,-4.2508,-4.2571,-4.2359,-4.1905,-4.1193,-4.0772,-4.0205,-3.9153,-3.8942,-3.8829,-3.8456,-3.8699,-3.8926,-3.8795,-3.8504,-3.8294,-3.8294,-3.8585,-3.8852,-3.8942,-3.925,-3.9298,-3.8974,-3.8999,-3.895,-3.8727,-3.8876,-3.904,-3.9148,-3.8523,-3.8377,-3.8742,-3.8394,-3.8394,-3.8742,-3.9106,-3.9272,-3.9272,-3.9272,-3.9073,0.0,0.0,0.0,0.0,0.0,0.0,0.0,0.0,-2.6841,-2.6392,-2.638,-2.6685,-2.7449,-2.8385,-2.9141,-2.9605,-3.0448,-3.0986,-3.0986,-3.1483,-3.1642,-3.1123,-3.1518,-3.1663,-3.15,-3.1395,-3.1026,-3.0487,-3.0709,-3.1065,-3.1737,-3.2068,-3.2711,-3.3882,-3.3452,-3.3499,-3.4048,-3.3604,-3.4032,-3.5174,-3.5709,-3.6957,-3.8617,-3.8737,-3.9018,-3.9381,-3.8777,-3.8201,-3.7681,-3.7189,-3.6978,-3.6978,-3.6978,-3.6978,-3.6978,-3.6978,-3.6978,-3.7056,-3.7226,-3.7457,-3.7625,-3.7853,-3.8066,-3.8202,-3.8352,-3.8797,-3.9436,-4.013,-4.0873,-4.1623,-4.2238,-4.2508,-4.2601,-4.2456,-4.1986,-4.1338,-4.048,-3.9865,-3.9266,-3.8537,-3.8391,-3.8391,-3.8391,-3.8391,-3.8391,-3.8391,-3.8391,-3.8391,-3.8391,-3.8391,-3.8391,-3.8391,-3.8391,-3.8391,-3.8464,-3.856,-3.8711,-3.8805,-3.8969,-3.9094,-3.9218,-3.8593,-3.8278,-3.8411,-3.8278,-3.8278,-3.8427,-3.899,-3.9272,-3.9272,-3.9272,-3.9272,-3.0559,-2.931,-2.8593,-2.9,-2.8629,-2.8076,0.0,0.0,-2.713,-2.6431,-2.6676,-2.711,-2.7446,-2.8454,-2.928,-2.9332,-3.0315,-3.0986,-3.0986,-3.1483,-3.1967,-3.2449,-3.2439,-3.2319,-3.2166,-3.1637,-3.1306,-3.1205,-3.0636,-3.0788,-3.1932,-3.1495,-3.141,-3.2095,-3.2677,-3.2876,-3.2753,-3.3347,-3.415,-3.5174,-3.4961,-3.591,-3.7723,-3.7727,-3.7772,-3.7833,-3.7377,-3.7147,-3.7091,-3.7021,-3.6978,-3.6978,-3.6978,-3.6978,-3.6978,-3.6978,-3.6978,-3.7056,-3.7226,-3.7457,-3.7625,-3.7853,-3.8066,-3.8277,-3.8797,-3.9364,-3.996,-4.0721,-4.1425,-4.2045,-4.2318,-4.2508,-4.2472,-4.184,-4.163,-4.1209,-3.9881,-3.9525,-3.9266,-3.8537,-3.8391,-3.8391,-3.8391,-3.8391,-3.8391,-3.8391,-3.8391,-3.8391,-3.8391,-3.8391,-3.8391,-3.8391,-3.8391,-3.8464,-3.8576,-3.8821,-3.8914,-3.8805,-3.9094,-3.9218,-3.9023,-3.8471,-3.851,-3.9139,-3.8526,-3.8526,-3.9156,-3.9239,-3.9272,-3.9272,-3.9272,-3.9272,-2.9422,-2.8678,0.0,0.0,-2.8022,-2.735,-2.7094,-2.66,-2.6231,-2.6277,-2.6494,-2.6821,-2.7366,-2.849,-2.9274,0.0,-3.0241,-3.0986,-3.0986,-3.1196,-3.1561,-3.2123,-3.2447,-3.2726,-3.2943,-3.2686,-3.2176,-3.1395,-3.1026,-3.0991,-3.1413,-3.1182,-3.1249,-3.1754,-3.2028,-3.2121,-3.2064,-3.2436,-3.2912,-3.3601,-3.4274,-3.5249,-3.6498,-3.7132,-3.7303,-3.7265,-3.7091,-3.6978,-3.6978,-3.6978,-3.6978,-3.6978,-3.6978,-3.6978,-3.6978,-3.6978,-3.6978,-3.6978,-3.707,-3.7303,-3.7625,-3.7701,-3.7915,-3.8277,-3.8958,-3.9277,-3.9733,-4.0721,-4.1343,-4.1884,-4.2302,-4.2508,-4.2456,-4.1743,-4.1241,-4.0675,-3.9687,-3.9153,-3.8764,-3.8456,-3.8391,-3.8391,-3.8391,-3.8391,-3.8391,-3.8391,-3.8391,-3.8391,-3.8391,-3.8391,-3.8391,-3.8391,-3.8464,-3.856,-3.8576,-3.8821,-3.8969,-3.8914,-3.9148,-3.9272,-3.9202,-3.899,-3.8974,-3.9272,-3.899,-3.8974,-3.9272,-3.9272,-3.9272,-3.9272,-3.9272,-3.9272,-2.8358,0.0,0.0,-2.7815,-2.721,-2.6573,-2.6322,-2.5854,-2.5608,-2.6081,-2.6303,-2.6601,-2.734,-2.8347,-2.9091,-2.9248,-3.0111,-3.0803,-3.096,-3.0986,-3.1196,-3.1771,-3.2045,-3.2494,-3.3043,-3.3126,-3.2686,-3.1637,-3.1205,-3.1023,-3.1055,-3.0894,-3.0962,-3.1329,-3.1318,-3.1398,-3.1559,-3.1536,-3.1889,-3.2489,-3.3582,-3.459,-3.5473,-3.6632,-3.7111,-3.6978,-3.6978,-3.6978,-3.6978,-3.6978,-3.6978,-3.6978,-3.6978,-3.6978,-3.6978,-3.6978,-3.6978,-3.6978,-3.707,-3.7303,-3.7625,-3.7701,-3.7915,-3.8352,-3.9075,-3.9421,-3.9819,-4.094,-4.1491,-4.1884,-4.2302,-4.2508,-4.2407,-4.1484,-4.0869,-4.0254,-3.9379,-3.8764,-3.8391,-3.8391,-3.8391,-3.8391,-3.8391,-3.8391,-3.8391,-3.8391,-3.8391,-3.8391,-3.8391,-3.8391,-3.8391,-3.8448,-3.856,-3.8672,-3.8727,-3.8931,-3.9094,-3.9094,-3.9218,-3.9272,-3.9272,-3.9272,-3.9272,-3.9272,-3.9272,-3.9272,-3.9272,-3.9272,-3.9379,-3.9484,-3.9484,-3.9537,0.0,0.0,-2.6461,-2.6843,-2.6453,-2.5863,-2.5203,-2.5426,-2.5759,-2.5818,-2.6255,-2.6831,-2.7419,-2.8007,-2.8595,-2.9183,-2.9784,-3.0346,-3.0908,-3.0986,-3.1196,-3.1771,-3.1292,-3.1411,0.0,-3.2436,-3.2314,-3.2302,-3.1003,-3.0499,-3.1241,-3.0601,-3.025,-3.0262,-3.0262,-3.0514,-3.1031,-3.1031,-3.1553,-3.2477,-3.2671,-3.3481,-3.4891,-3.6171,-3.68,-3.6978,-3.6978,-3.6978,-3.6978,-3.6978,-3.6978,-3.6978,-3.6978,-3.6978,-3.6978,-3.6978,-3.6978,-3.7056,-3.7226,-3.7457,-3.7625,-3.7853,-3.7991,-3.8412,-3.955,-3.9975,-4.0424,-4.1554,-4.2141,-4.2381,-4.2381,-4.2508,-4.2278,-4.0853,-4.0513,-4.0108,-3.8732,-3.8424,-3.8391,-3.8391,-3.8391,-3.8391,-3.8391,-3.8391,-3.8391,-3.8391,-3.8391,-3.8391,-3.8391,-3.8391,-3.8464,-3.856,-3.8711,-3.886,-3.8969,-3.9148,-3.9272,-3.9272,-3.9272,-3.9272,-3.9272,-3.9272,-3.9272,-3.9272,-3.9272,-3.9272,-3.9272,-3.9272,-3.9484,-3.9901,-3.9901,-4.007,0.0,0.0,-2.6725,-2.6842,-2.6094,-2.53,-2.5258,-2.497,-2.4839,-2.5314,-2.5769,-2.6282,-2.6857,-2.7732,-2.8451,-2.8647,-2.9497,-3.0202,-3.0385,-3.0751,-3.0901,-3.0612,-3.0802,0.0,0.0,0.0,0.0,-3.1613,-3.1205,-3.0847,-3.0578,-3.0306,-3.0216,-3.0216,-3.0216,-3.0308,-3.048,-3.048,-3.0846,-3.1489,-3.2771,-3.3982,-3.5256,-3.606,-3.6693,-3.6978,-3.6978,-3.6978,-3.6978,-3.6978,-3.6978,-3.6978,-3.6978,-3.6978,-3.6978,-3.6978,-3.6978,-3.6978,-3.707,-3.7303,-3.7625,-3.7701,-3.7915,-3.8412,-3.9535,-4.01,-4.0585,-4.1704,-4.2254,-4.2508,-4.2508,-4.2571,-4.2278,-4.0836,-4.0496,-4.0108,-3.8699,-3.8391,-3.8391,-3.8391,-3.8391,-3.8391,-3.8391,-3.8391,-3.8391,-3.8391,-3.8391,-3.8448,-3.8504,-3.8504,-3.856,-3.8711,-3.886,-3.8969,-3.8969,-3.9202,-3.9272,-3.9272,-3.9272,-3.9272,-3.9272,-3.9272,-3.9272,-3.9272,-3.9272,-3.9272,-3.9272,-3.9272,-3.9484,-3.9901,-3.9952,-4.017,-2.5441,-2.556,-2.5983,-2.6158,-2.5412,-2.4721,-2.4921,-2.4709,-2.4636,-2.5064,-2.5713,-2.6293,-2.6673,-2.7445,-2.8137,-2.8347,-2.9196,-2.9902,-3.0038,-3.062,-3.0748,-3.0114,-3.0186,-3.0082,0.0,0.0,0.0,-3.0949,-3.092,-3.0668,-3.0216,-3.0216,-3.0216,-3.0216,-3.0216,-3.0216,-3.0216,-3.0216,-3.0578,-3.1407,-3.3018,-3.4384,-3.5399,-3.6152,-3.6707,-3.6978,-3.6978,-3.6978,-3.6978,-3.6978,-3.6978,-3.6978,-3.6978,-3.6978,-3.6978,-3.6978,-3.6978,-3.6978,-3.707,-3.7303,-3.7625,-3.7701,-3.7915,-3.8352,-3.9349,-3.9975,-4.0516,-4.1541,-4.2174,-4.2571,-4.2571,-4.2634,-4.2326,-4.116,-4.0675,-4.0189,-3.9039,-3.8586,-3.8391,-3.8391,-3.8391,-3.8391,-3.8391,-3.8391,-3.8408,-3.8448,-3.8448,-3.8504,-3.8576,-3.8616,-3.8672,-3.886,-3.8969,-3.9023,-3.9094,-3.9218,-3.9272,-3.9272,-3.9272,-3.9272,-3.9272,-3.9272,-3.9272,-3.9272,-3.9272,-3.9379,-3.9537,-3.9537,-3.9781,-4.032,-4.0368,-4.0642,-2.4198,-2.4243,-2.4368,-2.4856,-2.4563,-2.4112,-2.4112,-2.4649,-2.5163,-2.5082,-2.6038,-2.6828,0.0,0.0,-2.7745,-2.8294,-2.8908,-2.951,-2.9986,-3.0546,-3.0672,0.0,0.0,0.0,0.0,0.0,0.0,-3.0245,0.0,-3.0181,-3.0216,-3.0216,-3.0216,-3.0216,-3.0216,-3.0216,-3.0216,-3.0216,-3.0836,-3.1989,-3.3275,-3.4454,-3.5399,-3.6218,-3.6772,-3.6993,-3.6993,-3.6978,-3.6978,-3.695,-3.6936,-3.6936,-3.6908,-3.6894,-3.6894,-3.6894,-3.6894,-3.6972,-3.7127,-3.7323,-3.761,-3.781,-3.7976,-3.8277,-3.8885,-3.9595,-4.0339,-4.1075,-4.1819,-4.2445,-4.2571,-4.2634,-4.2456,-4.1743,-4.1015,-4.0302,-3.9622,-3.891,-3.8391,-3.8391,-3.8391,-3.8391,-3.8391,-3.8408,-3.8448,-3.856,-3.8632,-3.8616,-3.8616,-3.8616,-3.8727,-3.8969,-3.9023,-3.9094,-3.9272,-3.9272,-3.9272,-3.9272,-3.9272,-3.9272,-3.9272,-3.9272,-3.9325,-3.9325,-3.9325,-3.9537,-3.9952,-3.9935,-4.032,-4.1024,-4.1146,-4.1436,-2.4709,-2.4789,-2.4801,-2.4964,-2.4593,-2.4305,-2.4447,-2.4625,-2.4909,-2.5394,-2.5892,-2.6354,0.0,0.0,0.0,-2.8347,-2.9248,0.0,-2.9497,-2.9921,0.0,-2.8803,0.0,-2.8215,-2.772,-2.7842,0.0,0.0,-2.9259,-2.9837,-3.0193,-3.0216,-3.0216,-3.0216,-3.0216,-3.0216,-3.0216,-3.0601,-3.105,-3.1472,-3.2525,-3.3458,-3.4384,-3.5304,-3.6138,-3.6786,-3.6915,-3.6978,-3.695,-3.6487,-3.6304,-3.6248,-3.5798,-3.5691,-3.5691,-3.5691,-3.5691,-3.5691,-3.5705,-3.6448,-3.7309,-3.7082,-3.7465,-3.8156,-3.8885,-3.9595,-4.0339,-4.1075,-4.1819,-4.2445,-4.2571,-4.2634,-4.2456,-4.1743,-4.1015,-4.0302,-3.9622,-3.891,-3.8391,-3.8391,-3.8391,-3.8391,-3.8391,-3.8448,-3.856,-3.856,-3.8672,-3.8821,-3.8876,-3.8931,-3.8985,-3.9218,-3.9202,-3.9255,-3.9272,-3.9272,-3.9272,-3.9272,-3.9272,-3.9272,-3.9272,-3.9272,-3.9432,-3.9746,-3.9746,-3.9918,-4.0269,-4.0368,-4.0659,-4.1146,-4.1311,-4.164,-2.4231,-2.4552,-2.494,-2.4717,-2.4664,-2.4681,-2.4673,-2.4922,-2.532,-2.5702,-2.6216,0.0,0.0,0.0,0.0,0.0,0.0,0.0,-2.9542,-2.9528,-2.9337,0.0,-2.831,0.0,-2.7231,-2.7483,-2.7748,0.0,-2.87,-2.9263,-2.9538,-2.9768,-2.9894,-2.9894,-3.0101,-3.0216,-3.0216,-3.0691,-3.1062,-3.1139,-3.2525,-3.3458,-3.4037,-3.5304,-3.6138,-3.6721,0.0,-3.6838,-3.6557,-3.6206,-3.5911,-3.5705,-3.5367,-3.5226,-3.5226,-3.5226,-3.5226,-3.5198,-3.4843,-3.5451,-3.6391,-3.6636,-3.7075,-3.7719,-3.8796,-3.958,-4.0255,-4.1075,-4.1754,-4.2318,-4.2571,-4.2634,-4.2456,-4.1743,-4.1015,-4.0302,-3.9622,-3.891,-3.8391,-3.8391,-3.8391,-3.8391,-3.8391,-3.8448,-3.856,-3.8655,-3.875,-3.886,-3.9094,-3.9023,-3.9094,-3.9272,-3.9272,-3.9272,-3.9272,-3.9272,-3.9272,-3.9272,-3.9272,-3.9379,-3.9537,-3.959,-3.9729,-4.0104,-4.0204,-4.0385,-4.0754,-4.0896,-4.1146,-4.1542,-4.1701,-4.1856,-2.3433,-2.4125,-2.4962,-2.4603,-2.4919,-2.519,-2.5007,-2.5476,-2.5972,-2.6054,0.0,-2.744,-2.733,-2.7987,-2.8503,-2.8421,0.0,-2.9429,-2.9677,-2.93,-2.8974,-2.8775,-2.8395,-2.7857,-2.7231,-2.7231,-2.7415,-2.7851,-2.8264,-2.8563,-2.8689,-2.9137,-2.9424,-2.9504,-2.9963,-3.0216,-3.0306,-3.0793,-3.1062,-3.1151,-3.2772,-3.3713,-3.4037,-3.5548,-3.635,-3.6596,-3.6802,-3.6515,-3.5939,-3.5855,-3.5517,-3.5026,-3.4941,-3.4987,-3.4987,-3.4987,-3.4987,-3.4829,-3.4295,-3.4464,-3.5085,-3.6077,-3.6644,-3.72,-3.8545,-3.9358,-4.0132,-4.1044,-4.1625,-4.2093,-4.2363,-4.2423,-4.218,-4.1581,-4.0885,-4.0205,-3.9606,-3.891,-3.8391,-3.8391,-3.8391,-3.8391,-3.8391,-3.8448,-3.8544,-3.875,-3.886,-3.8969,-3.9272,-3.9148,-3.9094,-3.9272,-3.9272,-3.9272,-3.9272,-3.9272,-3.9325,-3.9379,-3.9379,-3.959,-3.9935,-3.9986,-4.0154,-4.0497,-4.0642,-4.0879,-4.13,-4.1436,-4.1675,-4.2005,-4.2079,-4.2103,-2.3959,-2.4517,-2.514,-2.566,-2.5648,-2.5579,-2.5706,-2.6007,0.0,0.0,0.0,-2.7714,-2.8045,-2.8797,-2.9104,-2.8451,0.0,0.0,0.0,0.0,-2.8288,0.0,-2.7694,-2.7313,-2.7231,-2.7231,0.0,0.0,-2.7438,-2.7839,-2.8654,-2.8792,-2.9045,-2.9481,-2.9963,-3.0408,-3.0883,-3.0972,-3.1151,-3.1584,-3.245,-3.33,-3.4037,-3.5059,-3.5705,-3.5969,-3.6157,0.0,-3.5339,-3.4773,-3.4492,-3.4337,-3.3831,-3.3635,-3.3635,-3.3635,-3.3635,-3.3621,-3.3522,-3.355,-3.3733,-3.4611,-3.5655,-3.6777,-3.775,-3.8931,-4.0173,-4.1053,-4.1341,-4.1496,-4.1698,-4.1306,-4.0836,-4.0707,-4.0156,-3.9622,-3.9509,-3.891,-3.8391,-3.8391,-3.8391,-3.8391,-3.8391,-3.86,-3.875,-3.8805,-3.904,-3.9218,-3.9272,-3.9272,-3.9272,-3.9272,-3.9272,-3.9272,-3.9272,-3.9272,-3.9432,-3.9798,-3.9798,-3.9969,-4.0319,-4.0417,-4.0659,-4.1053,-4.1192,-4.1436,-4.1858,-4.1952,-4.2019,-4.2079,-4.2205,-4.2287,-2.4594,-2.5218,-2.5858,-2.6264,-2.629,-2.6234,-2.6157,0.0,0.0,0.0,0.0,-2.807,-2.8502,0.0,0.0,0.0,0.0,0.0,0.0,0.0,0.0,0.0,0.0,-2.6931,0.0,-2.6184,-2.5946,-2.6279,-2.6445,-2.6907,-2.7908,-2.8184,-2.8689,-2.9481,-2.9722,-3.0143,-3.0769,-3.0972,-3.1151,-3.1484,-3.2698,-3.3305,-3.3597,-3.4835,-3.5329,-3.5314,-3.5527,-3.525,-3.4646,-3.4365,-3.4042,-3.3733,-3.3438,-3.3326,-3.3326,-3.3326,-3.3326,-3.3326,-3.3326,-3.3396,-3.3578,-3.4154,-3.5172,-3.63,-3.7888,-3.8842,-3.9607,-4.0531,-4.0782,-4.0849,-4.0954,-4.0756,-4.0399,-4.0043,-3.9428,-3.8926,-3.8926,-3.8651,-3.8391,-3.8391,-3.8391,-3.8391,-3.8504,-3.8616,-3.8766,-3.886,-3.9023,-3.9202,-3.9272,-3.9272,-3.9272,-3.9272,-3.9272,-3.9272,-3.9272,-3.9484,-3.9694,-3.9901,-4.0104,-4.0417,-4.0802,-4.0943,-4.1192,-4.1604,-4.1719,-4.1849,-4.2055,-4.2163,-4.2187,-4.2205,-4.2287,-4.2287,-2.5141,-2.5858,-2.6596,-2.6939,-2.7141,-2.7223,-2.6931,-2.7037,0.0,0.0,-2.8223,-2.8533,-2.8784,0.0,0.0,0.0,0.0,0.0,0.0,0.0,0.0,0.0,0.0,0.0,-2.6174,-2.5306,0.0,-2.5495,-2.583,-2.6351,-2.7149,-2.7713,-2.8344,-2.9148,-2.9362,-2.9739,-3.0493,-3.0796,-3.1033,-3.1395,-3.2819,-3.3373,-3.317,-3.46,-3.5003,-3.4659,-3.4882,-3.4604,-3.4042,-3.4042,-3.3761,-3.3326,-3.3326,-3.3326,-3.3326,-3.3326,-3.3326,-3.3326,-3.3326,-3.3521,-3.3854,-3.4394,-3.5081,-3.603,-3.8065,-3.8779,-3.9141,-4.0059,-4.0192,-4.0123,-4.0286,-4.0156,-3.9914,-3.9379,-3.8812,-3.8391,-3.8391,-3.8391,-3.8391,-3.8391,-3.8391,-3.8448,-3.856,-3.8616,-3.8711,-3.8969,-3.9023,-3.9028,-3.9056,-3.9279,-3.9365,-3.9215,-3.9332,-3.9365,-3.9215,-3.968,-4.0087,-4.0171,-4.0514,-4.0943,-4.1346,-4.148,-4.1719,-4.203,-4.2079,-4.2145,-4.2145,-4.2246,-4.2287,-4.2287,-4.2287,-4.2287,-2.5485,-2.6181,-2.6925,-2.8101,-2.868,-2.8781,-2.8296,0.0,0.0,-2.8703,-2.8974,-2.9219,-2.9085,0.0,0.0,0.0,0.0,0.0,0.0,0.0,0.0,0.0,0.0,0.0,-2.4859,-2.5105,-2.5411,-2.5484,-2.6279,-2.6891,-2.7149,-2.7713,-2.8023,-2.8115,-2.8722,-2.9456,-3.0232,-3.0418,-3.0918,-3.1661,-3.2503,-3.3032,-3.3362,-3.4258,-3.4557,-3.4251,-3.4251,-3.3972,0.0,-3.3396,-3.3368,-3.3326,-3.3326,-3.3326,-3.3326,-3.3326,-3.3326,-3.3326,-3.3326,-3.3687,-3.438,-3.5059,-3.5574,-3.6125,-3.745,-3.8462,-3.936,-4.0112,-3.9957,-3.9573,-3.9573,-3.9088,-3.8586,-3.8521,-3.844,-3.8391,-3.8391,-3.8391,-3.8391,-3.8391,-3.8391,-3.8448,-3.856,-3.8711,-3.8805,-3.8969,-3.9148,-3.904,-3.8394,-3.9172,-3.958,-3.8908,-3.9446,-3.9564,-3.8891,-3.9747,-4.0563,-4.1053,-4.11,-4.1408,-4.1902,-4.1995,-4.2061,-4.2061,-4.2205,-4.2287,-4.2287,-4.2287,-4.2287,-4.2287,-4.2287,-4.2287,-2.7117,-2.7674,-2.8321,-2.9524,-2.9862,-2.9678,-2.9129,0.0,-2.9434,-2.8816,-2.9119,-2.9352,-2.8753,-2.8146,0.0,0.0,0.0,0.0,0.0,0.0,0.0,0.0,0.0,0.0,0.0,0.0,-2.3444,-2.4039,-2.5516,-2.6467,-2.6351,-2.7073,-2.775,-2.8145,-2.8425,-2.9016,-2.9874,-2.9972,-3.025,-3.0711,-3.1788,-3.2298,-3.2411,-3.3485,-3.3831,-3.3691,-3.3691,-3.355,0.0,-3.3326,-3.3326,-3.3326,-3.3326,-3.3326,-3.3326,-3.3326,-3.3326,-3.3326,-3.3326,-3.3646,-3.4249,-3.5139,-3.577,-3.6383,-3.7492,-3.82,-3.8705,-3.9053,-3.8998,-3.8829,-3.8829,-3.8618,-3.8391,-3.8391,-3.8391,-3.8391,-3.8391,-3.8391,-3.8391,-3.8391,-3.8391,-3.8448,-3.856,-3.8711,-3.886,-3.8969,-3.9148,-3.9172,-3.8891,-3.9458,-3.9649,-3.8956,-3.963,-4.0118,-3.9927,-4.0504,-4.1007,-4.1283,-4.1569,-4.1849,-4.2037,-4.2163,-4.2246,-4.2246,-4.2287,-4.2287,-4.2287,-4.2287,-4.2287,-4.2287,-4.2287,-4.2287,-2.7978,-2.8557,-2.9138,-3.0227,-3.0538,-3.0448,0.0,0.0,-2.9701,-2.9083,-2.9307,-2.9338,-2.8532,-2.7789,0.0,0.0,0.0,0.0,0.0,0.0,0.0,0.0,0.0,-2.4098,0.0,-2.322,-2.295,-2.3714,-2.5274,-2.6218,-2.6102,-2.6787,-2.7462,-2.808,-2.8186,-2.8585,-2.9499,-2.9511,-2.9846,-3.0408,-3.1279,-3.185,-3.1974,-3.2907,-3.329,-3.3326,-3.3326,-3.3326,0.0,-3.3326,-3.3326,-3.3326,-3.3326,-3.3326,-3.3326,-3.3326,-3.3326,-3.3326,-3.3326,-3.366,-3.4264,-3.5154,-3.5961,-3.6768,-3.7669,-3.8049,-3.8294,-3.8391,-3.8391,-3.8391,-3.8391,-3.8391,-3.8391,-3.8391,-3.8391,-3.8391,-3.8391,-3.8391,-3.8391,-3.8391,-3.8391,-3.8448,-3.8616,-3.8766,-3.886,-3.9077,-3.9202,-3.9242,-3.9185,-3.9698,-3.9866,-3.9293,-4.0195,-4.0698,-4.0538,-4.107,-4.1498,-4.1613,-4.1934,-4.2103,-4.2145,-4.2246,-4.2287,-4.2287,-4.2287,-4.2287,-4.2287,-4.2287,-4.2287,-4.2287,-4.2287,-4.2287,-2.7556,-2.8277,-2.9054,-2.9827,-3.0624,-3.1037,0.0,-3.0516,-3.0347,-2.9729,-2.9602,-2.9401,-2.8634,-2.792,-2.7204,0.0,0.0,0.0,0.0,0.0,0.0,0.0,0.0,-2.4371,-2.294,-2.409,-2.4946,-2.52,-2.5801,0.0,-2.6891,-2.7115,-2.7267,-2.7522,-2.78,-2.8302,-2.8964,-2.9222,-2.9885,-3.0951,-3.1048,-3.1616,-3.2581,-3.2677,-3.2945,-3.3326,-3.3326,-3.3326,0.0,-3.3326,-3.3326,-3.3326,-3.3326,-3.3326,-3.3326,-3.3326,-3.3326,-3.3326,-3.3326,-3.3894,-3.4662,-3.519,-3.6228,-3.7254,-3.7743,-3.8107,-3.8391,-3.8391,-3.8391,-3.8391,-3.8391,-3.8391,-3.8391,-3.8391,-3.8391,-3.8391,-3.8391,-3.8391,-3.8391,-3.8391,-3.8391,-3.8504,-3.875,-3.8805,-3.8914,-3.9272,-3.9272,-3.9166,-3.8841,-3.9729,-4.0319,-4.013,-4.1113,-4.1376,-4.0394,-4.1339,-4.203,-4.2103,-4.2103,-4.2145,-4.2287,-4.2287,-4.2287,-4.2287,-4.2287,-4.2287,-4.2287,-4.2287,-4.2287,-4.2287,-4.2287,-4.2287,-2.767,-2.8058,-2.8626,-2.9618,-2.991,-2.9818,-2.9644,-2.9361,-2.8919,-2.8264,-2.8143,-2.7947,-2.7204,-2.6879,-2.6596,-2.621,0.0,0.0,0.0,0.0,0.0,-2.5594,-2.5001,-2.4117,0.0,0.0,-2.5158,-2.4978,-2.6174,-2.6775,-2.667,-2.7092,-2.7522,-2.7788,-2.803,-2.8262,-2.867,-2.8763,-2.9144,-2.9928,-3.0509,-3.1169,-3.2065,-3.2629,-3.3072,-3.3326,-3.3326,-3.3326,-3.3326,-3.3326,-3.3326,-3.3326,-3.3326,-3.3326,-3.3326,-3.3326,-3.3326,-3.3326,-3.3326,-3.3894,-3.4662,-3.5204,-3.6228,-3.7314,-3.7743,-3.8107,-3.8391,-3.8391,-3.8391,-3.8391,-3.8391,-3.8391,-3.8391,-3.8391,-3.8391,-3.8391,-3.8391,-3.8391,-3.8391,-3.8391,-3.8448,-3.856,-3.8672,-3.8821,-3.8969,-3.9094,-3.9202,-3.9348,-3.9513,-4.0133,-4.0651,-4.0951,-4.1603,-4.1888,-4.158,-4.1835,-4.2121,-4.2246,-4.2246,-4.2246,-4.2287,-4.2287,-4.2287,-4.2287,-4.2287,-4.2287,-4.2287,-4.2287,-4.2287,-4.2287,-4.2287,-4.2287,0.0,-2.7886,-2.8182,-2.9184,-2.9125,-2.8847,-2.889,-2.8435,-2.797,-2.7549,-2.7484,-2.7271,-2.6552,-2.6414,-2.6325,-2.6154,0.0,0.0,0.0,0.0,0.0,-2.5089,0.0,0.0,0.0,-2.5147,-2.5986,-2.5724,-2.6659,-2.7092,-2.6917,-2.7348,-2.7777,-2.8042,-2.8099,-2.8259,-2.851,-2.8736,-2.9118,-2.9716,-3.0532,-3.1355,-3.2173,-3.2761,-3.3072,-3.3326,-3.3326,-3.3326,0.0,-3.3326,-3.3326,-3.3326,-3.3326,-3.3326,-3.3326,-3.3326,-3.3326,-3.3312,-3.3507,-3.4016,-3.4728,-3.5499,-3.6414,-3.7229,-3.7575,-3.8012,-3.8391,-3.8391,-3.8391,-3.8391,-3.8391,-3.8391,-3.8391,-3.8391,-3.8391,-3.8391,-3.8391,-3.8391,-3.8391,-3.8464,-3.856,-3.8616,-3.8727,-3.8876,-3.9077,-3.9309,-3.9468,-3.9729,-4.0271,-4.0611,-4.1036,-4.1587,-4.1892,-4.2103,-4.2145,-4.2205,-4.2205,-4.2287,-4.2287,-4.2287,-4.2287,-4.2287,-4.2287,-4.2287,-4.2287,-4.2287,-4.2287,-4.2287,-4.2287,-4.2287,-4.2287,-4.2287,0.0,-2.7663,-2.7828,-2.8525,-2.8295,-2.7937,-2.82,-2.7795,0.0,-2.7338,-2.7338,-2.7162,-2.6533,-2.6383,-2.628,-2.6263,0.0,0.0,0.0,-2.7117,0.0,0.0,-2.4221,0.0,-2.4669,-2.6257,-2.7267,-2.7267,-2.7267,-2.7348,-2.7603,-2.7788,-2.8042,-2.8259,-2.8259,-2.8339,-2.851,-2.9118,-2.9716,-3.0317,-3.1145,-3.1955,-3.2704,-3.2917,-3.3143,0.0,-3.3326,-3.3326,-3.3326,-3.3326,-3.3326,-3.3326,-3.3326,-3.3326,-3.3326,-3.3326,-3.3312,-3.3452,-3.3962,-3.4341,-3.4912,-3.6073,-3.6762,-3.7102,-3.7203,-3.7744,-3.8327,-3.8327,-3.8359,-3.8391,-3.8343,-3.8359,-3.8391,-3.8327,-3.8359,-3.8391,-3.8391,-3.8391,-3.8448,-3.856,-3.8616,-3.8727,-3.8985,-3.9023,-3.9239,-3.9849,-3.9952,-4.0221,-4.0931,-4.1163,-4.1408,-4.1945,-4.2079,-4.2145,-4.2287,-4.2287,-4.2287,-4.2287,-4.2287,-4.2287,-4.2287,-4.2287,-4.2287,-4.2287,-4.2287,-4.2287,-4.2287,-4.2287,-4.2287,-4.2287,-4.2287,-4.2287,-2.777,0.0,-2.6578,-2.6797,-2.6383,-2.6116,0.0,-2.6226,-2.5849,0.0,0.0,0.0,-2.6116,0.0,0.0,0.0,0.0,0.0,-2.7997,0.0,0.0,-2.5663,-2.6174,-2.6412,-2.6069,-2.7103,-2.7788,-2.7926,-2.8099,-2.8179,-2.8259,-2.8351,-2.8351,-2.8431,-2.8431,-2.8431,-2.851,-2.9118,-2.9793,-3.0532,-3.1355,-3.216,-3.2917,-3.3157,-3.3241,-3.3326,-3.3326,-3.3326,-3.3326,-3.3326,-3.3326,-3.3326,-3.3326,-3.3326,-3.3326,-3.3326,-3.3577,-3.3948,-3.4085,-3.4876,-3.59,-3.655,-3.6933,-3.7005,-3.6653,-3.7015,-3.7566,-3.7566,-3.797,-3.8278,-3.7711,-3.7987,-3.8262,-3.7695,-3.8003,-3.8391,-3.8391,-3.8391,-3.8448,-3.856,-3.8655,-3.8805,-3.8969,-3.9398,-3.9729,-3.9901,-4.0204,-4.0611,-4.11,-4.1311,-4.1596,-4.2037,-4.2205,-4.2287,-4.2287,-4.2287,-4.2287,-4.2287,-4.2287,-4.2287,-4.2287,-4.2287,-4.2287,-4.2287,-4.2287,-4.2287,-4.2287,-4.2287,-4.2287,-4.2287,-4.2287,-4.2287,-2.7866,-2.7115,-2.654,-2.6798,-2.6457,-2.613,-2.642,0.0,0.0,0.0,0.0,0.0,0.0,0.0,0.0,0.0,-2.756,0.0,0.0,0.0,-2.6999,-2.6505,-2.6835,-2.6917,0.0,-2.7592,-2.8203,-2.8351,-2.8431,-2.851,-2.851,-2.851,-2.851,-2.851,-2.851,-2.851,-2.851,-2.9341,-3.0088,-3.0607,-3.1723,-3.2475,-3.2988,-3.3241,-3.3326,-3.3326,-3.3326,-3.3326,-3.3326,-3.3326,-3.3326,-3.3326,-3.3326,-3.3143,-3.2904,-3.2904,-3.3036,-3.3278,-3.3885,-3.5015,-3.6409,-3.7144,-3.6869,-3.6228,-3.6265,-3.6319,-3.6481,-3.7128,-3.7598,-3.7809,-3.742,-3.7614,-3.7728,-3.7015,-3.7388,-3.7825,-3.7501,-3.7938,-3.8367,-3.8248,-3.8537,-3.8914,-3.9345,-3.9677,-4.0037,-4.0468,-4.0724,-4.1036,-4.1498,-4.1701,-4.1856,-4.2061,-4.2246,-4.2287,-4.2287,-4.2287,-4.2287,-4.2287,-4.2287,-4.2287,-4.2287,-4.2287,-4.2287,-4.2287,-4.2287,-4.2287,-4.2287,-4.2287,-4.2287,-4.2287,-4.2287,-4.2287,-2.7957,-2.7512,-2.7236,-2.7536,-2.7272,-2.6911,0.0,0.0,0.0,0.0,0.0,0.0,0.0,0.0,0.0,0.0,0.0,0.0,-2.8558,-2.7708,-2.7069,-2.7069,-2.7069,0.0,-2.7069,-2.7914,-2.851,-2.851,-2.851,-2.851,-2.851,-2.851,-2.851,-2.851,-2.851,-2.851,-2.8669,-2.9716,-3.0469,-3.0833,-3.2101,-3.2846,-3.3072,-3.3241,-3.3326,-3.3326,0.0,0.0,-3.3326,-3.3326,-3.3326,-3.3312,-3.3213,-3.2862,-3.2398,-3.23,-3.2321,-3.2507,-3.372,-3.5141,-3.6542,-3.7211,-3.6467,-3.5428,-3.5849,-3.5525,-3.5283,-3.661,-3.708,-3.7128,-3.7015,-3.708,-3.7015,-3.6448,-3.6821,-3.7193,-3.6724,-3.7549,-3.8342,-3.7997,-3.8412,-3.9077,-3.9798,-3.9935,-4.0271,-4.1071,-4.13,-4.1498,-4.1945,-4.2079,-4.2145,-4.2145,-4.2246,-4.2287,-4.2287,-4.2287,-4.2287,-4.2287,-4.2287,-4.2287,-4.2287,-4.2287,-4.2287,-4.2287,-4.2287,-4.2287,-4.2287,-4.2287,-4.2287,-4.2287,-4.2287,-4.2287,-2.8493,-2.833,-2.8077,-2.726,-2.6995,-2.6815,0.0,0.0,0.0,0.0,0.0,0.0,0.0,0.0,0.0,0.0,0.0,-2.857,0.0,0.0,-2.8259,-2.8259,0.0,-2.8259,-2.8259,-2.8431,-2.851,-2.851,-2.851,-2.851,-2.851,-2.851,-2.851,-2.851,-2.851,-2.8736,-2.9263,-2.9947,-3.0758,-3.1649,-3.2318,-3.286,-3.3241,-3.3326,-3.3326,-3.3326,0.0,-3.3326,-3.3326,-3.3326,-3.3326,-3.3269,-3.275,-3.2483,-3.2342,-3.1822,-3.2184,-3.3037,-3.4285,-3.554,-3.6428,-3.5473,-3.5616,-3.5914,-3.4781,-3.436,-3.4441,-3.5283,-3.5963,-3.6319,-3.5671,-3.5995,-3.6432,-3.6335,-3.6821,-3.7452,-3.797,-3.8358,-3.8583,-3.8619,-3.8832,-3.9185,-3.9781,-4.0237,-4.0642,-4.1146,-4.1657,-4.1977,-4.2061,-4.2205,-4.2287,-4.2287,-4.2287,-4.2287,-4.2287,-4.2287,-4.2287,-4.2287,-4.2287,-4.2287,-4.2287,-4.2287,-4.2287,-4.2287,-4.2287,-4.2287,-4.2287,-4.2287,-4.2287,-4.2287,-4.2287,-4.2287,-2.859,-2.851,-2.8462,-2.8258,-2.7993,-2.7717,0.0,0.0,0.0,0.0,0.0,0.0,0.0,0.0,-2.8138,-2.9184,0.0,-2.9027,-2.9268,-2.8847,-2.851,0.0,0.0,-2.851,-2.851,-2.851,-2.851,-2.851,-2.851,-2.851,-2.851,-2.851,-2.851,-2.851,-2.8816,-2.9263,-2.9871,-3.062,-3.1206,-3.1796,-3.2547,-3.3002,-3.3326,-3.3326,-3.3326,-3.3326,0.0,-3.3326,-3.3297,-3.296,-3.282,-3.2764,-3.2145,-3.1696,-3.1368,-3.126,-3.1965,-3.3111,-3.4105,-3.4888,-3.5443,-3.5406,-3.5251,-3.5056,-3.4764,-3.4408,-3.4165,-3.4505,-3.5137,-3.5623,-3.5266,-3.5736,-3.6108,-3.5299,-3.6238,-3.7193,-3.6864,-3.7747,-3.8613,-3.8672,-3.9046,-3.9575,-4.0353,-4.0724,-4.11,-4.156,-4.1892,-4.2103,-4.2205,-4.2246,-4.2287,-4.2287,-4.2287,-4.2287,-4.2287,-4.2287,-4.2287,-4.2287,-4.2287,-4.2287,-4.2287,-4.2287,-4.2287,-4.2287,-4.2287,-4.2287,-4.2287,-4.2287,-4.2287,-4.2287,-4.2287,-4.2287,-2.851,-2.851,-2.8674,-2.9015,0.0,0.0,0.0,0.0,0.0,0.0,0.0,0.0,0.0,0.0,0.0,-2.9773,-2.9556,-2.9304,-2.9304,-2.8847,-2.851,-2.851,-2.851,-2.851,-2.851,-2.851,-2.851,-2.851,-2.851,-2.851,-2.851,-2.851,-2.8578,-2.8736,-2.9184,-2.9793,-3.0545,-3.122,-3.1723,-3.2028,-3.269,-3.3072,-3.3326,-3.3326,-3.3326,-3.3312,-3.3171,-3.3101,-3.3059,-3.244,-3.2188,-3.2131,-3.1499,-3.0881,-3.0376,-3.0848,-3.1765,-3.2798,-3.363,-3.4178,-3.4654,-3.5289,-3.5017,-3.4424,-3.4813,-3.4538,-3.4101,-3.4101,-3.4505,-3.4926,-3.4926,-3.5477,-3.5752,-3.4619,-3.5866,-3.7015,-3.6124,-3.742,-3.8821,-3.8822,-3.9396,-4.0103,-4.0913,-4.1146,-4.1436,-4.1945,-4.2079,-4.2187,-4.2287,-4.2287,-4.2287,-4.2287,-4.2287,-4.2287,-4.2287,-4.2287,-4.2287,-4.2287,-4.2287,-4.2287,-4.2287,-4.2287,-4.2287,-4.2287,-4.2287,-4.2287,-4.2287,-4.2287,-4.2287,-4.2287,-4.2287,-4.2287,-2.859,-2.8657,-2.8736,-2.8626,0.0,0.0,0.0,0.0,0.0,0.0,0.0,0.0,0.0,-2.8859,-2.9268,-2.9352,-2.9328,-2.9304,-2.9304,0.0,-2.851,-2.851,-2.851,-2.851,-2.851,-2.851,-2.851,-2.851,-2.851,-2.851,-2.851,-2.851,-2.8736,-2.9341,-2.9419,-3.0012,-3.1429,-3.1649,-3.2101,-3.2618,-3.2903,-3.3072,-3.3326,-3.3326,-3.3326,-3.3297,-3.2721,-3.2469,-3.2426,-3.1808,-3.1555,-3.1485,-3.0839,-3.0221,-2.9783,-3.0777,-3.1379,-3.1784,-3.2982,-3.3958,-3.4723,-3.4201,-3.4549,-3.4975,-3.436,-3.4133,-3.4101,-3.4101,-3.4133,-3.4182,-3.4182,-3.4716,-3.5234,-3.5137,-3.6238,-3.729,-3.7362,-3.8414,-3.9401,-3.9492,-4.0052,-4.0689,-4.11,-4.1356,-4.1622,-4.2019,-4.2205,-4.2287,-4.2287,-4.2287,-4.2287,-4.2287,-4.2287,-4.2287,-4.2287,-4.2287,-4.2287,-4.2287,-4.2287,-4.2287,-4.2287,-4.2287,-4.2287,-4.2287,-4.2287,-4.2287,-4.2287,-4.2287,-4.2287,-4.2287,-4.2287,-4.2287,-2.8724,-2.8724,-2.8882,-2.941,0.0,0.0,0.0,0.0,0.0,0.0,0.0,0.0,0.0,0.0,-2.9412,-2.9737,-2.9508,-2.9304,-2.9304,-2.8847,-2.851,-2.851,-2.851,-2.851,-2.851,-2.851,-2.851,-2.851,-2.851,-2.851,-2.851,-2.851,-2.859,-2.8803,-2.9574,-3.0075,-3.0385,-3.133,-3.1997,-3.2319,-3.2905,-3.3241,-3.3326,-3.3326,-3.3326,-3.3312,-3.3073,-3.2764,-3.2356,-3.1738,-3.1246,-3.0825,-3.0207,-3.0173,-3.0553,-3.0999,-3.1751,-3.2578,-3.324,-3.3782,-3.4217,-3.4097,-3.4228,-3.4457,-3.4182,-3.4101,-3.4101,-3.4101,-3.4424,-3.4764,-3.4764,-3.4975,-3.5299,-3.5768,-3.661,-3.7378,-3.7649,-3.8619,-3.9425,-3.9493,-3.989,-4.037,-4.0867,-4.1082,-4.1386,-4.199,-4.2187,-4.2287,-4.2287,-4.2287,-4.2287,-4.2287,-4.2287,-4.2287,-4.2287,-4.2287,-4.2287,-4.2287,-4.2287,-4.2287,-4.2287,-4.2287,-4.2287,-4.2287,-4.2287,-4.2287,-4.2287,-4.2287,-4.2287,-4.2287,-4.2405,-4.2445,-2.8882,-2.8961,-2.9132,0.0,0.0,0.0,0.0,0.0,0.0,0.0,0.0,0.0,0.0,0.0,0.0,0.0,-2.9532,-2.9304,-2.9304,-2.8847,-2.851,-2.851,-2.851,-2.851,-2.851,-2.851,-2.851,-2.851,-2.851,-2.851,-2.851,-2.851,-2.8585,-2.8795,-2.9618,-3.0002,-3.0085,-3.1004,-3.1667,-3.1914,-3.247,-3.2946,-3.3326,-3.3326,-3.3326,-3.3312,-3.3115,-3.2792,-3.2342,-3.1527,-3.0811,-3.0193,-2.9944,-3.0251,-3.0896,-3.1349,-3.2104,-3.3027,-3.345,-3.3694,-3.3899,-3.405,-3.4101,-3.4101,-3.4101,-3.4101,-3.4101,-3.4101,-3.4457,-3.4943,-3.5412,-3.5687,-3.593,-3.6238,-3.6999,-3.7653,-3.7698,-3.8709,-3.9614,-3.9717,-4.021,-4.0736,-4.1138,-4.1339,-4.1576,-4.2074,-4.2246,-4.2287,-4.2287,-4.2287,-4.2287,-4.2287,-4.2287,-4.2287,-4.2287,-4.2287,-4.2287,-4.2287,-4.2287,-4.2287,-4.2287,-4.2287,-4.2287,-4.2287,-4.2287,-4.2287,-4.2287,-4.2287,-4.2287,-4.2287,-4.2445,-4.2503,-2.9131,-2.9275,-2.9341,0.0,0.0,0.0,0.0,0.0,0.0,0.0,0.0,0.0,-2.94,0.0,0.0,-2.9292,-2.9292,-2.9292,-2.9292,-2.8835,-2.851,-2.851,-2.851,-2.851,-2.851,-2.851,-2.851,-2.851,-2.851,-2.851,-2.8498,-2.8498,-2.8782,-2.9349,-2.941,-2.9856,-3.0894,-3.0894,-3.111,-3.1485,-3.1485,-3.2117,-3.3297,-3.3312,-3.3312,-3.3283,-3.2679,-3.2412,-3.2314,-3.105,-3.015,-2.9665,-3.0083,-3.0358,-3.0629,-3.1781,-3.2398,-3.2711,-3.3419,-3.3797,-3.3899,-3.405,-3.4101,-3.4101,-3.4101,-3.4101,-3.4101,-3.4101,-3.4101,-3.4457,-3.5914,-3.6805,-3.7145,-3.6481,-3.7371,-3.8221,-3.7655,-3.8816,-4.0086,-4.0334,-4.1237,-4.203,-4.2044,-4.2169,-4.2269,-4.2269,-4.2269,-4.2269,-4.2269,-4.2287,-4.2287,-4.2287,-4.2287,-4.2287,-4.2287,-4.2287,-4.2287,-4.2287,-4.2287,-4.2287,-4.2287,-4.2287,-4.2287,-4.2287,-4.2287,-4.2287,-4.2287,-4.2287,-4.2287,-4.2287,-4.2445,-4.2503,-2.9374,-2.9341,0.0,0.0,0.0,0.0,0.0,0.0,0.0,0.0,0.0,0.0,-2.9953,0.0,0.0,-2.8799,-2.8751,-2.8751,-2.8751,-2.8607,-2.851,-2.851,-2.851,-2.851,-2.851,-2.851,-2.851,-2.851,-2.851,-2.8342,-2.7981,-2.7957,-2.7859,-2.7616,-2.8396,-2.8899,-2.9076,-2.9847,-3.047,-3.0811,-3.0811,-3.1246,-3.2047,-3.2483,-3.2679,-3.2693,-3.2946,-3.2806,-3.2314,-3.105,-3.015,-2.9602,-2.9727,-3.0297,-3.1043,-3.1637,-3.2437,-3.3277,-3.3694,-3.3949,-3.405,-3.4101,-3.4101,-3.4101,-3.4101,-3.4101,-3.4101,-3.4101,-3.4473,-3.4959,-3.5396,-3.606,-3.6805,-3.7598,-3.6934,-3.6405,-3.742,-3.8469,-3.9202,-3.91,-4.0202,-4.1002,-4.0637,-4.0588,-4.061,-4.061,-4.061,-4.0824,-4.1377,-4.1448,-4.1663,-4.2234,-4.2287,-4.2287,-4.2287,-4.2287,-4.2287,-4.2287,-4.2287,-4.2287,-4.2287,-4.2287,-4.2287,-4.2287,-4.2287,-4.2287,-4.2287,-4.2287,-4.2287,-4.2287,-4.2508,-4.2588,-3.0194,0.0,0.0,0.0,0.0,0.0,0.0,0.0,0.0,0.0,0.0,-3.1199,-3.0616,-2.9951,0.0,-2.8871,-2.8643,-2.851,-2.851,-2.851,-2.851,-2.851,-2.851,-2.851,-2.851,-2.851,-2.851,-2.851,-2.8318,-2.8065,-2.7741,-2.7524,-2.7303,-2.7274,-2.7889,-2.8386,-2.8625,-2.9299,-2.9831,-3.015,-3.015,-3.0361,-3.0769,-3.1654,-3.2174,-3.244,-3.3059,-3.2974,-3.2342,-3.1583,-3.0909,-3.0397,-3.0492,-3.0977,-3.1707,-3.2083,-3.2834,-3.3607,-3.3848,-3.4,-3.4101,-3.4101,-3.4101,-3.4101,-3.4101,-3.4101,-3.4101,-3.4101,-3.4408,-3.4813,-3.5104,-3.5299,-3.5801,-3.7226,-3.6578,-3.5954,-3.7154,-3.7953,-3.8486,-3.8594,-3.9536,-4.0246,-3.9964,-3.9914,-3.9914,-3.9914,-3.9914,-4.0092,-4.0574,-4.0628,-4.0806,-4.1288,-4.1341,-4.1341,-4.1341,-4.1341,-4.1341,-4.1341,-4.1645,-4.1805,-4.1805,-4.2126,-4.2144,-4.1823,-4.2126,-4.2126,-4.1805,-4.2126,-4.2167,-4.1922,-4.2163,-4.2316,0.0,0.0,0.0,0.0,0.0,0.0,0.0,0.0,-3.2487,-3.2388,0.0,-3.1638,-3.1296,-3.036,-2.9667,-2.9386,-2.8859,-2.851,-2.851,-2.851,-2.851,-2.851,-2.851,-2.851,-2.851,-2.8462,-2.8438,-2.8438,-2.7945,-2.7633,-2.7572,-2.7115,-2.7103,-2.7615,-2.7729,-2.8168,-2.9035,-2.9099,-2.9289,-2.9602,-2.9602,-2.9602,-2.9645,-3.0853,-3.1738,-3.2356,-3.2918,-3.2806,-3.2244,-3.2244,-3.1878,-3.1392,-3.1642,-3.1959,-3.2347,-3.2865,-3.3346,-3.3694,-3.3848,-3.4,-3.4101,-3.4101,-3.4101,-3.4101,-3.4101,-3.4101,-3.4101,-3.4101,-3.4101,-3.4246,-3.491,-3.4586,-3.4441,-3.5837,-3.6161,-3.6303,-3.6835,-3.7349,-3.7967,-3.8625,-3.9199,-3.9678,-3.9786,-3.9807,-3.9789,-3.9718,-3.97,-3.9736,-3.9807,-3.9807,-3.9843,-3.9896,-3.9914,-3.9914,-3.9914,-3.9914,-3.9914,-3.9914,-4.0592,-4.0985,-4.0985,-4.1752,-4.1841,-4.1109,-4.1805,-4.1823,-4.1092,-4.1864,-4.1944,-4.1343,-4.1596,-4.1795,0.0,0.0,0.0,0.0,0.0,0.0,0.0,0.0,-3.2896,-3.2723,-3.2537,-3.2253,-3.165,-3.0952,-3.0281,-2.9679,-2.9076,-2.8645,-2.851,-2.851,-2.851,-2.851,-2.851,-2.851,-2.851,-2.8138,-2.7897,-2.7897,-2.7404,-2.6911,-2.6466,-2.6334,-2.6395,-2.6559,-2.7071,-2.7681,-2.8495,-2.9022,-2.9415,-2.9602,-2.9602,-2.9602,-2.9631,-3.0389,-3.1078,-3.1696,-3.1822,-3.1513,-3.0937,-3.0937,-3.0558,-3.0059,-3.0463,-3.1027,-3.1687,-3.2428,-3.3156,-3.3745,-3.3949,-3.4101,-3.4101,-3.4101,-3.4101,-3.4101,-3.4101,-3.4101,-3.4101,-3.4101,-3.4101,-3.4133,-3.4295,-3.4214,-3.4282,-3.4906,-3.5103,-3.5333,-3.6091,-3.7,-3.7716,-3.8014,-3.8971,-3.9615,-3.9109,-3.9058,-3.8826,-3.8183,-3.8076,-3.8308,-3.8968,-3.9058,-3.9272,-3.986,-3.9914,-3.9914,-3.9914,-3.9914,-3.9914,-3.9914,-4.0075,-4.0164,-4.0164,-4.0931,-4.127,-4.1092,-4.127,-4.127,-4.1092,-4.1528,-4.1663,-4.152,-4.1334,-4.1277,0.0,0.0,0.0,0.0,0.0,0.0,0.0,0.0,-3.3081,-3.2896,-3.2896,-3.2722,-3.2179,-3.1475,-3.0762,-3.0302,-2.9407,-2.8803,-2.8816,-2.8736,-2.8657,-2.8657,-2.8657,-2.8578,-2.851,-2.8029,-2.7717,-2.7717,-2.6983,-2.6406,-2.6105,-2.5865,-2.6086,-2.6824,-2.7149,-2.7881,-2.898,-2.9387,-2.9651,-2.9865,-2.9865,-2.9865,-2.9879,-3.0376,-3.0777,-3.1036,-3.1411,-3.1354,-3.0979,-3.1044,-3.0847,-3.0538,-3.0826,-3.1336,-3.1942,-3.2475,-3.336,-3.421,-3.4129,-3.4327,-3.4554,-3.4214,-3.4101,-3.4101,-3.4101,-3.4101,-3.4101,-3.4101,-3.4101,-3.4101,-3.4101,-3.4101,-3.4151,-3.4349,-3.461,-3.5074,-3.5971,-3.6637,-3.7148,-3.7571,-3.8217,-3.8549,-3.8253,-3.8219,-3.8076,-3.7648,-3.7577,-3.7737,-3.8165,-3.8219,-3.8362,-3.8754,-3.879,-3.879,-3.879,-3.879,-3.879,-3.879,-3.9165,-3.9379,-3.9379,-3.9789,-4.0003,-4.0003,-4.036,-4.042,-4.0177,-4.0706,-4.0908,-4.0739,-4.068,-4.0725,0.0,0.0,0.0,0.0,0.0,0.0,0.0,0.0,0.0,-3.3219,-3.3144,-3.3068,-3.281,-3.1988,-3.1195,-3.0873,-2.9837,-2.9071,-2.9064,-2.8973,-2.8882,-2.8882,-2.8882,-2.8767,-2.8457,-2.7975,-2.7548,-2.7452,-2.6526,-2.5961,-2.6034,-2.5683,-2.6114,-2.7471,-2.767,-2.8454,-2.9808,-2.9822,-2.996,-3.0111,-3.0111,-3.0111,-3.0125,-3.0515,-3.0616,-3.0467,-3.1104,-3.1344,-3.1293,-3.1395,-3.1344,-3.1302,-3.154,-3.193,-3.233,-3.2788,-3.3625,-3.4547,-3.421,-3.4489,-3.4894,-3.4295,-3.4101,-3.4101,-3.4101,-3.4101,-3.4101,-3.4101,-3.4101,-3.4101,-3.4101,-3.4101,-3.4101,-3.4201,-3.4561,-3.5144,-3.6011,-3.6409,-3.6719,-3.7299,-3.7429,-3.7466,-3.7577,-3.7577,-3.7577,-3.7577,-3.7577,-3.7577,-3.7577,-3.7577,-3.7577,-3.7577,-3.7577,-3.7577,-3.7577,-3.7577,-3.7577,-3.7577,-3.8219,-3.8594,-3.8594,-3.8594,-3.8594,-3.8668,-3.9401,-3.9603,-3.9193,-3.9896,-4.0086,-3.9858,-4.0007,-4.0188,0.0,0.0,0.0,0.0,0.0,0.0,0.0,0.0,0.0,0.0,-3.3407,-3.3081,-3.3081,-3.2456,-3.1868,-3.1158,-3.0481,-2.9831,-2.9192,-2.9052,-2.9052,-2.9052,-2.9052,-2.8868,-2.8402,-2.7712,-2.7039,-2.6578,-2.5829,-2.5491,-2.5645,-2.6151,-2.6841,-2.767,-2.8427,-2.9142,-2.9808,-2.996,-3.005,-3.0111,-3.0111,-3.0111,-3.0125,-3.0305,-3.0273,-3.0178,-3.0264,-3.0306,-3.0306,-3.0306,-3.0306,-3.0354,-3.1191,-3.1657,-3.1913,-3.3027,-3.3603,-3.3874,-3.4032,-3.4165,-3.423,-3.4133,-3.4101,-3.4101,-3.4101,-3.4101,-3.4101,-3.4101,-3.4101,-3.4101,-3.4101,-3.4101,-3.4201,-3.4546,-3.4991,-3.5419,-3.5715,-3.6516,-3.7203,-3.7392,-3.7503,-3.7577,-3.7594,-3.7577,-3.7577,-3.7577,-3.7577,-3.7577,-3.7577,-3.7577,-3.7577,-3.7577,-3.7577,-3.7577,-3.7577,-3.7577,-3.7577,-3.7577,-3.7684,-3.7755,-3.7755,-3.7755,-3.7882,-3.8077,-3.8887,-3.9247,-3.9193,-3.9758,-4.0056,-4.0048,-3.9738,-3.9652,0.0,0.0,0.0,0.0,0.0,0.0,0.0,0.0,-3.4274,-3.396,-3.3709,-3.3445,-3.3131,-3.2604,-3.2039,-3.1405,-3.0705,-3.0077,-2.9543,-2.9365,-2.9275,-2.9275,-2.9275,-2.8987,-2.8369,-2.7753,-2.714,-2.6602,-2.5981,-2.5676,-2.5758,-2.6389,-2.7111,-2.792,-2.8762,-2.9546,-3.0251,-3.0341,-3.0401,-3.0401,-3.0401,-3.0401,-3.0401,-3.0447,-3.0341,-3.0111,-3.0158,-3.0158,-3.0111,-3.0158,-3.0158,-3.0172,-3.1043,-3.1537,-3.1946,-3.2841,-3.3709,-3.4394,-3.4196,-3.436,-3.4635,-3.423,-3.4101,-3.4101,-3.4101,-3.4101,-3.4101,-3.4101,-3.4101,-3.4101,-3.4101,-3.4101,-3.4201,-3.4594,-3.5131,-3.5616,-3.5968,-3.6638,-3.7241,-3.7466,-3.754,-3.7577,-3.7577,-3.7577,-3.7577,-3.7577,-3.7577,-3.7577,-3.7577,-3.7577,-3.7577,-3.7577,-3.7577,-3.7577,-3.7577,-3.7577,-3.7577,-3.7577,-3.7577,-3.7577,-3.7577,-3.7757,-3.788,-3.7984,-3.8345,-3.8697,-3.9026,-3.9258,-3.9526,-3.9751,-3.9621,-3.9618,0.0,0.0,0.0,0.0,0.0,0.0,0.0,0.0,-3.4813,0.0,-3.4098,-3.3771,-3.337,-3.2817,-3.2252,-3.1687,-3.1066,-3.0448,-3.008,-2.9699,-2.9509,-2.9509,-2.9509,-2.922,-2.8521,-2.7903,-2.736,-2.6818,-2.6205,-2.5968,-2.6245,-2.6879,-2.7657,-2.8505,-2.9219,-2.9931,-3.0568,-3.0568,-3.0568,-3.0568,-3.0568,-3.0568,-3.0568,-3.0568,-3.0462,-3.0233,-3.0326,-3.0326,-3.0233,-3.0341,-3.0326,-3.028,-3.0999,-3.1537,-3.2003,-3.2718,-3.372,-3.4623,-3.4228,-3.4457,-3.4813,-3.4279,-3.4101,-3.4101,-3.4101,-3.4101,-3.4101,-3.4101,-3.4101,-3.4101,-3.4101,-3.4201,-3.4349,-3.4626,-3.5224,-3.5837,-3.6426,-3.6873,-3.7261,-3.754,-3.7577,-3.7577,-3.7577,-3.7577,-3.7577,-3.7577,-3.7577,-3.7577,-3.7577,-3.7577,-3.7577,-3.7577,-3.7577,-3.7577,-3.7577,-3.7577,-3.7577,-3.7577,-3.7577,-3.7613,-3.7685,-3.788,-3.8052,-3.8186,-3.8219,-3.8446,-3.891,-3.8979,-3.9175,-3.9502,-3.957,-3.9647,0.0,0.0,0.0,0.0,0.0,0.0,0.0,0.0,0.0,-3.5466,-3.4625,-3.3884,-3.3859,-3.3407,-3.2842,-3.2265,-3.17,-3.1173,-3.0645,-3.0118,-2.9792,-2.9792,-2.9792,-2.9566,-2.8913,-2.8188,-2.7567,-2.7021,-2.6346,-2.6233,-2.7095,-2.7802,-2.857,-2.9498,-3.019,-3.0568,-3.0568,-3.0568,-3.0568,-3.0568,-3.0568,-3.0568,-3.0568,-3.0568,-3.0568,-3.0568,-3.0568,-3.0568,-3.0568,-3.0568,-3.0568,-3.0642,-3.1102,-3.1552,-3.1977,-3.2734,-3.3314,-3.3793,-3.4016,-3.4133,-3.4149,-3.4117,-3.4101,-3.4101,-3.4101,-3.4101,-3.4101,-3.4101,-3.4101,-3.4101,-3.4101,-3.4399,-3.4691,-3.4785,-3.5357,-3.6122,-3.7048,-3.7317,-3.7429,-3.7577,-3.7577,-3.7577,-3.7577,-3.7577,-3.7577,-3.7577,-3.7577,-3.7577,-3.7577,-3.7577,-3.7577,-3.7577,-3.7577,-3.7577,-3.7577,-3.7577,-3.7577,-3.7577,-3.7577,-3.7721,-3.7949,-3.7984,-3.8252,-3.8762,-3.8803,-3.8862,-3.891,-3.921,-3.9401,-3.9502,-3.9647,-3.9717,0.0,0.0,0.0,0.0,0.0,0.0,0.0,-3.5542,-3.5441,-3.509,-3.47,-3.4211,-3.3508,-3.3206,-3.288,-3.2303,-3.175,-3.121,-3.0683,-3.0143,-3.0011,-3.0482,-3.0075,-2.9644,-2.9207,-2.8429,-2.778,-2.7319,-2.7075,-2.7271,-2.7986,-2.8698,-2.9219,-2.9623,-3.0251,-3.0568,-3.0568,-3.0568,-3.0568,-3.0568,-3.0568,-3.0568,-3.0568,-3.0568,-3.0568,-3.0568,-3.0568,-3.0568,-3.0568,-3.0568,-3.0568,-3.0642,-3.1102,-3.161,-3.2089,-3.2772,-3.3335,-3.3848,-3.405,-3.4101,-3.4101,-3.4101,-3.4101,-3.4101,-3.4101,-3.4101,-3.4101,-3.4101,-3.4101,-3.4151,-3.4399,-3.4626,-3.4927,-3.5671,-3.6207,-3.6736,-3.7223,-3.7392,-3.7429,-3.7577,-3.7577,-3.7577,-3.7577,-3.7577,-3.7577,-3.7577,-3.7577,-3.7577,-3.7577,-3.7577,-3.7577,-3.7577,-3.7577,-3.7577,-3.7577,-3.7577,-3.7577,-3.7577,-3.7757,-3.788,-3.7984,-3.8318,-3.8621,-3.8792,-3.9082,-3.9221,-3.9237,-3.9376,-3.9526,-3.9642,-3.9717,-3.9781,-3.057,0.0,0.0,0.0,0.0,0.0,0.0,0.0,-3.4939,-3.4763,-3.4831,-3.4553,-3.357,-3.3683,-3.3688,-3.2791,-3.2148,-3.1669,-3.1422,-3.0945,-3.0709,-3.1267,-3.069,-3.0151,-2.9932,-2.9073,-2.8386,-2.8146,-2.7974,0.0,-2.8826,-2.9345,-2.9685,-2.9931,-3.0387,-3.0568,-3.0568,-3.0568,-3.0568,-3.0568,-3.0568,-3.0568,-3.0568,-3.035,-3.0379,-3.0568,-3.035,-3.0379,-3.0568,-3.0568,-3.0568,-3.0628,-3.0925,-3.148,-3.2089,-3.2625,-3.3245,-3.3848,-3.405,-3.4101,-3.4101,-3.4101,-3.4101,-3.4101,-3.4101,-3.4101,-3.4101,-3.4101,-3.4101,-3.4201,-3.4626,-3.5021,-3.5537,-3.6392,-3.6873,-3.7164,-3.7354,-3.7392,-3.7429,-3.7577,-3.7577,-3.7577,-3.7577,-3.7577,-3.7577,-3.7577,-3.7577,-3.7577,-3.7577,-3.7577,-3.7577,-3.7577,-3.7577,-3.7577,-3.7577,-3.7577,-3.7577,-3.7577,-3.7757,-3.7915,-3.7984,-3.835,-3.8621,-3.8822,-3.911,-3.9335,-3.9452,-3.9526,-3.9623,-3.9735,-3.9804,-3.9826,0.0,0.0,0.0,0.0,0.0,0.0,0.0,0.0,-3.401,-3.4562,-3.4992,-3.4938,-3.4123,-3.4892,-3.5103,-3.3642,-3.2999,-3.2672,-3.2901,-3.2453,-3.2074,-3.2146,-3.1558,-3.1121,-3.1108,-3.0011,-2.9307,-2.9294,-2.8817,-2.8826,-2.9623,-2.9623,-2.9931,-3.0568,-3.0553,-3.0553,-3.0553,-3.0524,-3.0524,-3.0553,-3.0553,-3.0553,-3.0524,-2.9914,-2.9958,-3.051,-2.99,-2.9987,-3.0568,-3.0568,-3.0568,-3.0568,-3.0568,-3.1131,-3.1936,-3.2287,-3.2942,-3.3745,-3.4,-3.4084,-3.4068,-3.4068,-3.4052,-3.4036,-3.4068,-3.4068,-3.4068,-3.4101,-3.4101,-3.4234,-3.469,-3.5627,-3.6516,-3.693,-3.7203,-3.7392,-3.7429,-3.7429,-3.7449,-3.7577,-3.7577,-3.7577,-3.7577,-3.7577,-3.7577,-3.7577,-3.7577,-3.7577,-3.7577,-3.7577,-3.7577,-3.7577,-3.7577,-3.7577,-3.7577,-3.7577,-3.7577,-3.7577,-3.7631,-3.7721,-3.7984,-3.8018,-3.8318,-3.891,-3.896,-3.9219,-3.9599,-3.9665,-3.9735,-3.9804,-3.9867,-3.9889,-2.998,0.0,0.0,0.0,0.0,0.0,0.0,0.0,0.0,-3.4327,-3.4949,-3.5383,-3.515,-3.5413,-3.5355,-3.4643,-3.3973,-3.3369,-3.2976,-3.2453,-3.229,-3.2861,-3.1828,-3.1182,-3.1374,-3.0117,-2.9343,0.0,-2.938,-2.9608,-3.0312,-3.0312,-3.0387,-3.0568,-3.0132,-2.9885,-2.9885,-2.9435,-2.9435,-2.9885,-2.9885,-2.9885,-2.9885,-2.9697,-2.9726,-2.9871,-2.9697,-2.9987,-3.0568,-3.0568,-3.0568,-3.0568,-3.0568,-3.1131,-3.1936,-3.2287,-3.2942,-3.3745,-3.4,-3.3777,-3.3372,-3.3372,-3.3016,-3.2676,-3.321,-3.3372,-3.3469,-3.3955,-3.4151,-3.4464,-3.5357,-3.6207,-3.6913,-3.7241,-3.7354,-3.7429,-3.754,-3.754,-3.754,-3.7577,-3.7577,-3.7577,-3.7577,-3.7577,-3.7577,-3.7577,-3.7577,-3.7577,-3.7577,-3.7577,-3.7577,-3.7577,-3.7577,-3.7577,-3.7577,-3.7577,-3.7577,-3.7577,-3.7774,-3.7915,-3.7984,-3.8382,-3.8683,-3.891,-3.9156,-3.9401,-3.9599,-3.9665,-3.9758,-3.9867,-3.9889,-3.9889,-2.9503,0.0,0.0,0.0,0.0,0.0,-3.2021,-3.2739,0.0,0.0,-3.5318,-3.5949,-3.5615,-3.6267,-3.6508,-3.5691,-3.5325,-3.4787,-3.3687,-3.3254,-3.3241,-3.3742,-3.2831,-3.2143,-3.204,-3.1033,-3.0256,-3.0036,-3.0007,-3.0076,-3.019,-3.0176,-3.006,-2.9798,-2.9421,-2.9232,-2.9232,-2.8869,-2.8869,-2.9232,-2.9232,-2.9232,-2.9232,-2.8956,-2.8971,-2.9232,-2.9232,-2.9435,-2.9798,-3.0074,-3.0335,-3.0568,-3.0568,-3.1029,-3.1724,-3.2104,-3.2749,-3.3423,-3.3544,-3.3355,-3.3032,-3.274,-3.2352,-3.2093,-3.2514,-3.2854,-3.3178,-3.3566,-3.4251,-3.5021,-3.5732,-3.6516,-3.7182,-3.7354,-3.7449,-3.7503,-3.7577,-3.7577,-3.7577,-3.7577,-3.7577,-3.7577,-3.7577,-3.7577,-3.7577,-3.7577,-3.7577,-3.7577,-3.7577,-3.7577,-3.7577,-3.7577,-3.7577,-3.7577,-3.7577,-3.7577,-3.7577,-3.7577,-3.7757,-3.788,-3.8052,-3.835,-3.8664,-3.8979,-3.9192,-3.9452,-3.967,-3.9735,-3.98,-3.9889,-3.9889,-3.9889,-2.8988,-2.9214,0.0,0.0,-2.9691,0.0,-3.198,-3.2529,-3.3,0.0,-3.5787,-3.655,-3.5809,-3.711,-3.7841,-3.6365,-3.6577,-3.6329,-3.4758,-3.4525,-3.4549,-3.4698,-3.4164,-3.3548,-3.3006,-3.2288,-3.1538,-3.0773,-3.0671,-3.0351,-2.9711,-2.9682,-2.9391,-2.8751,-2.8664,-2.8621,-2.8621,-2.8562,-2.8507,-2.8579,-2.8579,-2.8579,-2.855,-2.7984,-2.8042,-2.8579,-2.8579,-2.8608,-2.8724,-2.929,-2.9856,-3.0364,-3.0364,-3.0705,-3.1275,-3.1814,-3.2392,-3.2903,-3.283,-3.2789,-3.274,-3.2093,-3.1834,-3.1785,-3.1866,-3.2336,-3.2886,-3.308,-3.4283,-3.5559,-3.5847,-3.6597,-3.7334,-3.7392,-3.7503,-3.7577,-3.7577,-3.7577,-3.7577,-3.7577,-3.7577,-3.7577,-3.7577,-3.7577,-3.7577,-3.7577,-3.7577,-3.7577,-3.7577,-3.7577,-3.7577,-3.7577,-3.7577,-3.7577,-3.7577,-3.7577,-3.7577,-3.7577,-3.7613,-3.7774,-3.8101,-3.8168,-3.8436,-3.8952,-3.8995,-3.9171,-3.952,-3.9709,-3.9826,-3.9889,-3.9889,-3.9889,-2.8423,-2.8348,-2.8549,-2.8988,-2.9101,0.0,-3.094,-3.1761,-3.2603,0.0,-3.5139,-3.5969,-3.6346,-3.6807,-3.6711,-3.54,-3.6153,-3.663,-3.5751,-3.5125,-3.4802,-3.4868,-3.4309,-3.3932,-3.38,-3.2647,-3.1882,-3.1764,-3.1293,-3.0734,-3.0029,-3.0,-2.9692,-2.9016,-2.8378,-2.8046,-2.8046,-2.7457,-2.7403,-2.7926,-2.7926,-2.7926,-2.7911,-2.7781,-2.7741,-2.7926,-2.7926,-2.8202,-2.8695,-2.8811,-2.8942,-2.9044,-2.9044,-2.962,-3.0574,-3.1171,-3.1712,-3.2237,-3.267,-3.2144,-3.1332,-3.114,-3.0749,-3.0393,-3.0959,-3.1235,-3.1621,-3.2947,-3.4084,-3.507,-3.5908,-3.6719,-3.7334,-3.7503,-3.7577,-3.7577,-3.7577,-3.7577,-3.7577,-3.7577,-3.7577,-3.7577,-3.7577,-3.7577,-3.7577,-3.7577,-3.7577,-3.7577,-3.7577,-3.7577,-3.7577,-3.7577,-3.7577,-3.7577,-3.7577,-3.7577,-3.7577,-3.7577,-3.781,-3.7984,-3.8101,-3.8585,-3.8627,-3.8141,-3.7831,-3.7756,-3.7862,-3.9226,-3.9889,-3.9889,-3.9889,-3.9889,-2.7921,-2.7896,-2.817,-2.852,-2.8797,0.0,0.0,-3.1924,-3.2875,-3.3742,-3.4824,-3.5634,-3.5703,-3.5908,-3.594,-3.5614,-3.5918,-3.6208,-3.6193,-3.5762,-3.5288,-3.5111,-3.4786,-3.446,-3.412,-3.3203,-3.2359,-3.1589,-3.125,-3.0793,-3.0129,-2.979,-2.9304,-2.8641,-2.7939,-2.7548,-2.7548,-2.7097,-2.7059,-2.7365,-2.7258,-2.7258,-2.7258,-2.7258,-2.7258,-2.7273,-2.7592,-2.7737,-2.7766,-2.8071,-2.8013,-2.7795,-2.8434,-2.9024,-2.9569,-3.031,-3.0791,-3.1212,-3.1548,-3.1549,-3.1413,-3.0995,-3.0684,-3.0457,-3.0814,-3.0927,-3.1356,-3.3006,-3.4074,-3.4925,-3.5941,-3.6759,-3.7334,-3.754,-3.7577,-3.7577,-3.7577,-3.7577,-3.747,-3.7077,-3.7327,-3.7577,-3.7577,-3.7577,-3.7577,-3.7577,-3.7577,-3.7577,-3.7577,-3.7577,-3.7577,-3.7577,-3.7577,-3.7577,-3.7577,-3.7577,-3.7649,-3.7792,-3.7949,-3.8201,-3.8554,-3.8506,-3.8193,-3.7601,-3.7389,-3.7329,-3.739,-3.8243,-3.8888,-3.9304,-3.9721,-3.9889,-2.7708,-2.7682,-2.8075,-2.8456,-2.8752,-2.9376,0.0,0.0,0.0,0.0,0.0,0.0,0.0,0.0,0.0,0.0,0.0,0.0,0.0,-3.5733,0.0,-3.5273,-3.5294,-3.507,-3.4505,-3.3776,-3.2733,-3.1294,-3.119,-3.0894,-3.0214,-2.9563,-2.8926,-2.8275,-2.7624,-2.7233,-2.7233,-2.7093,-2.7055,-2.7003,-2.6779,-2.6712,-2.6779,-2.6674,-2.6674,-2.6823,-2.7331,-2.7258,-2.6823,-2.7345,-2.7244,-2.6881,-2.7911,-2.839,-2.8604,-2.9349,-2.9824,-3.0094,-3.0306,-3.0908,-3.1447,-3.0911,-3.0716,-3.0765,-3.104,-3.1177,-3.1504,-3.3073,-3.4007,-3.4728,-3.5628,-3.6361,-3.6891,-3.7094,-3.7131,-3.7131,-3.7131,-3.7131,-3.6934,-3.6292,-3.6684,-3.7184,-3.7327,-3.7487,-3.7541,-3.738,-3.7487,-3.7523,-3.738,-3.7487,-3.7577,-3.7577,-3.7577,-3.7577,-3.7577,-3.7577,-3.765,-3.7767,-3.7866,-3.8118,-3.8554,-3.7906,-3.7408,-3.7081,-3.6911,-3.6876,-3.6917,-3.7087,-3.7694,-3.8738,-3.938,-3.9759,-2.8185,-2.7708,-2.767,-2.8974,-2.8934,-2.9119,-3.1284,0.0,-3.2148,-3.2918,0.0,0.0,0.0,0.0,0.0,0.0,0.0,0.0,-3.3903,-3.4337,-3.4842,-3.5379,-3.5439,-3.5409,-3.5335,-3.4247,-3.2885,-3.1586,-3.1482,-3.1168,-3.0481,-2.9869,-2.9227,-2.8569,-2.7794,-2.7401,-2.7401,-2.7233,-2.7144,-2.7003,-2.6418,-2.6418,-2.6779,-2.6233,-2.6286,-2.6779,-2.6852,-2.6852,-2.6794,-2.6852,-2.6852,-2.6794,-2.6939,-2.7345,-2.7893,-2.8388,-2.883,-2.9327,-2.9779,-2.9973,-2.9968,-3.002,-3.006,-3.0347,-3.1678,-3.1749,-3.1671,-3.2757,-3.3406,-3.3922,-3.4471,-3.4918,-3.5315,-3.5454,-3.5471,-3.5471,-3.5471,-3.5471,-3.5453,-3.5364,-3.5418,-3.5703,-3.6417,-3.7113,-3.7345,-3.6631,-3.7131,-3.7327,-3.6631,-3.7148,-3.7577,-3.7577,-3.7577,-3.7577,-3.7577,-3.7577,-3.7417,-3.704,-3.7207,-3.7195,-3.6972,-3.6535,-3.6323,-3.6329,-3.5571,-3.5192,-3.5192,-3.595,-3.7144,-3.8719,-3.8774,-3.921,0.0,-2.7498,-2.7834,-2.8422,-2.8996,-2.9622,-3.0566,-3.1377,-3.1926,0.0,0.0,0.0,0.0,0.0,0.0,0.0,-3.2976,0.0,0.0,0.0,-3.4158,0.0,0.0,0.0,-3.3814,-3.3604,-3.2946,-3.1571,-3.1482,-3.1347,-3.112,-3.0477,-2.9819,-2.919,-2.848,-2.7891,-2.7539,-2.7386,-2.713,-2.6698,-2.6297,-2.619,-2.6394,-2.6056,-2.6233,-2.6779,-2.6779,-2.6779,-2.6779,-2.6779,-2.6779,-2.6779,-2.6779,-2.6939,-2.7224,-2.7632,-2.8117,-2.8602,-2.9122,-2.9736,-3.0322,-3.0518,-3.0607,-3.0684,-3.1057,-3.1024,-3.1113,-3.2194,-3.3141,-3.3911,-3.4303,-3.5062,-3.5634,-3.5294,-3.5204,-3.5204,-3.5204,-3.5204,-3.5079,-3.465,-3.4918,-3.5186,-3.5079,-3.5703,-3.6096,-3.5757,-3.5989,-3.6096,-3.5757,-3.6006,-3.6203,-3.6203,-3.6203,-3.6203,-3.6203,-3.6203,-3.6267,-3.6349,-3.6736,-3.6727,-3.6184,-3.6054,-3.5809,-3.5456,-3.5078,-3.4908,-3.4908,-3.5268,-3.631,-3.7959,-3.8452,-3.9134,-2.7659,0.0,0.0,0.0,0.0,0.0,-3.0418,-3.1172,-3.1753,-3.1455,0.0,0.0,0.0,0.0,0.0,0.0,0.0,0.0,0.0,0.0,0.0,0.0,0.0,0.0,0.0,-3.2946,-3.2766,-3.1556,-3.1482,-3.1482,-3.1482,-3.0881,-3.0223,-2.9609,-2.8951,-2.8263,-2.7625,-2.7473,-2.7115,-2.6457,-2.6229,-2.6136,-2.6056,-2.5948,-2.6233,-2.6779,-2.6779,-2.6779,-2.6779,-2.6779,-2.6779,-2.6779,-2.6779,-2.6779,-2.6832,-2.7248,-2.766,-2.8125,-2.8716,-2.9607,-3.059,-3.0998,-3.1022,-3.0915,-3.0958,-3.0863,-3.094,-3.1941,-3.2872,-3.3611,-3.3857,-3.4624,-3.5207,-3.467,-3.4579,-3.4579,-3.4579,-3.4579,-3.4418,-3.3883,-3.4204,-3.4401,-3.3865,-3.4579,-3.5132,-3.4936,-3.5079,-3.5132,-3.4936,-3.5079,-3.5204,-3.5204,-3.5204,-3.5204,-3.5204,-3.5289,-3.5429,-3.5784,-3.6059,-3.5984,-3.5525,-3.5571,-3.5411,-3.4906,-3.4908,-3.4908,-3.4908,-3.4908,-3.5647,-3.7087,-3.794,-3.8906,0.0,0.0,0.0,-3.0471,0.0,0.0,0.0,0.0,-3.1497,-3.1482,-3.1497,0.0,0.0,0.0,0.0,0.0,0.0,0.0,0.0,0.0,0.0,0.0,0.0,0.0,0.0,-3.2542,-3.2273,0.0,-3.1482,-3.1482,-3.1482,-3.0881,-3.0223,-2.9609,-2.8951,-2.8263,-2.7625,-2.7575,-2.7152,-2.6283,-2.6283,-2.6136,-2.5893,-2.5893,-2.6233,-2.6779,-2.6779,-2.6779,-2.6779,-2.6779,-2.6779,-2.6779,-2.6779,-2.6779,-2.6832,-2.7248,-2.761,-2.7997,-2.8654,-2.938,-3.012,-3.088,-3.0811,-3.0655,-3.2022,-3.2045,-3.1698,-3.2303,-3.2598,-3.2731,-3.2685,-3.2778,-3.2912,-3.2973,-3.2955,-3.2955,-3.2955,-3.2955,-3.2987,-3.2952,-3.2969,-3.2987,-3.2952,-3.4204,-3.4972,-3.424,-3.474,-3.4954,-3.424,-3.4775,-3.5204,-3.5204,-3.5204,-3.5204,-3.5204,-3.5457,-3.5508,-3.5336,-3.4909,-3.468,-3.4724,-3.4846,-3.4925,-3.4887,-3.4908,-3.4908,-3.4908,-3.4908,-3.5363,-3.6253,-3.7068,-3.8319,0.0,0.0,-2.9361,-2.9875,0.0,0.0,0.0,0.0,0.0,0.0,0.0,0.0,0.0,0.0,0.0,0.0,0.0,0.0,0.0,0.0,0.0,0.0,0.0,0.0,0.0,0.0,0.0,0.0,-3.1482,0.0,-3.1482,-3.1258,-3.0881,-3.0223,-2.9983,-2.934,-2.8263,-2.8248,-2.7646,-2.6457,-2.596,-2.5811,-2.6002,-2.5536,-2.5879,-2.6779,-2.6779,-2.6779,-2.6779,-2.6779,-2.6779,-2.6779,-2.6779,-2.6779,-2.6832,-2.7248,-2.766,-2.8174,-2.9106,-2.9665,-3.0065,-3.0397,-3.0445,-3.05,-3.1021,-3.1031,-3.0975,-3.1409,-3.2122,-3.2714,-3.2407,-3.2928,-3.3428,-3.3009,-3.2916,-3.2916,-3.2916,-3.2916,-3.2916,-3.2916,-3.2916,-3.2916,-3.2916,-3.3312,-3.358,-3.333,-3.3508,-3.358,-3.333,-3.3508,-3.3669,-3.3669,-3.3669,-3.3734,-3.3876,-3.4255,-3.4458,-3.4423,-3.446,-3.4517,-3.4623,-3.4768,-3.4848,-3.4887,-3.4908,-3.4908,-3.4908,-3.4908,-3.5344,-3.6196,-3.6481,-3.7182,-2.8266,-2.894,0.0,-2.9799,-3.0698,0.0,-3.097,0.0,-3.1482,0.0,0.0,0.0,0.0,0.0,0.0,0.0,0.0,0.0,0.0,-3.1001,0.0,0.0,0.0,0.0,0.0,0.0,-3.1988,-3.1511,-3.1482,0.0,0.0,-3.1482,-3.112,-3.0208,-3.0178,-2.9549,-2.8248,-2.8233,-2.7632,-2.6457,-2.6176,-2.6028,-2.6002,-2.5756,-2.6042,-2.6779,-2.6779,-2.6779,-2.6779,-2.6779,-2.6779,-2.6779,-2.6779,-2.6884,-2.7041,-2.7423,-2.8042,-2.8764,-2.9531,-2.9946,-3.0162,-3.0231,-3.0359,-3.0443,-3.0485,-3.0526,-3.0568,-3.0895,-3.1652,-3.2331,-3.2231,-3.2842,-3.3428,-3.3009,-3.2916,-3.2916,-3.2916,-3.2916,-3.2916,-3.2916,-3.2916,-3.2916,-3.2916,-3.2916,-3.2916,-3.2916,-3.2916,-3.2916,-3.2916,-3.2916,-3.2916,-3.2916,-3.2916,-3.3024,-3.3309,-3.3707,-3.3998,-3.4124,-3.434,-3.4517,-3.4645,-3.4768,-3.4868,-3.4887,-3.4908,-3.4908,-3.4908,-3.4908,-3.5192,-3.5742,-3.5742,-3.6007]}]]